     2.11           OBSERVATION DATA    G (GPS)             RINEX VERSION / TYPE
teqc 2010Oct21 OPUS Account 20111028 15:10:18UTC            PGM / RUN BY / DATE
B 1527                                                      MARKER NAME
3062                                                        MARKER NUMBER
CSMIDDLETON NGS                                             OBSERVER / AGENCY
0220320152 TRIMBLE 5700 2.01                                REC # / TYPE / VERS
12214372 TRM41249.00 NONE                                   ANT # / TYPE
  -738802.5723 -5583010.4183  2984074.0253                  APPROX POSITION XYZ
        2.0000        0.0000        0.0000                  ANTENNA: DELTA H/E/N
     1     1                                                WAVELENGTH FACT L1/2
     5    L1    L2    C1    P1    P2                        # / TYPES OF OBSERV
    15                                                      LEAP SECONDS
  2011     8    22    16    44   30.0000000     GPS         TIME OF FIRST OBS
                                                            END OF HEADER
 11  8 22 16 44 30.0000000  0 11G03G06G07G08G10G11G13G16G19G23G28
    341108.25057    249221.05555  22202786.1884                   22202784.0394
    391023.35256    287395.56653  24203541.1954                   24203540.6884
   -410949.10558   -308776.46556  21340484.5164                   21340481.0704
   -524481.58257   -394768.96954  23008102.6024                   23008101.2464
    112995.84856     78226.99653  24465836.5474                   24465837.1024
   -558813.15656   -420098.07453  23532252.7114                   23532250.5784
    109672.13358     76499.84456  20371963.3134                   20371959.9654
    349280.23056    253490.91453  24734777.9924                   24734776.5864
    -18805.47758    -18152.67256  21015835.0394                   21015829.6134
    369717.92658    268550.82055  21592341.5084                   21592337.7894
   -404531.82857   -306614.38754  23658310.1564                   23658308.1724
 11  8 22 16 45  0.0000000  0 11G03G06G07G08G10G11G13G16G19G23G28
    403098.33247    297524.94145  22214582.4064                   22214580.7074
    461684.34846    342456.01644  24216987.7504                   24216987.0314
   -484897.85248   -366398.87546  21326412.2344                   21326408.8674
   -620130.92247   -469300.91445  22989901.3284                   22989899.7154
    134641.55146     95093.68843  24469955.4694                   24469955.6604
   -660346.52747   -499214.94944  23512931.7344                   23512929.4184
    130316.05148     92585.98046  20375891.5864                   20375888.3524
    410719.75046    301365.77342  24746468.9064                   24746467.9344
    -21022.27348    -19880.06246  21015412.9924                   21015408.3324
    436270.78148    320410.11746  21605006.0394                   21605002.5704
   -482890.23047   -367672.82844  23643399.4534                   23643398.2814
 11  8 22 16 45 30.0000000  0 11G03G06G07G08G10G11G13G16G19G23G28
    465321.20747    346010.24645  22226422.8524                   22226421.6214
    532421.11746    397575.50044  24230449.0314                   24230447.8914
   -558869.44548   -424039.09846  21312335.7274                   21312332.5204
   -715959.01647   -543972.12944  22971665.7734                   22971663.4344
    156396.13346    112045.24243  24474095.2584                   24474095.5004
   -761958.26647   -578392.89844  23493595.3984                   23493593.3524
    151379.68448    108999.16446  20379899.8834                   20379896.5984
    471918.69945    349053.13742  24758114.7734                   24758113.6724
    -22776.73048    -21247.19146  21015079.6564                   21015074.6764
    503043.55948    372440.78545  21617712.6954                   21617708.5824
   -561175.24647   -428674.10944  23628502.4774                   23628500.9144
 11  8 22 16 46  0.0000000  0 11G03G06G07G08G10G11G13G16G19G23G28
    527795.50447    394691.45745  22238311.3754                   22238309.4964
    603252.78146    452768.94144  24243927.4534                   24243926.8714
   -632840.62148   -481678.98046  21298259.8834                   21298256.7384
   -811943.84447   -618765.50045  22953400.1724                   22953398.1134
    178278.11746    129096.05143  24478259.3444                   24478260.1414
   -863623.82847   -657612.75844  23474248.4304                   23474247.2704
    172883.07048    125755.02046  20383991.8914                   20383988.9224
    532897.59845    396569.07842  24769718.6954                   24769716.7814
    -24047.74648    -22237.60546  21014837.5634                   21014832.8634
    570055.07848    424657.48845  21630464.6724                   21630460.3554
   -639365.93047   -489601.91444  23613623.0394                   23613621.5274
 11  8 22 16 46 30.0000000  0 11G03G06G07G08G10G11G13G16G19G23G28
    590523.95347    443570.69545  22250248.7424                   22250246.7384
    674182.32046    508038.63344  24257425.2664                   24257424.3134
   -706804.01648   -539312.80546  21284184.6334                   21284182.0164
   -908078.66847   -693675.75844  22935106.4614                   22935104.2344
    200290.54346    146248.48443  24482448.0314                   24482448.6914
   -965335.11347   -736868.27043  23454894.0704                   23454892.1804
    194830.67648    142857.00446  20388168.3444                   20388165.0594
    593661.58245    443917.60542  24781283.1334                   24781280.5164
    -24830.78948    -22847.79746  21014688.5554                   21014683.6174
    637307.98848    477062.27045  21643262.4614                   21643257.8754
   -717457.09047   -550452.13744  23598762.7194                   23598760.9184
 11  8 22 16 47  0.0000000  0 11G03G06G07G08G10G11G13G16G19G23G28
    653513.07447    492653.07445  22262235.3134                   22262233.0824
    745216.80546    563390.09844  24270942.3754                   24270942.1564
   -780748.71148   -596932.05946  21270113.7584                   21270110.4804
  -1004353.05547   -768694.74645  22916785.5784                   22916783.9964
    222440.51646    163508.08643  24486663.4694                   24486663.6564
  -1067079.37147   -816149.48044  23435532.4844                   23435530.8954
    217230.64548    160311.48846  20392431.0394                   20392427.7074
    654219.51246    491105.56342  24792806.7114                   24792803.9734
    -25117.40648    -23071.15246  21014633.9844                   21014629.0984
    704809.51248    529660.78545  21656107.5164                   21656102.8014
   -795439.55547   -611217.65244  23583923.4064                   23583921.3204
 11  8 22 16 47 30.0000000  0 11G03G06G07G08G10G11G13G16G19G23G28
    716762.24247    541938.08244  22274271.0554                   22274269.1684
    816355.40247    618822.69944  24284480.6024                   24284479.3674
   -854671.44548   -654534.19546  21256046.7814                   21256043.5634
  -1100764.41847   -843820.48444  22898439.7814                   22898437.1764
    244727.34446    180874.36743  24490904.6564                   24490904.9534
  -1168851.75847   -895452.62144  23416165.5704                   23416163.8954
    240083.49648    178118.87546  20396779.6724                   20396776.3164
    714572.43446    538133.80142  24804290.8134                   24804289.0004
    -24906.52748    -22906.84846  21014674.2274                   21014669.3594
    772558.84448    582452.39845  21669000.2194                   21668995.8954
   -873311.87147   -671897.35244  23569104.4384                   23569102.3754
 11  8 22 16 48  0.0000000  0 11G03G06G07G08G10G11G13G16G19G23G28
    780274.30147    591427.93445  22286356.6954                   22286355.4104
    887601.28146    674338.91843  24298037.1804                   24298037.2814
   -928565.07848   -712113.65646  21241984.9224                   21241982.2854
  -1197306.19147   -919047.82445  22880068.2584                   22880066.0704
    267153.91046    198349.53543  24495172.0474                   24495172.0634
  -1270643.54347   -974770.85544  23396795.5864                   23396793.3984
    263393.64148    196282.58246  20401215.5234                   20401212.4454
    774724.91846    585005.82043  24815738.1024                   24815735.7894
    -24193.47748    -22351.23846  21014809.5704                   21014805.3094
    840558.93048    635439.41445  21681939.7194                   21681935.6134
   -951068.82847   -732487.15644  23554308.0234                   23554306.3134
 11  8 22 16 48 30.0000000  0 11G03G06G07G08G10G11G13G16G19G23G28
    844049.89847    641123.15244  22298492.6484                   22298490.6414
    958955.62146    729939.62143  24311615.6884                   24311615.5664
  -1002424.23848   -769666.26246  21227930.1564                   21227927.1254
  -1293973.75047   -994373.19145  22861673.1884                   22861671.1884
    289721.47346    215934.57043  24499466.3984                   24499467.4534
  -1372448.21147  -1054099.14844  23377422.7504                   23377420.6524
    287163.36748    214804.40646  20405738.8984                   20405735.2974
    834680.34046    631724.27043  24827147.2274                   24827145.0474
    -22975.61748    -21402.27746  21015041.7584                   21015036.9064
    908810.87548    688622.68845  21694927.7424                   21694923.8634
  -1028706.83247   -792984.27344  23539533.8524                   23539531.8754
 11  8 22 16 49  0.0000000  0 11G03G06G07G08G10G11G13G16G19G23G28
    908091.88347    691025.93044  22310680.0234                   22310678.0434
   1030421.54346    785627.29743  24325215.9694                   24325214.6914
  -1076241.74248   -827186.40246  21213883.3364                   21213880.0204
  -1390760.68747  -1069791.56245  22843254.8914                   22843252.9414
    312432.41046    233631.29343  24503788.2734                   24503788.4774
  -1474257.33647  -1133430.89844  23358049.2344                   23358047.4694
    311396.86348    233687.61746  20410350.2274                   20410346.6884
    894443.49646    678292.94143  24838519.8444                   24838517.7704
    -21248.30948    -20056.35246  21015370.0784                   21015365.2974
    977317.53148    742004.41845  21707964.3914                   21707960.4654
  -1106220.87147   -853384.77744  23524783.3674                   23524781.7704
 11  8 22 16 49 30.0000000  0 11G03G06G07G08G10G11G13G16G19G23G28
    972398.06647    741134.57444  22322916.8524                   22322915.2464
   1101997.41446    841400.65243  24338836.0394                   24338834.8714
  -1150015.01648   -884672.09046  21199844.7664                   21199841.4694
  -1487664.71547  -1145301.18745  22824814.6724                   22824813.0274
    335285.06646    251438.48043  24508136.6804                   24508137.4734
  -1576066.92647  -1212763.01644  23338675.3674                   23338673.4844
    336093.46548    252931.68846  20415049.7814                   20415046.6804
    954014.48046    724711.82443  24849855.3594                   24849853.9144
    -19011.61348    -18313.49246  21015795.7584                   21015791.3324
   1046077.01648    795583.16845  21721048.9694                   21721045.0044
  -1183610.67647   -913688.48044  23510056.6484                   23510054.9654
 11  8 22 16 50  0.0000000  0 10G03G06G07G08G10G11G13G19G23G28
   1036972.91847    791452.57444  22335204.8754                   22335203.0704
   1173687.70346    897263.15643  24352478.5634                   24352476.6604
  -1223735.19548   -942116.40246  21185816.1804                   21185813.1604
  -1584677.55547  -1220895.58245  22806353.7734                   22806351.9104
    358284.16846    269359.69943  24512513.9384                   24512514.6294
  -1677866.75447  -1292087.53544  23319303.3594                   23319301.7544
    361258.93048    272541.10546  20419838.5084                   20419835.4264
    -16259.49248    -16169.00446  21016319.6644                   21016315.0474
   1115093.85248    849362.44945  21734182.8284                   21734178.5044
  -1260869.47747   -973890.09044  23495354.9534                   23495352.8794
 11  8 22 16 50 30.0000000  0 10G03G06G07G08G10G11G13G19G23G28
   1101811.87946    841976.37544  22347543.5234                   22347542.2504
   1245488.54746    953211.80143  24366141.1954                   24366140.1374
  -1297402.71948   -999519.68046  21171797.7114                   21171794.8204
  -1681800.37547  -1296575.68445  22787872.2194                   22787869.8794
    381425.55546    287391.87143  24516917.9064                   24516918.4184
  -1779655.48447  -1371403.39544  23299933.8134                   23299931.7234
    386890.15248    292513.44946  20424716.1174                   20424713.1374
    -12994.68448    -13625.00446  21016940.8204                   21016936.0124
   1184363.64148    903338.82845  21747364.1174                   21747359.9654
  -1337999.11347  -1033991.10244  23480676.7034                   23480675.4104
 11  8 22 16 51  0.0000000  0 10G03G06G07G08G10G11G13G19G23G28
   1166921.78946    892711.30944  22359933.5394                   22359931.8164
   1317407.09046   1009252.19943  24379826.5554                   24379825.6724
  -1371006.18048  -1056873.05146  21157791.5004                   21157788.3714
  -1779022.28947  -1372332.99645  22769371.1334                   22769369.5044
    404716.02346    305540.22343  24521349.1414                   24521349.5204
  -1881420.65647  -1450700.91444  23280568.6024                   23280566.8164
    412995.44548    312855.19946  20429683.8524                   20429680.8554
     -9208.55148    -10674.78946  21017661.1954                   21017656.7854
   1253893.44548    957517.83245  21760595.1094                   21760591.2814
  -1414990.48047  -1093984.33244  23466026.1954                   23466024.4494
 11  8 22 16 51 30.0000000  0 10G03G06G07G08G10G11G13G19G23G28
   1232302.35946    943657.12944  22372374.6334                   22372373.5514
   1389442.75046   1065383.80543  24393534.3284                   24393533.7304
  -1444541.50848  -1114173.31646  21143798.3754                   21143795.3484
  -1876339.95747  -1448164.95345  22750852.5474                   22750850.3874
    428155.00846    323804.25043  24525810.3984                   24525810.4024
  -1983156.77047  -1529975.76644  23261209.3524                   23261207.0004
    439575.93848    333567.23446  20434741.5634                   20434738.8954
     -4899.85548     -7317.37946  21018481.2734                   21018476.6764
   1323682.80148   1011899.07445  21773875.7194                   21773871.8244
  -1491841.85547  -1153868.50844  23451402.3134                   23451400.0204
 11  8 22 16 52  0.0000000  0 10G03G06G07G08G10G11G13G19G23G28
   1297950.66047    994811.59444  22384867.3284                   22384866.0394
   1461593.56646   1121605.14542  24407265.0084                   24407263.7974
  -1518006.82448  -1171419.02046  21129818.1254                   21129815.2384
  -1973752.20347  -1524070.58645  22732315.5634                   22732313.2894
    451740.03146    342182.08243  24530298.3984                   24530298.5824
  -2084860.79747  -1609225.62544  23241855.4064                   23241853.0864
    466629.60248    354647.97746  20439890.1174                   20439887.1374
       -69.73847     -3553.66846  21019400.2814                   21019395.5784
   1393729.30148   1066480.68445  21787205.1804                   21787201.2544
  -1568553.34847  -1213643.67244  23436803.9844                   23436802.5744
 11  8 22 16 52 30.0000000  0 10G03G06G07G08G10G11G13G19G23G28
   1363863.04347   1046171.82844  22397410.4694                   22397408.9614
   1533856.00046   1177913.44143  24421016.0864                   24421015.1134
  -1591401.48448  -1228609.67246  21115851.8754                   21115848.4734
  -2071259.01247  -1600049.90645  22713760.2664                   22713758.4734
    475467.78146    360671.16443  24534812.8054                   24534813.7074
  -2186530.54747  -1688448.78544  23222507.9614                   23222505.9414
    494154.07048    376095.57046  20445128.0164                   20445124.9344
      5279.91448       614.88746  21020418.5084                   21020413.9064
   1464029.18048   1121259.73445  21800582.7814                   21800578.5944
  -1645126.41047  -1273310.95744  23422232.8914                   23422230.9224
 11  8 22 16 53  0.0000000  0 10G03G06G07G08G10G11G13G19G23G28
   1430036.72347   1097735.66444  22410003.2584                   22410001.3284
   1606227.49646   1234306.73443  24434788.1954                   24434787.2934
  -1664723.96548  -1285744.08646  21101898.9144                   21101895.4654
  -2168859.34847  -1676102.11745  22695187.4224                   22695185.8284
    499335.23046    379269.07843  24539355.5944                   24539355.3284
  -2288163.11347  -1767642.97344  23203167.9454                   23203165.8794
    522147.84448    397908.86746  20450455.0084                   20450451.8674
     11147.68848      5187.16846  21021534.8834                   21021530.4414
   1534579.41048   1176233.85545  21814008.1484                   21814003.8834
  -1721561.70347  -1332870.89844  23407687.5704                   23407685.5744
 11  8 22 16 53 30.0000000  0 10G03G06G07G08G10G11G13G19G23G28
   1496470.61347   1149502.27344  22422644.5554                   22422643.5124
   1678707.47346   1290784.54743  24448580.2584                   24448580.0704
  -1737971.02348  -1342819.72746  21087960.6094                   21087957.2464
  -2266550.15647  -1752224.81245  22676597.7664                   22676596.0044
    523341.58646    397975.25443  24543924.1884                   24543924.0274
  -2389753.55947  -1846804.33244  23183835.4384                   23183833.6844
    550611.30948    420088.14546  20455871.4144                   20455868.3754
     17534.40648     10163.82846  21022750.4384                   21022745.8874
   1605379.30948   1231402.54345  21827480.9454                   21827476.6604
  -1797857.51247  -1392322.16844  23393169.0234                   23393166.9494
 11  8 22 16 54  0.0000000  0 10G03G06G07G08G10G11G13G19G23G28
   1563161.89547   1201469.44144  22435335.9924                   22435334.5314
   1751293.56646   1347345.06644  24462393.2274                   24462392.7934
  -1811140.38748  -1399834.82046  21074036.7734                   21074033.8594
  -2364330.18047  -1828417.02345  22657990.7424                   22657989.2504
    547484.80146    416788.05543  24548518.0704                   24548517.4574
  -2491298.50447  -1925930.23844  23164512.4694                   23164510.3444
    579542.97348    442632.26246  20461376.9774                   20461374.0164
     24438.80948     15543.87146  21024064.2194                   21024059.6334
   1676426.55547   1286763.94545  21841000.9694                   21840996.9734
  -1874014.32847  -1451665.12544  23378676.7194                   23378674.6414
 11  8 22 16 54 30.0000000  0 10G03G06G07G08G10G11G13G19G23G28
   1630106.92247   1253634.35244  22448075.2274                   22448074.1524
   1823982.70746   1403985.89144  24476226.3204                   24476225.2934
  -1884231.18448  -1456788.69146  21060128.0864                   21060125.1564
  -2462198.87547  -1904678.32845  22639367.0314                   22639365.5474
    571760.89146    435704.38343  24553137.9144                   24553137.8404
  -2592795.90647  -2005019.09444  23145198.1564                   23145195.9534
    608940.59848    465539.46946  20466970.8204                   20466968.1644
     31858.97348     21325.80146  21025476.0864                   21025471.4494
   1747717.56647   1342315.30945  21854567.3054                   21854563.4804
  -1950033.30947  -1510900.66044  23364210.6724                   23364208.5474
 11  8 22 16 55  0.0000000  0 10G03G06G07G08G10G11G13G19G23G28
   1697305.51247   1305996.82444  22460863.1334                   22460861.1334
   1896774.84847   1460706.96944  24490077.5554                   24490076.9144
  -1957239.18048  -1513678.04746  21046234.9774                   21046232.2624
  -2560152.75047  -1981006.01245  22620727.2424                   22620725.1884
    596169.75046    454724.19943  24557782.5394                   24557782.7544
  -2694240.09847  -2084066.50044  23125894.2274                   23125891.9414
    638805.02348    488810.41446  20472654.3984                   20472651.3754
     39796.27748     27510.69946  21026986.6804                   21026981.9884
   1819252.05548   1398056.39845  21868179.5784                   21868175.7424
  -2025912.37947  -1570027.16844  23349771.5394                   23349769.5984
 11  8 22 16 55 30.0000000  0 10G03G06G07G08G10G11G13G19G23G28
   1764756.02047   1358555.60944  22473698.2894                   22473697.0354
   1969668.94146   1517507.47744  24503948.6724                   24503948.0434
  -2030161.36348  -1570500.53146  21032358.5084                   21032355.4224
  -2658189.51647  -2057398.29745  22602071.4384                   22602069.4064
    620710.03946    473846.39543  24562452.4534                   24562452.6054
  -2795626.56247  -2163068.93044  23106600.5234                   23106598.3674
    669135.85248    512444.79746  20478425.7584                   20478423.2154
     48250.61748     34098.48046  21028595.3204                   21028591.0204
   1891028.63748   1453986.13345  21881838.2034                   21881834.3794
  -2101650.56247  -1629043.90244  23335358.7344                   23335356.8054
 11  8 22 16 56  0.0000000  0 10G03G06G07G08G10G11G13G19G23G28
   1832457.03147   1411309.58645  22486581.3444                   22486579.6684
   2042663.69547   1574386.44144  24517839.8834                   24517839.2894
  -2102995.13748  -1627254.12546  21018498.7814                   21018495.5664
  -2756306.80947  -2133853.33245  22583400.4144                   22583398.2704
    645380.17246    493069.78143  24567147.3674                   24567148.0164
  -2896951.19147  -2242023.15644  23087318.9774                   23087316.8134
    699932.51648    536442.16446  20484286.1414                   20484283.2584
     57221.77348     41088.97346  21030302.3524                   21030297.9414
   1963045.82448   1510103.34045  21895542.6804                   21895539.1564
  -2177247.74247  -1687950.77044  23320973.0474                   23320971.4494
 11  8 22 16 56 30.0000000  0 10G03G06G07G08G10G11G13G19G23G28
   1900403.30147   1464254.68044  22499511.4064                   22499509.3834
   2115754.32846   1631340.10544  24531748.0234                   24531747.6644
  -2175740.40648  -1683938.74646  21004655.6024                   21004652.7894
  -2854505.60947  -2210371.86345  22564713.4454                   22564711.1564
    670175.32846    512390.57443  24571865.2034                   24571865.8094
  -2998213.09847  -2320928.52344  23068049.8444                   23068047.4964
    731191.13748    560799.49646  20490234.5704                   20490231.6374
     66706.43847     48479.60546  21032107.3834                   21032102.8674
   2035298.45347   1566404.00445  21909292.0944                   21909288.7734
  -2252706.18047  -1746749.52044  23306613.9064                   23306611.7704
 11  8 22 16 57  0.0000000  0 10G03G06G07G08G10G11G13G19G23G28
   1968596.06347   1517391.85544  22512487.5474                   22512486.0474
   2188942.65246   1688369.91443  24545675.2344                   24545675.3094
  -2248391.50448  -1740549.99646  20990830.7274                   20990827.6764
  -2952780.62147  -2286949.80545  22546012.6884                   22546010.4064
    695097.05946    531809.98043  24576608.3834                   24576608.0124
  -3099405.23447  -2399779.53144  23048793.1884                   23048791.0394
    762914.07848    585518.63346  20496271.4614                   20496268.9384
     76707.77048     56272.82446  21034010.3984                   21034006.2194
   2107787.97748   1622889.25845  21923086.4844                   21923082.8404
  -2328021.57847  -1805436.82444  23292281.8444                   23292280.1844
 11  8 22 16 57 30.0000000  0 10G03G06G07G08G10G11G13G19G23G28
   2037030.90247   1570717.65644  22525510.5164                   22525508.9654
   2262224.31646   1745472.45743  24559620.1334                   24559620.4064
  -2320948.75048  -1797088.11746  20977023.3364                   20977020.3204
  -3051132.47747  -2363587.61345  22527296.7504                   22527294.6954
    720140.82046    551324.49643  24581373.9694                   24581374.5354
  -3200526.24647  -2478575.10944  23029550.5164                   23029548.5784
    795098.07848    610597.03146  20502395.8674                   20502392.9384
     87221.41848     64465.25846  21036011.3444                   21036006.6884
   2180509.72347   1679555.47745  21936924.9384                   21936921.3914
  -2403197.32847  -1864015.29744  23277976.4224                   23277974.5314
 11  8 22 16 58  0.0000000  0 10G03G06G07G08G10G11G13G19G23G28
   2105711.38347   1624234.86344  22538579.7664                   22538578.4064
   2335603.22745   1802650.75843  24573584.0164                   24573583.1764
  -2393404.19148  -1853546.90646  20963235.5784                   20963232.8054
  -3149553.85547  -2440279.59045  22508568.1334                   22508565.4414
    745309.60946    570936.42643  24586163.6094                   24586164.6604
  -3301567.16447  -2557308.27044  23010323.3754                   23010321.2304
    827746.99248    636037.70346  20508608.5944                   20508605.8444
     98252.71947     73061.05946  21038110.5314                   21038106.0864
   2253467.10247   1736405.29345  21950808.4144                   21950804.8914
  -2478227.64547  -1922480.43444  23263698.5234                   23263697.3834
 11  8 22 16 58 30.0000000  0 10G03G06G07G08G10G11G13G19G23G28
   2174630.85547   1677938.28944  22551694.5474                   22551693.2624
   2409073.49245   1859900.19942  24587565.2424                   24587564.5394
  -2465759.25048  -1909927.48846  20949466.7034                   20949464.1134
  -3248046.62947  -2517027.20345  22489824.8754                   22489822.8244
    770598.04747    590641.58643  24590975.9844                   24590976.7504
  -3402527.71947  -2635978.82044  22991111.0634                   22991108.6024
    860856.23848    661837.08246  20514909.1254                   20514906.0744
    109797.00848     82056.58246  21040307.5394                   21040302.8054
   2326654.42647   1793434.30145  21964735.2114                   21964731.9494
  -2553116.16047  -1980835.08644  23249448.2974                   23249446.0394
 11  8 22 16 59  0.0000000  0 10G03G06G07G08G10G11G13G19G23G28
   2243790.13347   1731828.57844  22564855.5704                   22564854.4064
                                  24601563.5944                   24601563.3594
  -2538008.27348  -1966225.43446  20935718.2034                   20935715.3444
  -3346605.75447  -2593826.53545  22471069.9534                   22471067.8554
    796006.97347    610440.64843  24595810.9304                   24595812.5354
  -3503401.18047  -2714581.50844  22971915.3594                   22971913.2624
    894427.69948    687996.62146  20521297.9064                   20521295.0784
    121856.41447     91453.50046  21042602.2584                   21042597.7774
   2400072.30947   1850642.95345  21978706.3284                   21978703.0824
  -2627859.53547  -2039076.62944  23235224.3524                   23235223.1134
 11  8 22 16 59 30.0000000  0 10G03G06G07G08G10G11G13G19G23G28
   2313187.67647   1785904.50844  22578061.2424                   22578060.5204
   2556290.74255   1974614.79752  24615579.8054                   24615578.6024
  -2610148.73448  -2022438.79346  20921990.5864                   20921987.5004
  -3445229.32447  -2670676.06645  22452302.6644                   22452300.7034
    821534.64846    630332.22343  24600668.8594                   24600669.8094
  -3604183.75847  -2793113.37144  22952737.2584                   22952734.9414
    928460.10248    714515.32846  20527773.8754                   20527771.1214
    134430.72347    101251.62946  21044995.0864                   21044990.4184
   2473718.67247   1908029.63345  21992720.9924                   21992717.5274
  -2702457.64547  -2097204.99644  23221028.7974                   23221027.3984
 11  8 22 17  0  0.0000000  0 10G03G06G07G08G10G11G13G19G23G28
   2382819.93047   1840163.34844  22591312.1954                   22591310.6174
   2630032.93055   2032076.22352  24629612.5234                   24629611.7154
  -2682179.81248  -2078566.91046  20908283.0784                   20908280.2384
  -3543916.76647  -2747575.35945  22433522.7034                   22433520.6524
    847177.39847    650313.43043  24605548.4064                   24605549.6334
  -3704873.00047  -2871572.49244  22933576.7584                   22933574.4844
    962951.04348    741391.34446  20534337.4064                   20534334.4574
    147517.51648    111449.10546  21047485.3834                   21047480.9104
   2547590.39847   1965591.93445  22006778.1334                   22006775.2154
  -2776911.47747  -2155220.93744  23206860.3444                   23206859.3094
 11  8 22 17  0 30.0000000  0 10G03G06G07G08G10G11G13G19G23G28
   2452684.68847   1894603.35244  22604606.9384                   22604605.4184
   2703861.62955   2089605.02052  24643661.3054                   24643660.1884
  -2754098.35548  -2134607.34846  20894597.8204                   20894595.1294
  -3642665.80547  -2824522.66045  22414731.5704                   22414729.3834
    872933.53546    670383.05943  24610450.2194                   24610451.2424
  -3805464.97347  -2949955.83244  22914434.2734                   22914432.8714
    997899.87548    768624.16446  20540987.7504                   20540984.9224
    161116.16048    122045.41846  21050073.1414                   21050068.7304
   2621685.29347   2023328.09845  22020878.6644                   22020874.7424
  -2851220.91847  -2213124.36344  23192720.0314                   23192718.0744
 11  8 22 17  1  0.0000000  0 10G03G06G07G08G10G11G13G19G23G28
   2522779.70747   1949222.78544  22617945.5634                   22617943.6764
   2777774.95745   2147199.78943  24657727.3204                   24657726.0514
  -2825902.27048  -2190558.46146  20880933.5784                   20880930.7034
  -3741474.79347  -2901516.68445  22395928.6024                   22395926.5634
    898801.21146    690539.58243  24615372.0944                   24615373.5664
  -3905956.06246  -3028260.55944  22895311.7664                   22895309.9144
   1033304.92248    796212.46946  20547725.1484                   20547722.1724
    175225.48048    133039.67246  21052758.2974                   21052753.5904
   2696001.40247   2081236.66045  22035020.3914                   22035017.3984
  -2925385.84846  -2270915.17244  23178606.7344                   23178605.1564
 11  8 22 17  1 30.0000000  0 10G03G06G07G08G10G11G13G19G23G28
   2593105.85947   2004022.34044  22631328.3134                   22631326.7974
   2851774.44546   2204861.71943  24671808.2814                   24671807.5984
  -2897585.98048  -2246415.90246  20867293.2114                   20867290.0984
  -3840338.53947  -2978553.36345  22377115.7974                   22377114.0664
    924781.39846    710783.76643  24620316.1174                   24620317.1724
  -4006339.11347  -3106481.10244  22876209.5944                   22876207.2774
   1069168.44548    824158.03146  20554549.9924                   20554547.0784
    189847.96148    144433.77346  21055540.5634                   21055536.1644
   2770539.32847   2139318.05945  22049204.8754                   22049201.0744
  -2999402.97347  -2328590.82044  23164521.5314                   23164519.5944
 11  8 22 17  2  0.0000000  0 10G03G06G07G08G10G11G13G19G23G28
   4239083.59047   3286602.32844  22944547.6484                   22944546.3444
   4501280.57446   3490191.12943  24985699.2424                   24985698.2304
  -1393719.89548  -1074572.21146  21153469.3134                   21153466.2934
  -2363827.02347  -1828024.89845  22658086.0234                   22658084.5164
   2526295.56346   1958716.76243  24925074.4144                   24925075.5704
  -2531182.42647  -1957008.34844  23156922.3984                   23156919.9614
   2680912.19548   2080062.20746  20861254.8364                   20861251.7424
   1780407.03548   1383830.43046  21358214.0084                   21358209.5554
   4420719.73847   3425172.84445  22363223.6094                   22363220.1764
  -1497845.07047  -1158545.68444  23450258.9534                   23450257.5044
 11  8 22 17  2 30.0000000  0 10G03G06G07G08G10G11G13G19G23G28
   4309876.95747   3341765.92644  22958019.5634                   22958017.5864
   4575458.16846   3547991.80143  24999815.2584                   24999814.1254
  -1465144.55948  -1130227.80946  21139877.5474                   21139874.6724
  -2462783.27347  -1905133.65245  22639255.6024                   22639253.7384
   2552505.08246   1979139.62943  24930062.1254                   24930062.8794
  -2631327.42647  -2035043.39844  23137865.7344                   23137863.7234
   2717699.25448   2108727.40646  20868254.8754                   20868252.2774
   1796064.14548   1396030.74646  21361193.7734                   21361189.0004
   4495706.75047   3483604.19145  22377493.4144                   22377489.6914
  -1571555.55547  -1215982.39844  23436232.1024                   23436230.7734
 11  8 22 17  3  0.0000000  0 10G03G06G07G08G10G11G13G19G23G28
   4380905.98847   3397113.16844  22971535.4454                   22971534.3594
   4649727.18046   3605863.69943  25013947.7894                   25013947.3754
  -1536430.93048  -1185775.64146  21126312.3134                   21126309.4264
  -2561777.84447  -1982272.27345  22620417.6174                   22620415.9264
   2578831.32046   1999653.44943  24935071.6484                   24935073.0944
  -2731342.59447  -2112977.28544  23118833.3054                   23118831.4344
   2754951.42248   2137755.03146  20875343.6644                   20875341.3914
   1812241.98047   1408636.83246  21364272.1094                   21364267.5664
   4570920.14147   3542211.93845  22391805.8204                   22391802.2774
  -1645107.31247  -1273295.43444  23422235.5784                   23422233.9454
 11  8 22 17  3 30.0000000  0  9G03G07G08G10G11G13G19G23G28
   4452169.78147   3452643.32444  22985096.4064                   22985095.3054
  -1607574.85247  -1241212.47346  21112774.2034                   21112770.9384
  -2660806.98847  -2059437.84045  22601572.7734                   22601570.8404
   2605273.97346   2020257.94143  24940103.9144                   24940104.5864
  -2831222.51647  -2190805.79344  23099826.5864                   23099825.0514
   2792669.09848   2167145.38346  20882521.3524                   20882518.4184
   1828941.31347   1421649.27746  21367450.1254                   21367445.5594
   4646359.09847   3600995.43845  22406161.4614                   22406157.5124
  -1718498.92647  -1330483.68044  23408270.0864                   23408268.0864
 11  8 22 17  4  0.0000000  0  9G03G07G08G10G11G13G19G23G28
   4523674.16047   3508360.97344  22998703.7424                   22998702.2584
  -1678566.19548  -1296530.41846  21099264.7274                   21099261.9064
  -2759861.15247  -2136622.89545  22582723.7274                   22582721.5634
   2631838.49246   2040957.44943  24945158.1954                   24945160.2464
  -2930956.05947  -2268520.24244  23080848.1484                   23080846.2114
   2830858.53548   2196903.34446  20889788.6024                   20889785.8554
   1846168.86747   1435073.32046  21370728.4384                   21370723.4574
   4722029.24647   3659959.09845  22420561.1334                   22420557.5514
  -1791722.45347  -1387540.96544  23394336.1724                   23394333.9064
 11  8 22 17  4 30.0000000  0  9G03G07G08G10G11G13G19G23G28
   4595423.39547   3564269.40244  23012357.0314                   23012355.8874
  -1749395.83647  -1351722.35546  21085786.1564                   21085783.3204
  -2858931.39547  -2213820.47345  22563871.3444                   22563869.2034
   2658529.64146   2061755.62543  24950238.2814                   24950239.4064
  -3030532.73047  -2346112.44544  23061899.5164                   23061897.3634
   2869524.42648   2227032.56646  20897146.1724                   20897143.6374
   1863930.10947   1448913.23446  21374107.9844                   21374103.6954
   4797935.17247   3719106.46545  22435005.5474                   22435002.3634
  -1864771.41047  -1444462.20744  23380435.5864                   23380433.3134
 11  8 22 17  5  0.0000000  0  9G03G07G08G10G11G13G19G23G28
   4667417.59047   3620368.71144  23026057.0164                   23026055.9344
  -1820058.99247  -1406784.56646  21072339.8134                   21072336.4494
  -2958013.28947  -2291027.13345  22545016.4304                   22545014.4494
   2685347.66846   2082652.62143  24955341.3984                   24955343.2274
  -3129946.07847  -2423577.38744  23042981.6414                   23042979.6174
   2908668.26648   2257534.21146  20904595.1644                   20904592.6134
   1882226.34447   1463170.01646  21377589.6484                   21377585.3134
   4874076.86347   3778437.55545  22449494.8834                   22449491.2664
  -1937643.00446  -1501245.26244  23366568.5314                   23366566.3874
 11  8 22 17  5 30.0000000  0  9G03G07G08G10G11G13G19G23G28
   4739650.95347   3676654.39144  23039802.4384                   23039801.5634
  -1890556.80948  -1461717.93446  21058924.1884                   21058921.2274
  -3057108.59447  -2368244.25045  22526159.3754                   22526157.3054
   2712286.79346   2103644.03143  24960467.9384                   24960469.3324
  -3229196.38347  -2500915.27344  23024094.7664                   23024093.2234
   2948285.08648   2288404.40246  20912133.8524                   20912131.1454
   1901052.77347   1477839.93846  21381172.4534                   21381167.7624
   4950448.39147   3837947.73045  22464028.3284                   22464024.5164
  -2010341.03547  -1557893.04744  23352733.7894                   23352732.0704
 11  8 22 17  6  0.0000000  0  9G03G07G08G10G11G13G19G23G28
   4812115.90247   3733120.51244  23053592.0084                   23053591.0124
  -1960892.30548  -1516524.81246  21045540.0004                   21045536.9534
  -3156221.21147  -2445474.86345  22507299.3204                   22507296.5044
   2739339.21545   2124723.72743  24965615.6484                   24965617.3984
  -3328285.40647  -2578127.49644  23005238.8204                   23005237.0944
   2988367.86748   2319637.70346  20919761.4454                   20919758.8714
   1920403.25847   1492918.22746  21384854.5234                   21384849.9384
   5027042.42647   3897631.30145  22478603.7194                   22478600.2664
  -2082871.02047  -1614409.89544  23338932.2274                   23338930.5164
 11  8 22 17  6 30.0000000  0 10G03G24G07G08G10G11G13G19G23G28
   4884799.69147   3789757.16844  23067423.9924                   23067422.5084
   1391685.50856   1093527.67253  24459715.2584                   24459717.2074
  -2031073.36748  -1571211.37146  21032185.0784                   21032181.8594
  -3255359.36747  -2522725.36345  22488433.1884                   22488431.6174
   2766492.67246   2145882.10243  24970783.1414                   24970784.7034
  -3427219.98046  -2655219.35544  22986412.1174                   22986410.3164
   3028904.46948   2351224.61746  20927475.3754                   20927473.0044
   1940265.44547   1508395.23446  21388634.1564                   21388629.6524
   5103846.10947   3957478.21545  22493219.1094                   22493215.2774
  -2155243.76647  -1670804.20744  23325160.2504                   23325158.6294
 11  8 22 17  7  0.0000000  0 10G03G24G07G08G10G11G13G19G23G28
   4957691.65646   3846556.04344  23081294.4064                   23081293.4614
   1292823.44946   1016492.40243  24440902.2814                   24440904.5904
  -2101105.82848  -1625782.11746  21018858.1644                   21018855.3324
  -3354528.93447  -2600000.34445  22469562.2114                   22469560.2774
   2793736.61346   2167110.99643  24975967.3594                   24975969.4414
  -3526004.37147  -2732194.18744  22967613.8594                   22967612.5234
   3069885.23848   2383157.64146  20935273.9304                   20935271.3984
   1960630.07047   1524263.76646  21392509.5234                   21392505.3954
   5180848.78547   4017480.19945  22507872.2894                   22507868.9264
  -2227467.29347  -1727082.23044  23311416.2424                   23311414.1254
 11  8 22 17  7 30.0000000  0 10G03G24G07G08G10G11G13G19G23G28
   5030787.39547   3903513.69144  23095204.2734                   23095203.1334
   1193843.12946    939364.94943  24422066.7734                   24422068.4774
  -2170989.41447  -1680236.87546  21005559.9144                   21005556.8244
  -3453730.35247  -2677300.15245  22450684.8674                   22450682.6564
   2821066.52346   2188406.87943  24981167.5784                   24981170.0514
  -3624637.14547  -2809050.87944  22948845.0554                   22948842.8164
   3111306.29748   2415433.73846  20943156.1484                   20943153.5434
   1981493.77047   1540521.16846  21396479.7194                   21396475.1914
   5258045.75047   4077633.56645  22522561.9614                   22522558.9734
  -2299543.75446  -1783245.67644  23297700.2114                   23297698.6764
 11  8 22 17  8  0.0000000  0 10G03G24G07G08G10G11G13G19G23G28
   5104086.82846   3960630.04344  23109153.0394                   23109151.4224
   1094750.22346    862149.77343  24403209.7194                   24403211.9734
  -2240719.76247  -1734572.21946  20992290.6884                   20992287.2544
  -3552959.77347  -2754621.78145  22431801.8134                   22431800.1844
   2848482.51646   2209769.90643  24986385.8054                   24986386.8954
  -3723112.59447  -2885784.97744  22930105.6254                   22930103.4064
   3153168.26248   2448053.39846  20951121.9454                   20951119.2234
   2002857.28547   1557168.04746  21400545.3364                   21400540.6524
   5335437.03947   4137938.35945  22537289.3444                   22537285.8984
  -2371471.52747  -1839293.24244  23284012.6414                   23284011.2774
 11  8 22 17  8 30.0000000  0 10G03G24G07G08G10G11G13G19G23G28
   5177589.37146   4017904.68844  23123139.6484                   23123138.7894
    995549.89846    784850.89143  24384333.1724                   24384334.6604
  -2310292.53947  -1788784.77746  20979051.5164                   20979048.4024
  -3652213.15247  -2831962.06645  22412914.7974                   22412912.8914
   2875984.19546   2231199.60243  24991619.2274                   24991621.3244
  -3821425.26647  -2962392.23444  22911397.2344                   22911395.5004
   3195471.66848   2481017.03946  20959172.3524                   20959169.4734
   2024721.36747   1574204.98046  21404705.7734                   21404701.1884
   5413022.31347   4198394.30545  22552053.4224                   22552050.5234
  -2443248.46947  -1895223.28944  23270354.0234                   23270352.6024
 11  8 22 17  9  0.0000000  0 10G03G24G07G08G10G11G13G19G23G28
   5251295.40646   4075337.88344  23137165.5314                   23137164.8244
    896248.07446    707472.90243  24365436.1564                   24365437.9064
  -2379702.43048  -1842870.41046  20965843.1094                   20965840.2934
  -3751486.08247  -2909317.59445  22394023.8364                   22394022.0004
   2903572.19546   2252696.62143  24996869.3284                   24996870.6844
  -3919568.86747  -3038867.73444  22892721.5784                   22892719.0124
   3238217.00048   2514325.02746  20967306.5394                   20967303.7974
   2047087.17247   1591632.85546  21408961.5164                   21408957.6294
   5490801.91447   4259001.66845  22566853.9064                   22566851.4964
  -2514872.17247  -1951033.91444  23256724.8364                   23256722.8524
 11  8 22 17  9 30.0000000  0  9G03G24G07G08G11G13G19G23G28
   5325207.91447   4132931.97744  23151230.9064                   23151230.0784
    796853.13746    630022.36743  24346521.8674                   24346523.6994
  -2448942.70748  -1896823.88346  20952667.0704                   20952664.1094
  -3850771.05947  -2986682.50445  22375130.0234                   22375128.5164
  -4017534.92247  -3115204.88744  22874078.6644                   22874076.5944
   3281407.71548   2547980.08646  20975525.5864                   20975522.8484
   2069958.27348   1609454.46946  21413313.7584                   21413309.8404
   5568778.39847   4319762.43445  22581692.2034                   22581689.9064
  -2586337.77347  -2006721.37544  23243125.0634                   23243123.9614
 11  8 22 17 10  0.0000000  0  9G03G24G07G08G11G13G19G23G28
   5399332.13746   4190691.02744  23165336.1724                   23165335.1804
    697375.66846    552507.51243  24327591.9384                   24327593.5864
  -2518002.87148  -1950637.00046  20939525.5234                   20939522.4264
  -3950058.74647  -3064049.51645  22356236.0634                   22356234.7814
  -4115312.35547  -3191395.06644  22855471.9534                   22855469.9884
   3325049.80148   2581986.85546  20983830.1954                   20983827.7384
   2093340.80547   1627674.59446  21417763.6564                   21417759.0204
   5646957.14547   4380680.82045  22596569.8364                   22596567.2274
  -2657638.15647  -2062280.07444  23229557.6174                   23229555.6564
 11  8 22 17 10 30.0000000  0  9G03G24G07G08G11G13G19G23G28
   5473675.32446   4248620.73043  23179482.9534                   23179482.2704
    597828.71546    474938.54743  24308648.6954                   24308650.8444
  -2586870.73048  -2004300.27346  20926419.9614                   20926417.2274
  -4049337.66047  -3141409.68445  22337344.2114                   22337342.6254
  -4212887.68746  -3267427.74644  22836904.9064                   22836901.9774
   3369150.88348   2616351.27346  20992222.5634                   20992219.7464
   2117242.87148   1646299.55946  21422311.8524                   21422307.5354
   5725345.05147   4441762.19545  22611486.7734                   22611483.7734
  -2728763.84447  -2117702.65644  23216022.5944                   23216020.2504
 11  8 22 17 11  0.0000000  0  9G03G24G07G08G11G13G19G23G28
   5548237.65246   4306721.15244  23193672.2034                   23193670.6724
    498218.04346    397319.92643  24289693.0554                   24289694.3754
  -2655542.03948  -2057810.38746  20913352.4774                   20913349.4384
  -4148603.35547  -3218759.58245  22318454.4614                   22318452.9414
  -4310254.87547  -3343298.25044  22818376.1724                   22818374.0004
   3413711.89548   2651074.09046  21000702.4454                   21000699.7584
   2141665.56348   1665330.19546  21426959.8364                   21426954.9534
   5803942.31347   4503006.70745  22626443.6954                   22626440.4104
  -2799712.35547  -2172987.18044  23202521.8204                   23202518.8984
 11  8 22 17 11 30.0000000  0  9G03G24G07G08G11G13G19G23G28
   5623016.34846   4364990.20744  23207902.5864                   23207901.1454
    398546.87145    319654.10943  24270726.5004                   24270728.2704
  -2724014.35548  -2111165.44146  20900322.8134                   20900319.6524
  -4247853.94547  -3296097.69945  22299567.8524                   22299566.0474
  -4407410.72347  -3419004.05944  22799887.7424                   22799885.5234
   3458730.68448   2686153.60946  21009269.1334                   21009266.4694
   2166606.99248   1684765.04746  21431705.7114                   21431701.3874
   5882746.45347   4564412.42245  22641439.3364                   22641436.3484
  -2870484.15647  -2228134.01244  23189053.9534                   23189051.1094
 11  8 22 17 12  0.0000000  0  9G03G24G07G08G11G13G19G23G28
   5698009.52346   4423426.37544  23222172.6724                   23222171.5084
    298818.77046    241943.98843  24251748.9614                   24251750.4884
  -2792284.66048  -2164363.08246  20887331.4924                   20887328.1884
  -4347086.85947  -3373422.04745  22280684.0234                   22280682.4064
  -4504351.18747  -3494542.03544  22781440.4774                   22781438.4064
   3504205.87948   2721588.78146  21017922.7734                   21017920.0354
   2192066.35548   1704603.48846  21436550.2274                   21436546.3244
   5961755.13347   4625977.52744  22656474.4844                   22656470.8794
  -2941079.18447  -2283143.09044  23175620.7034                   23175617.7544
 11  8 22 17 12 30.0000000  0  9G03G24G07G08G11G13G19G23G28
   5773212.39147   4482025.94544  23236483.4064                   23236482.4304
    199034.34446    164189.92243  24232760.3594                   24232762.2034
  -2860353.52748  -2217403.76246  20874378.1174                   20874375.2384
  -4446303.02347  -3450733.33245  22261803.9144                   22261802.0234
  -4601075.45747  -3569911.55544  22763034.9844                   22763032.1414
   3550132.80548   2757375.94946  21026662.2424                   21026659.9654
   2218039.23848   1724842.05546  21441492.7814                   21441488.7304
   6040963.38347   4687698.11345  22671546.9064                   22671543.8404
  -3011500.43447  -2338016.76644  23162219.4844                   23162216.6414
 11  8 22 17 13  0.0000000  0  9G03G24G07G08G11G13G19G23G28
   5848621.51247   4540786.22344  23250833.7194                   23250832.0394
     99196.01246     86393.84443  24213762.2894                   24213764.1454
  -2928219.38748  -2270286.25046  20861464.0004                   20861460.6484
  -4545501.08247  -3528030.52345  22242927.6414                   22242925.7894
  -4697580.87947  -3645110.53144  22744669.7974                   22744667.9734
   3596509.01648   2793513.20346  21035487.3984                   21035485.1524
   2244523.22748   1745478.89846  21446532.7894                   21446528.6374
   6120367.88347   4749571.62145  22686657.8284                   22686654.7774
  -3081748.86747  -2392755.79344  23148851.7114                   23148848.8014
 11  8 22 17 13 30.0000000  0  9G03G24G07G08G11G13G19G23G28
   5924236.83246   4599707.16843  23265223.0554                   23265221.7664
      -690.84846      8560.01243  24194754.1174                   24194755.6054
  -2995877.69948  -2323007.01646  20848588.8594                   20848586.0044
  -4644677.02047  -3605310.45745  22224054.6804                   22224052.8674
  -4793861.60547  -3720134.44144  22726348.6884                   22726346.4804
   3643334.62148   2830000.63346  21044398.1724                   21044395.9264
   2271518.68048   1766514.28546  21451669.4694                   21451665.4574
   6199968.85947   4811598.23445  22701805.0554                   22701802.3984
  -3151822.50047  -2447358.59444  23135517.0084                   23135514.0744
 11  8 22 17 14  0.0000000  0  9G03G24G07G08G11G13G19G23G28
   6000059.87947   4658790.01244  23279651.1804                   23279650.6484
   -100618.98046    -69306.01243  24175738.3984                   24175740.2774
  -3063322.49648  -2375561.41046  20835754.6024                   20835751.7304
  -4743825.06647  -3682568.65245  22205187.5554                   22205185.6334
  -4889910.39547  -3794977.60545  22708070.6564                   22708068.7894
   3690611.48448   2866839.69546  21053394.5864                   21053392.4184
   2299028.03547   1787950.11346  21456904.8134                   21456900.3134
   6279767.28947   4873778.70745  22716990.2034                   22716987.5744
  -3221717.89547  -2501822.51644  23122215.9924                   23122213.8554
 11  8 22 17 14 30.0000000  0  9G03G24G07G08G11G13G19G23G28
   6076087.61346   4718032.34443  23294119.1484                   23294117.7704
   -200585.91446   -147202.28143  24156715.1414                   24156716.8794
  -3130552.06248  -2427948.09846  20822961.0784                   20822958.2734
  -4842943.83247  -3759804.04345  22186326.0004                   22186324.1134
  -4985724.66047  -3869638.02345  22689838.2664                   22689836.0234
   3738337.05948   2904028.39846  21062476.7114                   21062474.4844
   2327049.01647   1809784.60946  21462236.8054                   21462232.8054
   6359759.54747   4936110.20745  22732212.1254                   22732210.0204
  -3291436.20747  -2556148.45744  23108949.2584                   23108947.1764
 11  8 22 17 15  0.0000000  0  9G03G24G07G08G11G13G19G23G28
   6152320.44547   4777434.48043  23308626.1094                   23308624.3284
   -300585.52746   -225123.99643  24137685.8914                   24137687.6174
  -3197561.12948  -2480162.96146  20810209.9924                   20810206.8204
  -4942028.90647  -3837013.17645  22167470.6884                   22167468.1454
  -5081298.02747  -3944110.73445  22671651.4224                   22671648.9574
   3786511.98848   2941567.25446  21071643.9694                   21071641.8404
   2355582.26648   1832018.27046  21467666.8594                   21467662.3794
   6439946.59047   4998593.49245  22747471.1484                   22747468.7424
  -3360974.99647  -2610334.49644  23095716.4534                   23095714.2894
 11  8 22 17 15 30.0000000  0  9G03G24G07G08G11G13G19G23G28
   6228754.05946   4836993.07443  23323170.5004                   23323169.3714
   -400616.14546   -303069.88344  24118650.5164                   24118653.1054
  -3264349.03148  -2532205.48446  20797500.3134                   20797497.3874
  -5041079.20747  -3914195.21145  22148622.1644                   22148619.9884
  -5176628.39147  -4018394.10244  22653510.4304                   22653508.3834
   3835132.96548   2979453.67246  21080896.3444                   21080893.9694
   2384624.77747   1854648.77746  21473193.4384                   21473189.2074
   6520324.20747   5061225.25045  22762767.1564                   22762764.1294
  -3430335.75847  -2664381.80144  23082517.5084                   23082515.6804
 11  8 22 17 16  0.0000000  0  9G03G24G07G08G11G13G19G23G28
   6305389.69547   4896709.09843  23337754.1954                   23337752.6564
   -500671.15246   -381034.76243  24099610.7584                   24099613.1294
  -3330910.08648  -2584071.25446  20784834.3594                   20784831.3634
  -5140089.71547  -3991346.24245  22129780.7814                   22129778.9964
  -5271709.09447  -4092482.91844  22635417.0784                   22635414.6174
   3884201.14148   3017688.56646  21090233.5704                   21090231.3794
   2414178.05547   1877677.27346  21478817.3594                   21478812.9964
   6600893.23447   5124006.17645  22778099.4694                   22778096.4774
  -3499515.99247  -2718288.44944  23069353.0554                   23069350.6764
 11  8 22 17 16 30.0000000  0  9G03G24G07G08G11G13G19G23G28
   6382224.37547   4956580.19143  23352374.8834                   23352374.1764
   -600747.75846   -459016.46943  24080566.9614                   24080568.6604
  -3397242.32848  -2635758.71946  20772211.6254                   20772208.5824
  -5239059.17247  -4068465.27745  22110947.6414                   22110945.6524
  -5366537.48447  -4166375.12945  22617371.9384                   22617369.7704
   3933713.86348   3056269.85546  21099655.8284                   21099653.3634
   2444239.82448   1901102.00446  21484537.9534                   21484533.2814
   6681650.48447   5186933.77745  22793467.0004                   22793463.8984
  -3568516.68047  -2772055.19145  23056222.6644                   23056220.7704
 11  8 22 17 17  0.0000000  0  9G03G24G07G08G11G13G19G23G28
   6459254.84846   5016603.87943  23367033.7274                   23367032.3594
   -700843.75446   -537013.27343  24061519.1094                   24061520.8324
  -3463344.40248  -2687266.82846  20759633.0394                   20759629.7814
  -5337986.30547  -4145551.35245  22092122.0784                   22092120.3364
  -5461110.82847  -4240068.61344  22599375.5314                   22599372.9614
   3983668.08648   3095195.16846  21109161.6804                   21109159.4454
   2474807.14847   1924920.68046  21490354.8204                   21490350.2234
   6762592.52747   5250005.37945  22808869.9304                   22808866.7584
  -3637338.73447  -2825682.73044  23043126.0634                   23043124.3984
 11  8 22 17 17 30.0000000  0  9G03G24G07G08G11G13G19G23G28
   6536481.49646   5076780.41043  23381729.2664                   23381728.4964
   -800953.43746   -615020.75843  24042468.9064                   24042470.2664
  -3529212.03148  -2738592.25446  20747098.6564                   20747095.7894
  -5436866.94147  -4222601.17645  22073306.2114                   22073304.2234
  -5555423.27747  -4313558.79745  22581428.1804                   22581425.7624
   4034064.07048   3134464.71946  21118751.7274                   21118749.5824
   2505880.90247   1949133.97346  21496267.6094                   21496263.5044
   6843719.21147   5313220.84445  22824307.5314                   22824304.4924
  -3705980.28547  -2879169.62545  23030064.0704                   23030062.5784
 11  8 22 17 18  0.0000000  0  9G03G24G07G08G11G13G19G23G28
   6613901.46546   5137107.58243  23396461.7584                   23396460.7774
   -901073.61346   -693036.41043  24023416.4304                   24023418.3164
  -3594842.77748  -2789733.09846  20734609.7034                   20734606.6024
  -5535698.84047  -4299613.04345  22054498.7114                   22054497.0904
  -5649471.46147  -4386843.07445  22563531.0474                   22563528.8714
   4084899.80148   3174076.90646  21128425.6094                   21128423.2544
   2537459.20348   1973740.42646  21502276.9064                   21502272.5904
   6925027.98047   5376578.20744  22839780.1724                   22839777.1644
  -3774441.89147  -2932516.30945  23017036.4384                   23017034.7584
 11  8 22 17 18 30.0000000  0  9G03G24G07G08G11G13G19G23G28
   6691510.18046   5197581.80943  23411229.9064                   23411229.9694
  -1001202.94546   -771059.20743  24004362.2424                   24004364.5354
  -3660236.33248  -2840689.12546  20722165.7504                   20722162.5664
  -5634481.91847  -4376586.85245  22035701.2974                   22035699.3134
  -5743253.61747  -4459920.04745  22545685.0554                   22545682.6294
   4136171.23848   3214028.61346  21138182.3674                   21138179.8874
   2569538.06348   1998736.91846  21508381.0634                   21508376.6884
   7006514.33647   5440073.94144  22855286.6254                   22855283.7584
  -3842725.77347  -2985724.50445  23004042.2424                   23004040.2384
 11  8 22 17 19  0.0000000  0  9G03G24G07G08G11G13G19G23G28
   6769310.19546   5258205.10543  23426035.1884                   23426035.0704
  -1101333.00046   -849082.54743  23985308.2814                   23985309.9064
  -3725385.11348  -2891454.41846  20709767.8444                   20709765.0554
  -5733208.97747  -4453517.01245  22016913.9224                   22016911.9734
  -5836761.80947  -4532783.54744  22527890.7734                   22527888.6374
   4187881.06648   3254321.93446  21148022.3834                   21148020.5704
   2602120.59848   2024125.88346  21514581.4774                   21514577.3164
   7088180.68847   5503709.93844  22870827.2424                   22870824.1054
  -3910827.37147  -3038790.64845  22991083.1094                   22991081.0164
 11  8 22 17 19 30.0000000  0  9G03G24G07G08G11G13G19G23G28
   6847294.62946   5318972.10244  23440875.1334                   23440874.7544
  -1201465.40246   -927107.71943  23966253.3754                   23966255.5554
  -3790292.08248  -2942031.28946  20697416.9144                   20697414.0274
  -5831882.91047  -4530405.77745  21998136.8754                   21998135.1374
  -5929997.55947  -4605434.75445  22510148.8364                   22510146.4144
   4240022.31348   3294951.42246  21157944.4614                   21157942.1684
   2635199.93848   2049901.97346  21520876.4144                   21520872.1524
   7170019.66847   5567480.43444  22886400.5864                   22886398.1804
  -3978752.11747  -3091719.00045  22978157.5784                   22978155.4304
 11  8 22 17 20  0.0000000  0  9G03G24G07G08G11G13G19G23G28
   6925461.70746   5379881.41444  23455750.3524                   23455749.3444
  -1301596.37946  -1005131.79743  23947199.1024                   23947200.9144
  -3854953.82848  -2992417.07846  20685111.8524                   20685109.2234
  -5930501.15247  -4607251.14145  21979370.4454                   21979368.3754
  -6022956.78947  -4677870.48045  22492459.2424                   22492456.8364
   4292593.39548   3335915.84446  21167948.5164                   21167946.5514
   2668774.63348   2076064.05546  21527265.3914                   21527261.0474
   7252029.43847   5631384.00044  22902007.1414                   22902003.8404
  -4046499.75847  -3144509.33645  22965265.6254                   22965263.3754
 11  8 22 17 20 30.0000000  0  9G03G24G07G08G11G13G19G23G28
   7003802.95747   5440926.47344  23470657.9924                   23470657.5234
  -1401728.55146  -1083156.78543  23928144.5864                   23928146.4534
  -3919374.55948  -3042615.05946  20672853.3054                   20672850.3094
  -6029067.73047  -4684056.26245  21960614.2274                   21960611.8284
  -6115641.89547  -4750092.61745  22474821.5864                   22474819.3244
   4345586.17647   3377208.85946  21178033.0004                   21178030.5314
   2702837.02348   2102606.15246  21533747.4534                   21533743.4144
   7334201.40646   5695413.96544  22917643.7034                   22917641.4654
  -4114076.96947  -3197166.87145  22952405.9844                   22952404.0944
 11  8 22 17 21  0.0000000  0  9G03G24G07G08G11G13G19G23G28
   7082313.13747   5502103.13744  23485598.1644                   23485597.4694
  -1501861.77046  -1161182.60543  23909090.2504                   23909091.3594
  -3983554.62948  -3092625.51646  20660640.3754                   20660637.1134
  -6127583.30947  -4760821.63345  21941867.0784                   21941865.2034
  -6208052.82047  -4822101.09445  22457236.5784                   22457234.3324
   4398995.27347   3418826.27346  21188196.2664                   21188194.4064
   2737382.19947   2129524.44546  21540320.8134                   21540316.9184
   7416529.78547   5759565.78944  22933310.3594                   22933308.6994
  -4181487.08647  -3249694.20745  22939578.5944                   22939576.3134
 11  8 22 17 21 30.0000000  0  9G03G24G07G08G11G13G19G23G28
   7160985.81347   5563406.42243  23500569.3834                   23500568.5084
  -1601996.78546  -1239209.86743  23890034.5394                   23890036.2934
  -4047495.78548  -3142449.80946  20648472.5394                   20648469.7194
  -6226050.21947  -4837549.08645  21923129.4144                   21923127.3834
  -6300190.18447  -4893896.42245  22439703.3594                   22439701.2544
   4452814.61348   3460763.37546  21198437.9224                   21198435.6094
   2772404.03948   2156814.16846  21546985.3984                   21546981.3364
   7499007.88747   5823834.28144  22949005.7034                   22949003.2194
  -4248734.34047  -3302094.64845  22926781.4454                   22926779.1914
 11  8 22 17 22  0.0000000  0  9G03G24G07G08G11G13G19G23G28
   7239815.07047   5624831.74644  23515569.9064                   23515569.6884
  -1702133.57846  -1317238.47743  23870979.7664                   23870980.5004
  -4111199.35948  -3192088.95746  20636350.3984                   20636347.2424
  -6324469.53147  -4914239.45345  21904401.1564                   21904398.7074
  -6392053.85247  -4965478.45345  22422221.9304                   22422219.8594
   4507038.69547   3503015.85246  21208756.1564                   21208754.2304
   2807897.42248   2184471.33646  21553739.4534                   21553735.5904
   7581630.15247   5888215.11744  22964728.5234                   22964726.2234
  -4315822.72347  -3354371.30545  22914014.9694                   22914012.6724
 11  8 22 17 22 30.0000000  0  9G03G24G07G08G11G13G19G23G28
   7318797.48847   5686376.41844  23530599.5394                   23530599.4694
  -1802269.83246  -1395266.65243  23851923.5474                   23851925.3554
  -4174664.09848  -3241542.00446  20624273.6024                   20624270.5204
  -6422840.14847  -4990891.88345  21885681.4614                   21885679.4224
  -6483641.60947  -5036845.50445  22404793.5234                   22404791.3874
   4561663.77047   3545580.78546  21219151.3984                   21219148.9574
   2843858.98848   2212493.32046  21560582.7274                   21560578.5704
   7664392.92647   5952705.44944  22980477.7894                   22980475.4104
  -4382753.95347  -3406525.49645  22901278.3914                   22901275.7854
 11  8 22 17 23  0.0000000  0  9G03G24G07G08G11G13G19G23G28
   7397924.80947   5748033.99643  23545657.2584                   23545656.8834
  -1902408.51246  -1473296.74243  23832867.9924                   23832869.3244
  -4237893.40648  -3290811.60546  20612240.9304                   20612238.4304
  -6521166.18447  -5067509.55945  21866970.8054                   21866968.6994
  -6574956.29347  -5107999.78145  22387416.7974                   22387414.8754
   4616681.57447   3588451.74246  21229620.5634                   21229618.6094
   2880280.60248   2240873.77046  21567513.4224                   21567509.3364
   7747287.43047   6017298.40644  22996251.9694                   22996249.5554
  -4449534.44147  -3458562.23445  22888570.3754                   22888568.3014
 11  8 22 17 23 30.0000000  0  9G03G24G07G08G11G13G19G23G28
   7477194.55547   5809802.53943  23560741.6334                   23560741.5784
  -2002545.93746  -1551325.85943  23813812.3834                   23813813.8594
  -4300885.11347  -3339896.05946  20600254.3754                   20600251.1174
  -6619445.30147  -5144090.67645  21848268.7894                   21848266.8524
  -6665994.14847  -5178938.32045  22370092.7664                   22370090.8794
   4672090.21947   3631627.25846  21240164.8594                   21240162.2504
   2917160.35948   2269611.21946  21574532.0864                   21574527.7774
   7830311.32047   6081992.20744  23012051.1884                   23012049.1414
  -4516164.41447  -3510481.68045  22875890.9844                   22875889.0084
 11  8 22 17 24  0.0000000  0  9G03G24G07G08G11G13G19G23G28
   7556602.13746   5871678.51243  23575851.9144                   23575851.6804
  -2102681.25846  -1629353.31243  23794757.3444                   23794758.1054
  -4363639.55948  -3388795.62546  20588312.5314                   20588309.6414
  -6717677.66047  -5220635.35545  21829575.4224                   21829573.9614
  -6756754.41047  -5249660.55945  22352821.9304                   22352819.5984
   4727884.67247   3675103.39546  21250782.0704                   21250780.1724
   2954493.64148   2298702.05146  21581636.1094                   21581632.0124
   7913459.74247   6146783.02344  23027873.4144                   23027871.9964
  -4582647.03547  -3562286.29745  22863240.0944                   22863237.5164
 11  8 22 17 24 30.0000000  0  9G03G24G07G08G11G13G19G23G28
   7636143.85546   5933659.02343  23590989.2034                   23590987.9494
  -2202812.91446  -1707377.91043  23775702.7504                   23775703.9344
  -4426155.30147  -3437509.19546  20576416.0164                   20576413.4024
  -6815862.72347  -5297143.18045  21810891.7424                   21810889.6524
  -6847235.22347  -5320165.04345  22335603.9694                   22335601.8594
   4784061.44147   3718877.44546  21261472.3594                   21261470.1994
   2992277.14848   2328143.72346  21588825.9924                   21588821.8834
   7996728.15647   6211667.35244  23043719.2814                   23043717.4774
  -4648984.12547  -3613977.51245  22850615.9774                   22850613.8984
 11  8 22 17 25  0.0000000  0  9G03G24G07G08G11G13G19G23G28
   7715814.48446   5995739.96142  23606149.8364                   23606148.6884
  -2302940.20747  -1785399.13343  23756649.0234                   23756650.6724
  -4488433.63748  -3486037.77346  20564564.9694                   20564562.2154
  -6914001.10247  -5373614.64145  21792216.7814                   21792215.1954
  -6937436.00047  -5390451.32845  22318439.1174                   22318436.8754
   4840615.02047   3762945.10546  21272234.0234                   21272232.0594
   3030505.79348   2357932.23446  21596100.5944                   21596096.2584
   8080111.52347   6276641.24644  23059586.8364                   23059584.7304
  -4715178.98847  -3665557.90644  22838019.5944                   22838017.4654
 11  8 22 17 25 30.0000000  0  9G03G24G07G08G11G13G19G23G28
   7795611.71946   6057919.54343  23621334.7584                   23621333.8634
  -2403059.60546  -1863414.20343  23737596.5234                   23737598.2344
  -4550471.21548  -3534378.75846  20552759.9384                   20552756.6414
  -7012090.36348  -5450047.82845  21773550.9144                   21773548.9534
  -7027353.73047  -5460517.05145  22301328.0864                   22301326.2814
   4897543.56347   3807304.95746  21283067.1414                   21283065.2814
   3069178.21148   2388066.55146  21603459.7504                   21603455.6844
   8163607.68447   6341703.02344  23075475.6414                   23075473.6094
  -4781231.73047  -3717027.56245  22825450.2274                   22825447.6644
 11  8 22 17 26  0.0000000  0  9G03G24G07G08G11G13G19G23G28
   7875531.72746   6120194.78942  23636543.0944                   23636542.4534
  -2503169.55147  -1941421.87543  23718547.2424                   23718548.5784
  -4612267.84848  -3582531.98846  20541000.2424                   20540996.9774
  -7110129.95747  -5526442.30945  21754894.6564                   21754892.4804
  -7116986.17247  -5530360.46545  22284271.9384                   22284269.6914
   4954842.94947   3851953.77346  21293970.6094                   21293968.5944
   3108290.37948   2418543.52346  21610903.0394                   21610898.3444
   8247211.98847   6406849.06644  23091385.0394                   23091383.1334
  -4847144.67247  -3768388.28144  22812907.5394                   22812905.0004
 11  8 22 17 26 30.0000000  0  9G03G24G07G08G11G13G19G23G28
   7955573.60246   6182565.01243  23651774.6484                   23651774.4184
  -2603265.10547  -2019418.36344  23699499.5234                   23699501.1024
  -4673820.02048  -3630494.72746  20529287.1094                   20529284.4184
  -7208117.01247  -5602795.85545  21736248.1414                   21736246.1724
  -7206328.80547  -5599978.04745  22267270.9384                   22267268.1454
   5012512.17248   3896890.77346  21304945.2894                   21304942.8794
   3147841.25848   2449362.35246  21618428.8594                   21618424.6684
   8330923.64147   6472078.77744  23107315.6724                   23107313.1024
  -4912917.21947  -3819639.59444  22800390.9774                   22800388.9304
 11  8 22 17 27  0.0000000  0  9G03G24G07G08G11G13G19G23G28
   8035734.22746   6245027.78943  23667028.6804                   23667028.6294
  -2703343.27347  -2097401.31243  23680454.9534                   23680456.4064
  -4735125.29348  -3678265.08246  20517621.3444                   20517618.2304
  -7306049.11748  -5679106.59045  21717612.2504                   21717610.3284
  -7295378.39147  -5669367.28145  22250325.0554                   22250322.5864
   5070548.84048   3942114.08646  21315989.0944                   21315987.0784
   3187828.89848   2480521.52046  21626038.2424                   21626034.0824
   8414739.65247   6537389.78144  23123265.2974                   23123262.9494
  -4978549.92647  -3870781.93444  22787901.3134                   22787899.9264
 11  8 22 17 27 30.0000000  0  9G03G24G07G08G11G13G19G23G28
   8116011.68447   6307581.58244  23682305.3204                   23682304.7734
  -2803400.68746  -2175368.07043  23661414.6414                   23661416.3054
  -4796181.43448  -3725841.30546  20506002.4774                   20506000.0314
  -7403923.75448  -5755372.53545  21698987.1884                   21698985.6914
  -7384132.07447  -5738525.94145  22233435.8984                   22233433.1094
   5128950.71148   3987621.96946  21327102.6414                   21327100.4414
   3228251.03548   2512019.25446  21633730.4774                   21633726.1024
   8498657.89147   6602780.46544  23139233.9614                   23139231.8914
  -5044042.93747  -3921815.43744  22775439.2424                   22775436.6764
 11  8 22 17 28  0.0000000  0  9G03G24G07G08G11G13G19G23G28
   8196403.27347   6370224.27343  23697603.3444                   23697602.7774
  -2903434.61746  -2253316.54343  23642379.4144                   23642380.7584
  -4856987.00448  -3773222.28546  20494432.0944                   20494428.9184
  -7501739.42247  -5831592.53546  21680373.8524                   21680372.0984
  -7472587.02347  -5807451.82445  22216603.4304                   22216600.6604
   5187714.23848   4033411.66845  21338285.2344                   21338283.0824
   3269104.62948   2543853.18046  21641504.6804                   21641500.3094
   8582674.59447   6668247.85544  23155222.3054                   23155220.2424
  -5109397.83247  -3972741.30545  22763002.1094                   22762999.7704
 11  8 22 17 28 30.0000000  0  9G03G24G07G08G11G13G19G23G28
   8276905.80547   6432953.44544  23712922.8134                   23712922.0864
  -3003442.36347  -2331244.60943  23623348.3204                   23623349.2934
  -4917540.14848  -3820406.56646  20482908.8594                   20482906.0354
  -7599495.14148  -5907765.81645  21661771.4454                   21661769.4414
  -7560740.64847  -5876142.92645  22199828.1724                   22199825.6054
   5246836.28948   4079480.72345  21349535.6724                   21349533.9304
   3310387.00448   2576021.22746  21649360.6334                   21649356.2704
   8666786.43847   6733789.37544  23171228.3134                   23171226.5514
  -5174615.80547  -4023560.48045  22750591.5554                   22750589.4844
 11  8 22 17 29  0.0000000  0  9G03G24G07G08G11G13G19G23G28
   8357516.49246   6495766.90244  23728262.5394                   23728261.8014
  -3103421.37146  -2409150.27343  23604323.1484                   23604324.3524
  -4977839.60948  -3867393.16446  20471433.8754                   20471431.2344
  -7697189.08248  -5983890.96945  21643180.7194                   21643178.8324
  -7648590.34847  -5944597.19145  22183111.0234                   22183108.4574
   5306314.13348   4125827.03145  21360854.0004                   21360852.3094
   3352095.11348   2608521.01646  21657297.2974                   21657293.2544
   8750990.39847   6799402.67644  23187252.0234                   23187249.8524
  -5239697.94147  -4074273.82045  22738206.9384                   22738205.0274
 11  8 22 17 29 30.0000000  0  9G03G24G07G08G11G13G19G23G28
   8438229.10946   6558659.78144  23743621.9694                   23743621.5984
  -3203371.97347  -2487033.81643  23585303.2034                   23585303.8134
  -5037886.55148  -3914183.01646  20460007.5004                   20460004.8054
  -7794822.66048  -6059969.07046  21624602.0944                   21624600.0234
  -7736136.72347  -6012815.10945  22166451.2114                   22166448.9064
   5366141.46548   4172445.66046  21372238.8054                   21372236.5944
   3394223.20348   2641348.06346  21665313.8364                   21665310.2424
   8835280.30547   6865082.93844  23203291.6414                   23203289.8594
  -5304648.85547  -4124884.89845  22725847.1884                   22725845.1914
 11  8 22 17 30  0.0000000  0  9G03G24G07G08G11G13G19G23G28
   8519039.29346   6621628.69144  23758999.3364                   23758998.8244
  -3303292.78547  -2564894.13343  23566288.5944                   23566289.8794
  -5097680.75848  -3960775.91846  20448629.3284                   20448626.2774
  -7892395.68748  -6136000.00045  21606034.5314                   21606032.4304
  -7823378.47747  -6080795.65645  22149849.7974                   22149847.4844
   5426313.65247   4219333.02345  21383689.1884                   21383687.2424
   3436767.03948   2674499.05546  21673409.7034                   21673406.0944
   8919651.39547   6930826.47344  23219347.1804                   23219345.5314
  -5369470.85547  -4175395.53545  22713511.8834                   22713509.5664
 11  8 22 17 30 30.0000000  0  9G03G24G07G08G11G13G19G23G28
   8599943.64146   6684670.97744  23774394.8984                   23774394.3914
  -3403181.59047  -2642729.50443  23547279.8054                   23547281.3324
  -5157220.85948  -4007170.82046  20437299.0314                   20437296.4494
  -7989906.75048  -6211982.63345  21587478.6884                   21587476.5434
  -7910313.54747  -6148537.24245  22133306.5394                   22133304.2074
   5486827.56647   4266486.65645  21395205.1564                   21395202.8834
   3479723.37548   2707971.48446  21681584.0784                   21681580.1134
   9004099.93847   6996630.33644  23235417.5704                   23235415.6254
  -5434165.46147  -4225806.89845  22701201.3364                   22701198.4734
 11  8 22 17 31  0.0000000  0  9G03G24G07G08G11G13G19G23G28
  10256356.57046   7975382.27044  24089599.4454                   24089599.7974
  -1927613.00446  -1492935.73843  23828070.9694                   23828073.0784
  -3641083.89148  -2825765.40246  20725810.2274                   20725807.6884
  -6511931.59048  -5060313.66845  21868728.3524                   21868725.6954
  -6421517.04747  -4988436.03145  22416615.0084                   22416612.7194
   7123097.00447   5541501.74245  21706576.5634                   21706574.4574
   5098507.35948   3969361.57446  21989628.9064                   21989624.5044
  10664039.84447   8290089.80944  23551293.3284                   23551291.3984
  -3923312.16847  -3048518.60245  22988706.5314                   22988704.6844
 11  8 22 17 31 30.0000000  0  9G03G24G07G08G11G13G19G23G28
  10337439.52346   8038563.72343  24105029.4304                   24105029.2934
  -2027431.07446  -1570715.97344  23809076.2034                   23809077.5234
  -3700112.87547  -2871762.03946  20714577.4064                   20714574.5784
  -6609315.61348  -5136197.31645  21850196.5554                   21850194.1094
  -6507832.54347  -5055694.83645  22400189.6954                   22400187.3094
   7184282.56348   5589178.73045  21718219.7814                   21718217.5634
   5142278.49247   4003468.91446  21997957.9844                   21997953.6884
  10748632.76247   8356006.19544  23567391.3914                   23567389.2114
  -3987757.22747  -3098735.52345  22976443.4144                   22976441.1214
 11  8 22 17 32  0.0000000  0  9G03G24G07G08G11G13G19G23G28
  10418605.82046   8101810.08243  24120474.6724                   24120475.2504
  -2127211.30147  -1648466.71144  23790088.3834                   23790090.8014
  -3758885.32048  -2917558.77046  20703393.5394                   20703390.7384
  -6706635.83248  -5212031.25046  21831677.0944                   21831675.1414
  -6593835.86747  -5122710.39145  22383823.4844                   22383821.5944
   7245797.86347   5637112.66045  21729925.6564                   21729923.5904
   5186450.74248   4037888.81346  22006363.5394                   22006359.7114
  10833291.28147   8421973.69544  23583501.5084                   23583499.2774
  -4052080.96147  -3148857.90645  22964202.9384                   22964200.6454
 11  8 22 17 32 30.0000000  0  9G03G24G07G08G11G13G19G23G28
  10499850.71546   8165117.71943  24135934.4774                   24135934.8094
  -2226952.59846  -1726187.10943  23771108.2114                   23771109.7664
  -3817401.36348  -2963155.68747  20692258.3284                   20692255.1844
  -6803891.80948  -5287815.11745  21813169.7734                   21813167.5784
  -6679526.35947  -5189482.17645  22367517.1564                   22367515.1604
   7307638.02747   5685299.73845  21741693.5084                   21741691.6054
   5231019.76647   4072617.89546  22014845.1024                   22014841.0514
  10918010.32047   8487988.32843  23599622.8054                   23599621.0704
  -4116286.39547  -3198888.09445  22951985.3364                   22951983.2074
 11  8 22 17 33  0.0000000  0  9G03G24G07G08G11G13G19G23G28
  10581174.20745   8228486.58642  24151410.1484                   24151410.1024
  -2326649.28946  -1803872.77343  23752136.8524                   23752138.6994
  -3875656.14548  -3008549.03547  20681173.0394                   20681169.9454
  -6901078.58648  -5363545.06245  21794675.4924                   21794673.6994
  -6764898.71947  -5256006.07445  22351271.4614                   22351269.4024
   7369803.03947   5733739.93445  21753523.1334                   21753521.4454
   5275985.54748   4107656.12946  22023401.4304                   22023397.8324
  11002790.08647   8554050.30943  23615755.9844                   23615754.5124
  -4180371.51247  -3248824.53945  22939790.0234                   22939787.9924
 11  8 22 17 33 30.0000000  0  9G03G24G07G08G11G13G19G23G28
  10662571.65246   8291913.07042  24166899.7734                   24166899.7974
  -2426300.27746  -1881522.79344  23733173.7194                   23733174.9804
  -3933649.83248  -3053738.93047  20670136.7814                   20670134.1724
  -6998196.84448  -5439221.61346  21776194.7274                   21776192.6174
  -6849951.47747  -5322280.93745  22335086.7814                   22335084.2814
   7432287.61347   5782429.14145  21765413.6804                   21765411.7344
   5321343.58247   4143000.02745  22032032.9224                   22032028.8754
  11087625.56347   8620155.67643  23631899.9694                   23631897.8324
  -4244339.42647  -3298669.63745  22927617.1334                   22927615.0314
 11  8 22 17 34  0.0000000  0  9G03G24G07G08G11G13G19G23G28
  10744042.09046   8355396.42242  24182403.5474                   24182403.2034
  -2525901.17646  -1959133.80143  23714220.4454                   23714221.4384
  -3991379.30148  -3098722.94546  20659151.6094                   20659148.6414
  -7095243.00048  -5514841.98846  21757727.2974                   21757725.7234
  -6934681.00847  -5388303.92645  22318962.8984                   22318960.9574
   7495090.22747   5831366.17245  21777364.6174                   21777362.9144
   5367092.45748   4178648.46546  22040738.6804                   22040734.9574
  11172515.27747   8686303.33244  23648054.3284                   23648051.7424
  -4308189.55147  -3348422.96545  22915466.7034                   22915465.2234
 11  8 22 17 34 30.0000000  0  9G03G24G07G08G11G13G19G23G28
  10825584.73446   8418936.14842  24197920.3364                   24197920.4534
  -2625447.17246  -2036702.01643  23695276.9534                   23695278.1954
  -4048840.48048  -3143497.89847  20648216.9224                   20648213.8984
  -7192212.94948  -5590402.98446  21739274.6644                   21739272.4804
  -7019082.56647  -5454071.36345  22302901.9924                   22302899.8554
   7558210.41847   5880550.65645  21789376.0084                   21789374.2114
   5413231.60948   4214601.02346  22049518.6174                   22049514.8444
  11257457.99247   8752492.27344  23664218.0234                   23664216.9844
  -4371921.06247  -3398083.86745  22903339.3444                   22903337.1294
 11  8 22 17 35  0.0000000  0  9G03G24G07G08G11G13G19G23G28
  10907198.80146   8482531.48843  24213451.3834                   24213450.2424
  -2724933.16046  -2114223.49243  23676346.1024                   23676347.2114
  -4106029.95348  -3188061.13346  20637334.0784                   20637331.4454
  -7289102.85948  -5665901.60946  21720836.9614                   21720835.1414
  -7103151.26247  -5519579.42245  22286903.8834                   22286901.8484
   7621646.81347   5929981.55145  21801447.5704                   21801445.8524
   5459760.03548   4250856.90246  22058373.0634                   22058368.7854
  11342452.70747   8818721.72344  23680392.7274                   23680390.6604
  -4435532.90247  -3447651.52045  22891234.3674                   22891232.0704
 11  8 22 17 35 30.0000000  0  9G03G24G07G08G11G13G19G23G28
  10988881.02746   8546179.95743  24228995.1334                   24228995.0904
  -2824356.89546  -2191696.42243  23657425.4304                   23657427.2464
  -4162946.30947  -3232411.55546  20626503.2584                   20626500.4844
  -7385912.08648  -5741337.36746  21702414.8914                   21702412.8524
  -7186885.25447  -5584826.67645  22270970.0784                   22270967.6884
   7685395.76247   5979655.97745  21813578.9454                   21813577.1024
   5506674.56348   4287413.64846  22067300.5234                   22067296.4614
  11427495.86746   8884988.92644  23696576.0474                   23696574.6174
  -4499026.73847  -3497127.21545  22879151.7274                   22879149.6094
 11  8 22 17 36  0.0000000  0  9G03G24G07G08G11G13G19G23G28
  11070633.38347   8609883.03943  24244552.0704                   24244551.4534
  -2923710.87547  -2269115.01243  23638519.3984                   23638521.1954
  -4219583.12148  -3276544.14546  20615725.6804                   20615722.7464
  -7482633.85248  -5816704.97346  21684009.4534                   21684007.3794
  -7270276.98847  -5649807.23045  22255101.0864                   22255099.1374
   7749459.37547   6029575.60545  21825769.9844                   21825768.2584
   5553976.69548   4324272.41446  22076301.6884                   22076297.8834
  11512589.33646   8951295.30944  23712768.0004                   23712767.1294
  -4562399.02047  -3546508.19945  22867092.3754                   22867090.4104
 11  8 22 17 36 30.0000000  0  8G24G07G08G11G13G19G23G28
  -3022992.72747  -2346477.42643  23619626.8134                   23619628.1134
  -4275939.02048  -3320457.84047  20605001.8204                   20604998.8874
  -7579266.60248  -5892003.22346  21665621.0634                   21665618.9654
  -7353324.52047  -5714519.59045  22239297.5314                   22239295.4614
   7813833.40247   6079737.10545  21838020.0474                   21838017.9654
   5601663.30947   4361430.78545  22085376.0314                   22085372.3874
  11597729.37946   9017637.97344  23728969.7584                   23728969.4144
  -4625651.15647  -3595795.56245  22855056.0164                   22855053.8984
 11  8 22 17 37  0.0000000  0  8G24G07G08G11G13G19G23G28
  -3122191.30946  -2423774.94944  23600750.3054                   23600751.3954
  -4332003.98848  -3364144.84047  20594332.7504                   20594329.6054
  -7675800.14148  -5967224.15246  21647251.1954                   21647248.9104
  -7436017.17247  -5778955.41445  22223561.3524                   22223559.6484
   7878523.09047   6130144.57845  21850329.5784                   21850328.3014
   5649739.75447   4398892.91845  22094524.5704                   22094521.1414
  11682921.04746   9084020.86343  23745181.5554                   23745181.1994
  -4688776.55947  -3644984.17245  22843044.1414                   22843041.3134
 11  8 22 17 37 30.0000000  0  8G24G07G08G11G13G19G23G28
  -3221289.49647  -2500994.23443  23581892.2734                   23581893.1684
  -4387762.12148  -3407592.74247  20583722.6254                   20583719.5744
  -7772218.18448  -6042355.10246  21628903.2894                   21628901.1564
  -7518337.94147  -5843101.46145  22207896.4064                   22207894.4264
   7943539.68047   6180806.78945  21862702.0784                   21862700.4614
   5698217.01247   4436667.36345  22103749.7734                   22103745.9224
  11768175.78146   9150452.88343  23761404.9694                   23761404.7854
  -4751761.50447  -3694063.34445  22831058.4144                   22831055.7154
 11  8 22 17 38  0.0000000  0  8G24G07G08G11G13G19G23G28
  -3320280.80546  -2578130.26244  23563054.4144                   23563056.0354
  -4443208.18448  -3450797.46946  20573171.0474                   20573168.2464
  -7868515.86348  -6117392.25045  21610578.1174                   21610576.2664
  -7600280.77347  -5906953.00045  22192303.1254                   22192301.0474
   8008883.77747   6231724.18845  21875136.7664                   21875134.8714
   5747096.21147   4474755.02045  22113051.5864                   22113047.3524
  11853493.86746   9216934.27744  23777641.3834                   23777640.3444
  -4814603.76247  -3743031.32045  22819098.9534                   22819097.2934
 11  8 22 17 38 30.0000000  0  8G24G07G08G11G13G19G23G28
  -3419166.65646  -2655184.09443  23544237.3914                   23544238.4774
  -4498344.86348  -3493761.12947  20562678.9454                   20562676.5824
  -7964695.28948  -6192337.25446  21592275.6644                   21592273.5904
  -7681847.31247  -5970511.34045  22176781.7274                   22176779.8444
   8074547.70347   6282890.80945  21887632.0784                   21887630.7504
   5796370.17647   4513150.27745  22122428.2034                   22122424.2114
  11938867.94146   9283459.29744  23793887.2424                   23793886.9844
  -4877308.93447  -3791892.48045  22807167.0554                   22807164.7344
 11  8 22 17 39  0.0000000  0  8G24G07G08G11G13G19G23G28
  -3517947.28547  -2732155.91744  23525440.0704                   23525440.9104
  -4553173.34048  -3536484.64147  20552245.7664                   20552243.1134
  -8060757.59048  -6267190.98846  21573995.9534                   21573993.8014
  -7763038.06647  -6033776.85545  22161331.7034                   22161329.5864
   8140525.22747   6334301.78145  21900187.4384                   21900185.9104
   5846032.33647   4551848.02346  22131878.2034                   22131874.2894
  12024292.29346   9350023.50844  23810143.4304                   23810142.6954
  -4939880.90247  -3840649.84045  22795259.8594                   22795257.9384
 11  8 22 17 39 30.0000000  0  8G24G07G08G11G13G19G23G28
  -3616624.01647  -2809046.85544  23506662.0864                   23506663.5164
  -4607696.12548  -3578969.94147  20541870.3834                   20541867.2464
  -8156705.19548  -6341955.35946  21555737.8834                   21555735.9024
  -7843855.03147  -6096751.10545  22145952.5944                   22145950.6024
   8206809.24647   6385951.58645  21912801.1804                   21912799.8364
   5896076.43047   4590843.37945  22141401.3054                   22141397.6334
  12109759.27747   9416620.93444  23826407.3134                   23826406.5704
  -5002325.20347  -3889307.71145  22783376.9064                   22783375.0354
 11  8 22 17 40  0.0000000  0  8G24G07G08G11G13G19G23G28
  -3715195.95347  -2885856.10244  23487904.4224                   23487905.8554
  -4661913.47748  -3621217.23847  20531553.2814                   20531550.2814
  -8252538.44148  -6416630.61346  21537501.0634                   21537499.3324
  -7924297.81647  -6159433.77345  22130644.7894                   22130642.9884
   8273394.39547   6437836.04345  21925471.7194                   21925470.1054
   5946497.10547   4630132.16845  22150996.1804                   22150992.2734
  12195264.10246   9483247.82444  23842678.3444                   23842677.9924
  -5064644.96147  -3937868.53545  22771518.2424                   22771515.8164
 11  8 22 17 40 30.0000000  0  8G24G07G08G11G13G19G23G28
  -3813657.88747  -2962579.63744  23469167.7664                   23469168.9064
  -4715821.38748  -3663223.42247  20521294.6804                   20521291.8014
  -8348253.02348  -6491213.41046  21519287.4144                   21519285.6564
  -8004361.24248  -6221820.85545  22115408.7814                   22115407.1334
   8340279.76247   6489954.43845  21938199.5314                   21938198.3134
   5997293.69547   4669713.88345  22160662.5944                   22160658.4534
  12280805.88347   9549903.51643  23858956.5634                   23858956.6254
  -5126839.02347  -3986331.41445  22759682.8914                   22759680.4924
 11  8 22 17 41  0.0000000  0  8G24G07G08G11G13G19G23G28
  -3912010.55547  -3039218.02044  23450452.0864                   23450453.1844
  -4769421.81648  -3704990.00047  20511094.9454                   20511092.3754
  -8443850.30548  -6565704.80946  21501096.0314                   21501093.6764
  -8084046.75048  -6283913.44945  22100245.5084                   22100243.6844
   8407458.48047   6542301.41445  21950983.3984                   21950982.1254
   6048459.59447   4709583.36745  22170399.2114                   22170395.2034
  12366377.80946   9616582.69543  23875240.6174                   23875239.6174
  -5188911.89147  -4034699.86345  22747871.0234                   22747868.4924
 11  8 22 17 41 30.0000000  0  9G17G24G07G08G11G13G19G23G28
   2903151.60956   2274376.12153  24649194.0084                   24649196.1994
  -4010254.94947  -3115772.01644  23431756.2894                   23431757.9734
  -4822716.98448  -3746518.71947  20500953.1884                   20500950.5354
  -8539332.56648  -6640106.57446  21482926.2114                   21482924.2034
  -8163355.17247  -6345712.21945  22085153.6254                   22085151.7384
   8474923.82447   6594871.73045  21963821.6724                   21963820.4144
   6099988.23047   4749735.50045  22180204.5864                   22180200.7464
  12451973.05547   9683280.05943  23891528.9534                   23891528.3284
  -5250868.79347  -4082977.96145  22736080.9224                   22736078.4414
 11  8 22 17 42  0.0000000  0  9G17G24G07G08G11G13G19G23G28
   2770277.28146   2170837.87143  24623908.1724                   24623911.2704
  -4108397.27047  -3192246.47344  23413080.9454                   23413081.6644
  -4875714.19548  -3787815.26646  20490867.9064                   20490865.6214
  -8634706.88748  -6714424.23046  21464776.9454                   21464775.1954
  -8242293.99248  -6407222.97345  22070132.4144                   22070130.0554
   8542663.36747   6647655.70345  21976712.0314                   21976710.7974
   6151867.24647   4790160.65245  22190076.9614                   22190072.7034
  12537579.42647   9749986.08643  23907819.6174                   23907818.4064
  -5312720.05947  -4131173.73845  22724310.9304                   22724308.3484
 11  8 22 17 42 30.0000000  0  9G17G24G07G08G11G13G19G23G28
   2637477.78146   2067357.89543  24598637.8594                   24598639.9774
  -4206434.14547  -3268638.75844  23394424.6484                   23394425.7624
  -4928411.14148  -3828877.83246  20480840.2274                   20480837.4574
  -8729971.02048  -6788656.02746  21446648.9454                   21446647.2814
  -8320859.98448  -6468443.22745  22055181.7194                   22055179.3754
   8610674.30947   6700651.16045  21989653.8674                   21989653.1454
   6204094.23447   4830856.95745  22200015.4924                   22200011.4144
  12623194.66846   9816699.03143  23924112.4384                   23924110.5634
  -5374466.34047  -4179287.70745  22712560.7974                   22712558.3364
 11  8 22 17 43  0.0000000  0  9G17G24G07G08G11G13G19G23G28
   2504762.71546   1963943.71944  24573382.9304                   24573385.2154
  -4304355.01647  -3344940.65644  23375790.8364                   23375792.0554
  -4980798.75048  -3869699.35547  20470871.2504                   20470868.6524
  -8825115.48848  -6862794.56246  21428543.8054                   21428541.7154
  -8399043.12147  -6529365.14145  22040304.4844                   22040302.2234
   8678961.17247   6753861.61745  22002648.8834                   22002647.4454
   6256673.88347   4871828.06645  22210021.0164                   22210017.1214
  12708823.38346   9883422.43043  23940406.5554                   23940405.7464
  -5436100.98847  -4227314.68745  22700832.3364                   22700829.7544
 11  8 22 17 43 30.0000000  0  9G17G24G07G08G11G13G19G23G28
   2372136.39546   1860598.70344  24548144.7814                   24548146.9534
  -4402154.63746  -3421148.05944  23357180.2974                   23357181.2894
  -5032873.07448  -3910276.77047  20460961.6644                   20460959.1604
  -8920135.52048  -6936836.14546  21410461.7894                   21410459.8714
  -8476838.31248  -6589984.77045  22025499.9304                   22025497.7114
   8747523.07847   6807286.39145  22015695.9144                   22015694.3874
   6309605.62947   4913073.53945  22220093.6724                   22220090.1884
  12794464.85546   9950155.79743  23956703.7814                   23956703.4734
  -5497622.80947  -4275253.75845  22689124.9924                   22689122.4534
 11  8 22 17 44  0.0000000  0  9G17G24G07G08G11G13G19G23G28
   2239604.17647   1757326.97744  24522924.0394                   24522926.4454
  -4499826.80546  -3497256.14844  23338593.4924                   23338594.5234
  -5084628.77748  -3950605.89846  20451113.0164                   20451110.3244
  -9015025.74648  -7010776.58246  21392404.9144                   21392403.0314
  -8554239.96148  -6650297.73045  22010770.8594                   22010768.5634
   8816360.26247   6860925.67245  22028795.3834                   22028793.5394
   6362890.07847   4954593.84045  22230233.3834                   22230229.3364
  12880119.58246  10016899.48443  23973003.5394                   23973002.8324
  -5559029.27347  -4323102.92645  22677439.9924                   22677437.2304
 11  8 22 17 44 30.0000000  0  9G17G24G07G08G11G13G19G23G28
   2107171.69146   1654132.99644  24497722.8914                   24497725.6604
  -4597364.76647  -3573259.64144  23320032.8674                   23320034.0124
  -5136060.50048  -3990682.57847  20441325.8834                   20441323.2704
  -9109780.49248  -7084611.44946  21374373.5394                   21374372.0204
  -8631241.87548  -6710299.21145  21996118.0554                   21996115.5944
   8885473.51247   6914780.06345  22041947.1414                   22041945.7424
   6416527.87147   4996389.48045  22240440.1024                   22240436.4614
  12965788.10246  10083653.88343  23989305.9384                   23989305.5314
  -5620318.05947  -4370860.40245  22665776.9694                   22665774.8134
 11  8 22 17 45  0.0000000  0  9G17G24G07G08G11G13G19G23G28
   1974840.26647   1551017.76644  24472541.8524                   24472543.7624
  -4694766.16047  -3649156.75044  23301497.8444                   23301499.0744
  -5187166.66448  -4030505.58247  20431600.6484                   20431598.2894
  -9204398.70748  -7158339.91446  21356368.4924                   21356366.5664
  -8707842.07047  -6769987.67245  21981541.5164                   21981539.0004
   8954858.73047   6968846.37945  22055150.8984                   22055149.0704
   6470515.22347   5038457.49645  22250713.7504                   22250709.9454
  13051466.98446  10150416.37143  24005611.3524                   24005610.5704
  -5681490.89847  -4418527.53945  22654136.0474                   22654133.5864
 11  8 22 17 45 30.0000000  0  9G17G24G07G08G11G13G19G23G28
   1842612.13747   1447983.04744  24447378.8524                   24447380.8364
  -4792027.90247  -3724945.00044  23282989.1414                   23282990.7544
  -5237945.58248  -4070073.59047  20421937.5784                   20421935.2854
  -9298878.00847  -7231960.14546  21338389.6954                   21338387.5474
  -8784038.12147  -6829361.21945  21967041.8834                   21967039.3714
   9024512.94548   7023122.30545  22068405.7814                   22068403.8674
   6524849.65247   5080795.96945  22261053.3364                   22261049.7234
  13137153.24246  10217184.60544  24021916.5634                   24021916.4964
  -5742548.46547  -4466104.84045  22642516.8134                   22642514.9884
 11  8 22 17 46  0.0000000  0  9G17G24G07G08G11G13G19G23G28
   1710491.46547   1345032.05143  24422236.9064                   24422239.1374
  -4889144.76246  -3800620.35544  23264508.2034                   23264509.6914
  -5288393.47748  -4109383.64847  20412338.0004                   20412335.2854
  -9393213.34847  -7305468.19146  21320437.9454                   21320436.0084
  -8859825.35548  -6888416.20345  21952620.0864                   21952617.3954
   9094435.33247   7077607.19945  22081711.4534                   22081709.6804
   6579530.75847   5123404.57045  22271458.9924                   22271454.7504
  13222846.62546  10283958.39544  24038223.7974                   24038223.3164
  -5803489.67247  -4513591.46945  22630920.4614                   22630918.1724
 11  8 22 17 46 30.0000000  0  9G17G24G07G08G11G13G19G23G28
   1578476.85547   1242163.66843  24397115.4144                   24397117.2344
  -4986117.09847  -3876183.12144  23246055.4224                   23246056.4454
  -5338512.02048  -4148437.07447  20402800.7734                   20402798.0474
  -9487406.36348  -7378865.34446  21302513.5634                   21302512.2344
  -8935204.88748  -6947153.51245  21938275.7504                   21938273.3874
   9164619.60247   7132296.15645  22095066.9534                   22095065.4734
   6634551.87947   5166278.12945  22281929.3204                   22281925.2974
  13308540.77046  10350732.77344  24054531.3444                   24054530.9534
  -5864319.41447  -4560991.24645  22619344.8054                   22619342.7774
 11  8 22 17 47  0.0000000  0  9G17G24G07G08G11G13G19G23G28
   1446572.95747   1139381.55943  24372015.3594                   24372016.6414
  -5082939.54346  -3951629.07444  23227630.5314                   23227631.3874
  -5388296.93748  -4187230.53147  20393326.7894                   20393324.3014
  -9581452.90648  -7452148.36346  21284617.1564                   21284615.2384
  -9010171.84048  -7005569.32045  21924010.1174                   21924007.8444
   9235064.63747   7187188.30945  22108472.4924                   22108470.5434
   6689912.43047   5209416.18445  22292463.8054                   22292460.1174
  13394234.83247  10417507.07444  24070838.2814                   24070838.2304
  -5925035.57447  -4608302.53145  22607790.6334                   22607788.9534
 11  8 22 17 47 30.0000000  0  9G17G24G07G08G11G13G19G23G28
   1314780.67246   1036686.43843  24346935.7274                   24346937.1604
  -5179609.60247  -4026956.28144  23209234.0634                   23209235.4804
  -5437747.08648  -4225763.13347  20383916.9304                   20383914.4694
  -9675351.23848  -7525315.89546  21266748.8594                   21266746.8594
  -9084724.19548  -7063662.06245  21909822.7894                   21909820.6844
   9305766.96947   7242280.94545  22121926.6884                   22121925.5004
   6745609.07447   5252816.11345  22303062.6804                   22303058.8244
  13479925.80146  10484278.96543  24087144.8054                   24087144.8634
  -5985640.14547  -4655526.85245  22596258.7424                   22596256.8134
 11  8 22 17 48  0.0000000  0  9G17G24G07G08G11G13G19G23G28
   1183102.67246    934080.38343  24321878.5634                   24321879.6414
  -5276123.84447  -4102162.08244  23190868.7584                   23190869.6374
  -5486860.18048  -4264033.09047  20374570.7424                   20374568.0274
  -9769098.67248  -7598365.83246  21248909.3524                   21248907.5744
  -9158859.09447  -7121429.52745  21895715.5474                   21895713.2894
   9376723.85547   7297571.91845  22135429.3754                   22135428.0044
   6801639.47747   5296476.12545  22313724.6724                   22313720.8164
  13565611.09846  10551046.45743  24103450.1954                   24103450.4964
  -6046133.66847  -4702664.64545  22584746.6724                   22584744.3594
 11  8 22 17 48 30.0000000  0  9G17G24G07G08G11G13G19G23G28
   1051541.24246    831565.15643  24296841.9924                   24296844.8914
  -5372479.00447  -4177243.91844  23172533.1414                   23172533.9024
  -5535634.24648  -4302038.87947  20365289.8594                   20365286.9734
  -9862693.03948  -7671296.51246  21231099.1254                   21231097.1254
  -9232574.25848  -7178869.91045  21881688.1414                   21881686.0314
   9447932.46947   7353059.05145  22148979.6174                   22148978.5164
   6858000.74647   5340393.94145  22324450.3284                   22324446.4804
  13651287.91446  10617807.34843  24119754.2894                   24119754.3404
  -6106516.98047  -4749716.56245  22573256.6954                   22573254.2814
 11  8 22 17 49  0.0000000  0  9G17G24G07G08G11G13G19G23G28
    920097.46946    729141.62543  24271828.7194                   24271831.5824
  -5468673.00846  -4252200.18744  23154227.8594                   23154228.5664
  -5584068.62948  -4339779.97347  20356072.6254                   20356070.8714
  -9956133.39147  -7744107.16846  21213318.0474                   21213315.9574
  -9305867.86748  -7235981.82045  21867741.1884                   21867738.4064
   9519388.73447   7408739.16045  22162577.6804                   22162576.6024
   6914689.27347   5384566.78145  22335237.8524                   22335233.7304
  13736952.72346  10684558.87143  24136055.8444                   24136054.8984
  -6166791.97347  -4796684.08245  22561785.8834                   22561784.0594
 11  8 22 17 49 30.0000000  0  9G17G24G07G08G11G13G19G23G28
    788772.86746    626810.90243  24246838.6724                   24246840.8554
  -5564703.51247  -4327029.05544  23135953.8284                   23135954.4454
  -5632161.83248  -4377255.21147  20346921.0234                   20346918.4884
 -10049417.63348  -7816796.18046  21195566.6024                   21195565.0204
  -9378738.20748  -7292763.90245  21853874.1644                   21853871.4924
   9591089.10947   7464609.48445  22176222.0634                   22176220.6174
   6971701.67647   5428991.98445  22346086.4144                   22346083.0124
  13822602.14545  10751298.42642  24152353.2194                   24152353.6454
  -6226960.29347  -4843568.46945  22550336.8054                   22550334.3984
 11  8 22 17 50  0.0000000  0  9G17G24G07G08G11G13G19G23G28
    657567.06346    524572.76244  24221871.5314                   24221873.4344
  -5660569.49247  -4401729.70344  23117710.7114                   23117711.6214
  -5679914.23048  -4414464.89147  20337833.8984                   20337831.7624
 -10142545.56248  -7889363.39846  21177844.8134                   21177842.8714
  -9451185.02747  -7349215.96545  21840087.8914                   21840085.7074
   9663028.10547   7520665.75445  22189911.5164                   22189910.1994
   7029032.71947   5473665.47745  22356996.7274                   22356992.7734
  13908231.44545  10818022.28142  24168648.5164                   24168648.3524
  -6287024.99247  -4890372.12145  22538906.4454                   22538904.2274
 11  8 22 17 50 30.0000000  0  9G17G24G07G08G11G13G19G23G28
    526482.69146    422429.24644  24196926.0554                   24196928.5474
  -5756267.60247  -4476299.57044  23099499.9694                   23099500.8204
  -5727324.14148  -4451407.69147  20328812.2424                   20328809.8324
 -10235515.00048  -7961807.10546  21160153.3054                   21160151.5164
  -9523205.82448  -7405336.06645  21826382.8444                   21826380.1094
   9735203.18047   7576905.97345  22203646.3444                   22203644.9454
   7086679.96947   5518585.36345  22367966.6564                   22367962.9654
  13993837.78945  10884728.12142  24184939.2424                   24184939.9774
  -6346986.60547  -4937095.43045  22527496.1484                   22527493.7194
 11  8 22 17 51  0.0000000  0  9G17G24G07G08G11G13G19G23G28
    395521.63746    320381.80944  24172005.2504                   24172007.5124
  -5851794.32047  -4550735.89144  23081321.7194                   23081322.2584
  -5774389.17248  -4488081.75447  20319856.0864                   20319853.6024
 -10328323.26648  -8034125.23446  21142492.5084                   21142490.5084
  -9594797.79748  -7461122.01245  21812759.6884                   21812757.0664
   9807611.02047   7633327.55945  22217424.9224                   22217423.5514
   7144640.83647   5563749.62545  22378996.1644                   22378992.6414
  14079418.72746  10951414.21143  24201226.2974                   24201226.3674
  -6406846.08247  -4983739.16845  22516105.0474                   22516103.1174
 11  8 22 17 51 30.0000000  0  9G17G24G07G08G11G13G19G23G28
    264687.21546    218433.06344  24147108.2504                   24147110.4384
  -5947146.08247  -4625035.89844  23063176.6804                   23063177.3244
  -5821106.75048  -4524485.07447  20310965.8914                   20310963.4614
 -10420967.22748  -8106315.33246  21124863.0164                   21124861.3324
  -9665957.87548  -7516571.41845  21799218.0864                   21799215.8834
   9880249.66447   7689929.01245  22231247.8134                   22231246.9844
   7202913.08647   5609156.52345  22390084.7584                   22390081.4064
  14164972.12146  11018078.89143  24217507.0084                   24217507.2974
  -6466603.60247  -5030303.44545  22504733.9064                   22504731.8794
 11  8 22 17 52  0.0000000  0  9G17G24G07G08G11G13G19G23G28
    133981.42647    116584.57044  24122235.5314                   24122237.7854
  -6042319.54747  -4699196.95744  23045066.0784                   23045066.3914
  -5867475.10948  -4560616.27746  20302142.5944                   20302139.7934
 -10513444.71548  -8178375.70746  21107264.9534                   21107262.9774
  -9736683.55548  -7571682.32845  21785759.3204                   21785756.9454
   9953116.18047   7746708.00445  22245113.8134                   22245112.3954
   7261494.16047   5654804.06645  22401232.4384                   22401229.0124
  14250495.69147  11084720.30144  24233782.0234                   24233782.4614
  -6526259.87947  -5076788.84845  22493381.6094                   22493379.5944
 11  8 22 17 52 30.0000000  0  9G17G24G07G08G11G13G19G23G28
      3406.41047     14837.96944  24097388.4614                   24097389.8754
  -6137311.39547  -4773216.52344  23026989.1954                   23026990.2384
  -5913492.01648  -4596473.61747  20293385.6484                   20293382.9884
 -10605752.82848  -8250304.09446  21089699.3054                   21089697.0084
  -9806972.27748  -7626452.75445  21772383.7814                   21772381.5044
  10026207.78147   7803662.39845  22259022.6644                   22259022.1724
   7320381.34047   5700690.13745  22412438.6414                   22412435.2034
  14335986.78947  11151336.43044  24250050.0084                   24250050.9804
  -6585815.55147  -5123195.84045  22482048.2194                   22482046.7344
 11  8 22 17 53  0.0000000  0  9G17G24G07G08G11G13G19G23G28
   -127039.11346    -86807.75044  24072565.3524                   24072566.3094
  -6232121.98847  -4847094.85244  23008947.9064                   23008948.2464
  -5959159.28948  -4632058.52347  20284695.3674                   20284692.6884
 -10697892.93048  -8322101.56646  21072165.9144                   21072163.5824
  -9876825.15247  -7680883.55545  21759091.2034                   21759088.9694
  10099517.78947   7860786.97345  22272973.5864                   22272972.1644
   7379568.27047   5746809.77045  22423701.3204                   22423697.9384
  14421439.35947  11217922.49644  24266311.5704                   24266312.5594
  -6645275.31247  -5169528.09845  22470733.8284                   22470731.3244
 11  8 22 17 53 30.0000000  0  9G17G24G07G08G11G13G19G23G28
   -257356.20746   -188353.35544  24047766.2194                   24047768.1954
  -6326751.38747  -4920831.99244  22990939.9144                   22990940.7704
  -6004478.57448  -4667372.25047  20276071.3914                   20276069.0434
 -10789865.91048  -8393768.82046  21054664.0164                   21054661.9844
  -9946242.88348  -7734975.27345  21745881.4304                   21745879.0474
  10173040.15247   7918077.01644  22286963.8754                   22286962.6564
   7439049.37147   5793158.63345  22435020.7584                   22435016.9884
  14506847.85247  11284474.25044  24282564.4844                   24282565.8914
  -6704642.98847  -5215788.60945  22459436.4924                   22459434.5594
 11  8 22 17 54  0.0000000  0  9G17G24G07G08G11G13G19G23G28
   -387537.53146   -289793.19544  24022993.8364                   24022995.2114
  -6421191.12547  -4994421.33244  22972968.3444                   22972969.6294
  -6049442.62548  -4702409.18447  20267515.3674                   20267512.6604
 -10881664.06648  -8465299.84446  21037195.1884                   21037193.4774
 -10015217.95348  -7788722.07445  21732756.1254                   21732753.5664
  10246777.03147   7975534.21545  22300995.9924                   22300994.6884
   7498827.03947   5839738.59045  22446395.7894                   22446391.7544
  14592214.61347  11350993.45344  24298809.4454                   24298810.6134
  -6763914.16847  -5261973.92645  22448157.6334                   22448155.0984
 11  8 22 17 54 30.0000000  0  9G17G24G07G08G11G13G19G23G28
   -517582.17246   -391126.53144  23998246.1024                   23998247.8984
  -6515439.14547  -5067861.32844  22955034.0394                   22955035.0234
  -6094050.43048  -4737168.51247  20259026.7504                   20259024.1684
 -10973286.21948  -8536693.72746  21019760.1564                   21019758.2894
 -10083749.13348  -7842122.97345  21719714.5784                   21719712.5124
  10320724.39547   8033155.42245  22315067.5474                   22315066.4024
   7558897.08647   5886546.37545  22457826.7814                   22457823.2274
  14677535.61346  11417477.00443  24315045.6484                   24315046.7234
  -6823090.87947  -5308085.62145  22436896.6954                   22436894.4414
 11  8 22 17 55  0.0000000  0  9G17G24G07G08G11G13G19G23G28
   -647486.62946   -492350.64844  23973526.9534                   23973527.2664
  -6609491.06247  -5141148.48444  22937136.5004                   22937137.1724
  -6138298.75448  -4771647.74647  20250606.6564                   20250603.9344
 -11064728.24648  -8607947.25846  21002359.2114                   21002357.7384
 -10151832.47348  -7895174.91045  21706759.1564                   21706757.0084
  10394880.60247   8090939.37144  22329179.5004                   22329178.0514
   7619258.42647   5933581.14145  22469312.8134                   22469309.1134
  14762809.75846  11483923.97742  24331272.7034                   24331274.6174
  -6882172.62947  -5354123.33645  22425653.8444                   22425651.2854
 11  8 22 17 55 30.0000000  0  8G17G24G07G08G11G13G19G28
   -777249.00447   -593464.02744  23948833.4224                   23948834.6884
  -6703344.16046  -5214280.72744  22919276.4924                   22919277.5084
  -6182186.18448  -4805845.75447  20242254.7034                   20242252.4844
 -11155988.02348  -8679058.77046  20984993.0474                   20984991.1644
 -10219466.24648  -7947876.54345  21693888.5554                   21693886.6054
  10469242.04747   8148883.24645  22343329.5704                   22343328.7734
   7679907.92647   5980840.44945  22480854.2894                   22480850.7934
  -6941160.55547  -5400087.93745  22414428.7194                   22414426.0434
 11  8 22 17 56  0.0000000  0  8G17G24G07G08G11G13G19G28
   -906861.39147   -694460.57444  23924169.1094                   23924169.9304
  -6796989.28546  -5287250.91844  22901456.7114                   22901457.3134
  -6225705.07448  -4839756.59447  20233973.4144                   20233970.9264
 -11247057.68447  -8750022.13346  20967663.0394                   20967661.2774
 -10286642.21548  -8000221.42645  21681105.6564                   21681103.3554
  10543811.48047   8206989.18844  22357520.0704                   22357519.1484
   7740848.55547   6028326.60245  22492451.0944                   22492447.2304
  -7000049.95347  -5445975.75845  22403222.1024                   22403219.6604
 11  8 22 17 56 30.0000000  0  8G17G24G07G08G11G13G19G28
  -1036311.82847   -795330.92644  23899535.4384                   23899536.4654
  -6890413.10547  -5360048.64844  22883678.8914                   22883679.5164
  -6268843.81248  -4873371.20747  20225764.4694                   20225762.0744
 -11337924.52748  -8820827.46546  20950371.5394                   20950369.8014
 -10353347.83648  -8052199.80945  21668411.6094                   21668409.6994
  10618596.55547   8265263.16044  22371751.3754                   22371750.0984
   7802087.53147   6076045.23445  22504104.0394                   22504100.6844
  -7058831.21947  -5491779.32845  22392036.3134                   22392034.5514
 11  8 22 17 57  0.0000000  0  8G17G24G07G08G11G13G19G28
  -1165597.23847   -896072.68444  23874932.9064                   23874934.1724
  -6983611.82047  -5432670.98044  22865943.3754                   22865944.0514
  -6311599.44148  -4906687.29747  20217628.6174                   20217625.8914
 -11428585.44147  -8891472.33246  20933119.3054                   20933117.6414
 -10419580.30948  -8103809.51645  21655808.2274                   21655805.9734
  10693594.71947   8323703.18444  22386023.0634                   22386021.7624
   7863623.14547   6123995.01645  22515814.2424                   22515810.5864
  -7117504.41047  -5537498.68745  22380871.3524                   22380869.1254
 11  8 22 17 57 30.0000000  0  8G17G24G07G08G11G13G19G28
  -1294719.05547   -996686.98444  23850361.5474                   23850363.1564
  -7076585.65247  -5505118.08644  22848251.2274                   22848251.5354
  -6353974.11748  -4939706.55147  20209564.9694                   20209562.1644
 -11519041.57047  -8961957.62546  20915906.0704                   20915904.5434
 -10485340.92648  -8155051.52345  21643294.4224                   21643291.8754
  10768799.41047   8382304.13344  22400334.1334                   22400333.0274
   7925448.97347   6172170.93445  22527579.4144                   22527575.5784
  -7176074.17647  -5583137.44945  22369725.8284                   22369723.5634
 11  8 22 17 58  0.0000000  0  8G17G24G07G08G11G13G19G28
  -1423681.34047  -1097176.96544  23825820.9924                   23825822.3754
  -7169337.27747  -5577392.02744  22830601.4924                   22830601.6294
  -6395971.44948  -4972431.75846  20201573.1884                   20201570.3714
 -11609296.00047  -9032285.75846  20898731.6804                   20898730.0204
 -10550633.14547  -8205928.55545  21630869.3674                   21630867.1054
  10844202.06347   8441059.32445  22414682.7734                   22414681.9694
   7987556.45747   6220566.32845  22539397.9774                   22539394.5004
  -7234546.81647  -5628700.53945  22358598.9844                   22358597.1804
 11  8 22 17 58 30.0000000  0  9G17G24G07G08G26G11G13G19G28
     22934.39847     30056.19544  24101102.8524                   24101103.9304
  -5686448.77347  -4421894.45744  23112785.4924                   23112785.8204
  -4862176.73448  -3777267.05947  20493444.7274                   20493441.6454
 -10123931.41047  -7874858.80546  21181387.0864                   21181385.3134
   4509368.68856   3524238.39554  24380215.3204                   24380215.6254
  -9040040.77048  -7028843.56245  21918325.7194                   21918323.4024
  12495208.72747   9727557.91844  22728859.0004                   22728858.4694
   9625352.28147   7496770.80145  22851060.2274                   22851056.7544
  -5717509.64147  -4446593.63745  22647281.7974                   22647279.2734
 11  8 22 17 59  0.0000000  0  9G17G24G07G08G26G11G13G19G28
   -105733.05546    -70204.03944  24076618.1954                   24076619.2194
  -5778777.87547  -4493839.15644  23095215.3984                   23095216.4414
  -4903445.68048  -3809424.68747  20485591.1414                   20485588.6334
 -10213806.26248  -7944891.16446  21164284.2734                   21164282.4964
   4393588.37146   3434020.02743  24358183.2194                   24358183.1484
  -9104420.66847  -7079009.68745  21906074.8364                   21906072.3984
  12570966.74247   9786590.01644  22743275.0634                   22743274.6844
   9687983.46547   7545574.27045  22862978.3674                   22862975.0864
  -5775822.43747  -4492032.16845  22636185.0864                   22636182.8404
 11  8 22 17 59 30.0000000  0  9G17G24G07G08G26G11G13G19G28
   -234260.68746   -170355.34844  24052159.6644                   24052161.3674
  -5870901.50847  -4565623.75044  23077685.4144                   23077685.8244
  -4944358.26648  -3841304.64547  20477806.0164                   20477803.2854
 -10303498.35948  -8014781.10946  21147216.2974                   21147215.0514
   4278160.98846   3344076.68844  24336217.6174                   24336218.0274
  -9168351.75847  -7128826.10545  21893908.9924                   21893906.8954
  12646887.75447   9845749.12144  22757722.7344                   22757722.7624
   9750862.10247   7594570.55545  22874944.0394                   22874940.8524
  -5834066.96147  -4537417.49645  22625101.3524                   22625098.7974
 11  8 22 18  0  0.0000000  0  9G17G24G07G08G26G11G13G19G28
   -362641.45747   -270392.18444  24027729.5394                   24027731.1374
  -5962811.36746  -4637241.78944  23060195.2344                   23060195.6134
  -4984907.55148  -3872901.50847  20470089.6334                   20470087.0744
 -10393000.28948  -8084522.86746  21130184.8914                   21130183.0434
   4163094.14846   3254414.25843  24314321.2814                   24314321.5124
  -9231826.91447  -7178287.23045  21881830.2734                   21881827.9574
  12722973.10547   9905036.30144  22772200.9534                   22772200.8484
   9813990.04747   7643761.10945  22886956.8674                   22886953.5634
  -5892239.10547  -4582746.43045  22614031.4694                   22614029.3014
 11  8 22 18  0 30.0000000  0  9G17G24G07G08G26G11G13G19G28
   -490870.99246   -370311.18444  24003328.6644                   24003330.0124
  -6054502.52747  -4708689.39544  23042746.7974                   23042747.8634
  -5025089.96948  -3904212.50047  20462443.4224                   20462440.2664
 -10482307.25848  -8154112.71546  21113190.3054                   21113188.9454
   4048392.76646   3165036.59043  24292494.5164                   24292494.5704
  -9294841.74247  -7227389.68045  21869838.6094                   21869836.3484
  12799222.07847   9964450.96544  22786710.7504                   22786710.8054
   9877366.44147   7693145.25445  22899017.1094                   22899013.7624
  -5950337.58247  -4628017.95745  22602975.8134                   22602973.7424
 11  8 22 18  1  0.0000000  0  9G17G24G07G08G26G11G13G19G28
   -618943.61146   -470107.96544  23978956.8284                   23978958.0554
  -6145968.06246  -4779961.21144  23025341.6414                   23025342.4264
  -5064900.11348  -3935233.39847  20454867.5864                   20454864.8524
 -10571413.16448  -8223545.87146  21096233.9844                   21096232.3324
   3934063.53146   3075948.94543  24270738.0164                   24270738.3754
  -9357390.24248  -7276128.75045  21857936.1954                   21857934.0164
  12875635.63347  10023993.86744  22801252.1564                   22801251.7384
   9940993.02047   7742724.35545  22911124.9224                   22911121.5004
  -6008359.49647  -4673229.82845  22591934.3204                   22591932.2274
 11  8 22 18  1 30.0000000  0  9G17G24G07G08G26G11G13G19G28
   -746853.49246   -569777.85244  23954615.8134                   23954617.4774
  -6237200.89147  -4851051.68744  23007980.7194                   23007981.1914
  -5104331.92248  -3965959.51247  20447363.9694                   20447361.6094
 -10660311.26248  -8292817.12546  21079317.0634                   21079315.2814
   3820113.03146   2987156.39843  24249053.5634                   24249054.2894
  -9419466.73847  -7324500.03145  21846123.4384                   21846121.2814
  12952214.55147  10083665.63344  22815824.8674                   22815824.5124
  10004870.49247   7792498.94545  22923280.4454                   22923277.0474
  -6066301.64847  -4718379.53545  22580908.5554                   22580906.1334
 11  8 22 18  2  0.0000000  0  9G17G24G07G08G26G11G13G19G28
   -874599.20346   -669319.86344  23930307.3204                   23930308.3284
  -6328198.43747  -4921958.83644  22990664.5784                   22990664.8754
  -5143384.69148  -3996390.25447  20439932.5474                   20439929.8444
 -10748999.93448  -8361925.17646  21062440.1954                   21062438.4844
   3706543.68446   2898660.86743  24227442.9144                   24227441.5514
  -9481069.48047  -7372502.15645  21834400.9304                   21834398.8244
  13028955.25447  10143463.47344  22830427.8984                   22830427.7154
  10068995.49247   7842466.42645  22935483.2734                   22935479.8404
  -6124165.55147  -4763468.28545  22569897.4224                   22569895.0864
 11  8 22 18  2 30.0000000  0  9G17G24G07G08G26G11G13G19G28
  -1002175.83246   -768730.12144  23906030.4064                   23906031.1954
  -6418954.93047  -4992678.14544  22973394.0634                   22973394.2894
  -5182053.92648  -4026522.12947  20432574.2894                   20432571.5044
 -10837473.98048  -8430865.99646  21045604.1094                   21045602.4654
   3593360.75846   2810466.41843  24205904.3594                   24205904.3594
  -9542194.01247  -7420131.65645  21822769.0944                   21822767.1414
  13105857.29747  10203387.03144  22845062.6954                   22845061.5514
  10133368.05547   7892626.79345  22947732.5634                   22947729.1374
  -6181949.77747  -4808494.94545  22558901.7814                   22558899.2114
 11  8 22 18  3  0.0000000  0  9G17G24G07G08G26G11G13G19G28
  -1129577.48446   -868004.05144  23881786.3754                   23881786.9454
  -6509463.77747  -5063204.48044  22956170.8054                   22956170.8204
  -5220334.09848  -4056350.84847  20425289.4384                   20425286.8914
 -10925727.18447  -8499634.72746  21028810.3444                   21028808.4184
   3480570.62546   2722578.03543  24184441.5784                   24184440.1954
  -9602834.14847  -7467383.71545  21811229.7344                   21811227.6914
  13182921.27747  10263436.77044  22859727.0634                   22859726.8204
  10197989.29747   7942980.94945  22960029.8134                   22960026.7544
  -6239650.85547  -4853456.81245  22547921.6024                   22547918.9104
 11  8 22 18  3 30.0000000  0  9G17G24G07G08G26G11G13G19G28
  -1256801.36746   -967139.47744  23857576.5394                   23857577.1454
  -6599720.55546  -5133534.40244  22938995.2894                   22938995.8014
  -5258222.39148  -4085874.21147  20418079.9454                   20418076.9414
 -11013755.65247  -8568228.34846  21012058.8364                   21012057.2344
   3368177.59446   2634999.09043  24163053.5314                   24163051.9694
  -9662987.15247  -7514256.17645  21799782.7664                   21799780.6134
  13260145.69547  10323611.53944  22874422.8914                   22874421.9144
  10262857.16047   7993527.28145  22972373.9534                   22972370.6914
  -6297268.80147  -4898353.91445  22536956.9454                   22536954.9104
 11  8 22 18  4  0.0000000  0  9G17G24G07G08G26G11G13G19G28
  -1383846.19146  -1066135.35244  23833400.1644                   23833400.7584
  -6689722.93447  -5203666.09844  22921868.2114                   22921868.8324
  -5295717.97748  -4115091.56247  20410944.4534                   20410941.6454
 -11101557.86347  -8636645.65646  20995350.7194                   20995348.9734
   3256183.33646   2547730.85243  24141741.2274                   24141740.9694
  -9722651.56647  -7560747.93445  21788428.7274                   21788426.7624
  13337526.41847  10383908.09444  22889147.6414                   22889147.2504
  10327968.46947   8044263.30545  22984764.0164                   22984760.7074
  -6354804.96147  -4943187.27345  22526008.6024                   22526006.1884
 11  8 22 18  4 30.0000000  0  9G17G24G07G08G26G11G13G19G28
  -1510709.17246  -1164989.54744  23809259.7734                   23809260.3094
  -6779467.25446  -5273596.71544  22904790.2034                   22904791.1604
  -5332818.69948  -4144001.23047  20403884.6954                   20403881.5554
 -11189130.75448  -8704884.27746  20978686.5474                   20978684.2544
   3144591.33246   2460776.08643  24120506.6174                   24120505.7734
  -9781824.44947  -7606856.68445  21777168.7814                   21777166.4964
  13415061.26647  10444324.73444  22903901.7344                   22903902.2194
  10393321.10247   8095187.37145  22997200.4534                   22997196.8364
  -6412259.63747  -4987957.14545  22515075.3204                   22515072.8954
 11  8 22 18  5  0.0000000  0  9G17G24G07G08G26G11G13G19G28
  -1637387.43747  -1263699.80944  23785153.1804                   23785153.7854
  -6868949.39546  -5343323.02744  22887762.3674                   22887763.3594
  -5369521.62548  -4172600.93047  20396900.1094                   20396897.3284
 -11276470.44148  -8772941.18046  20962065.9534                   20962064.0984
   3033405.29346   2374137.66443  24099348.5164                   24099347.3524
  -9840503.12547  -7652580.33245  21766003.0004                   21766000.6054
  13492748.35247  10504860.01644  22918685.2114                   22918685.1454
  10458913.05147   8146297.92245  23009682.0864                   23009679.0164
  -6469632.59047  -5032663.32845  22504156.9454                   22504155.0004
 11  8 22 18  5 30.0000000  0  9G17G24G07G08G26G11G13G19G28
  -1763881.03546  -1362266.17244  23761082.0314                   23761082.9224
  -6958168.43747  -5412844.33244  22870785.1254                   22870785.3324
  -5405827.54348  -4200891.27347  20389991.4924                   20389988.7704
 -11363577.13348  -8840816.52746  20945490.1094                   20945487.9454
   2922625.84446   2287816.05943  24078267.8284                   24078268.2274
  -9898687.97347  -7697919.18045  21754930.3754                   21754928.2034
  13570582.41447  10565509.79344  22933497.3054                   22933496.8444
  10524739.90647   8197591.53145  23022208.3834                   23022205.6804
  -6526926.81647  -5077308.18045  22493254.7734                   22493252.0594
 11  8 22 18  6  0.0000000  0  9G17G24G07G08G26G11G13G19G28
  -1890189.51246  -1460688.26644  23737046.2974                   23737047.9924
  -7047122.45746  -5482159.10544  22853857.3594                   22853857.8554
  -5441736.02748  -4228871.93447  20383158.2814                   20383155.7544
 -11450449.07848  -8908508.95346  20928958.8444                   20928957.0744
   2812254.27746   2201812.26643  24057264.8134                   24057264.7664
  -9956378.32047  -7742872.69545  21743952.5234                   21743950.6174
  13648559.19947  10626270.82044  22948335.7664                   22948335.4574
  10590797.04747   8249064.55145  23034778.9144                   23034775.8094
  -6584144.73847  -5121893.55945  22482366.4844                   22482363.8244
 11  8 22 18  6 30.0000000  0  9G17G24G07G08G26G11G13G19G28
  -2016309.53546  -1558963.51644  23713046.6174                   23713047.4494
  -7135807.17246  -5551264.03944  22836981.0864                   22836981.4804
  -5477244.22348  -4256540.67647  20376401.2504                   20376398.3554
 -11537082.69148  -8976015.66846  20912473.1954                   20912471.2504
   2702294.68047   2116129.50043  24036340.4924                   24036340.0354
 -10013570.60947  -7787438.11345  21733069.0944                   21733066.8954
  13726676.90647  10687141.61744  22963200.7894                   22963201.1174
  10657083.27347   8300716.09845  23047392.9144                   23047389.7464
  -6641285.65647  -5166418.94545  22471493.0164                   22471490.0474
 11  8 22 18  7  0.0000000  0  9G17G24G07G08G26G11G13G19G28
  -2142240.59446  -1657091.53144  23689082.2584                   23689083.4454
  -7224220.98847  -5620157.91044  22820156.2274                   22820156.8984
  -5512352.15248  -4283897.52747  20369720.5004                   20369717.8754
 -11623477.39548  -9043336.21146  20896032.9694                   20896030.9414
   2592748.02047   2030768.50044  24015493.9304                   24015493.9344
 -10070264.91447  -7831615.50045  21722280.6644                   21722278.5744
  13804930.88747  10748118.62144  22978092.1414                   22978092.2034
  10723594.18047   8352542.71945  23060049.5554                   23060046.4064
  -6698352.01247  -5210886.23045  22460633.3134                   22460631.0634
 11  8 22 18  7 30.0000000  0  9G17G24G07G08G26G11G13G19G28
  -2267980.35946  -1755070.46944  23665154.8054                   23665156.5124
  -7312360.68746  -5688838.14544  22803384.5474                   22803384.9384
  -5547057.77048  -4310940.88747  20363116.1804                   20363113.5904
 -11709629.60548  -9110467.80946  20879638.8834                   20879636.5664
   2483617.53147   1945731.77343  23994727.3834                   23994727.2234
 -10126458.80947  -7875402.95745  21711587.2344                   21711585.1134
  13883318.50847  10809199.73844  22993009.1954                   22993009.0824
  10790327.62147   8404542.73045  23072748.3444                   23072745.1454
  -6755344.07847  -5255295.62145  22449787.7894                   22449785.7034
 11  8 22 18  8  0.0000000  0  9G17G24G07G08G26G11G13G19G28
  -2393529.16846  -1852900.61744  23641263.7344                   23641264.6524
  -7400225.51246  -5757304.20744  22786664.0394                   22786664.1644
  -5581361.50448  -4337671.08647  20356588.5784                   20356585.6174
 -11795539.22748  -9177410.37146  20863290.6024                   20863288.3754
   2374903.40247   1861019.48844  23974039.5784                   23974039.6134
 -10182152.96947  -7918801.00045  21700988.7114                   21700986.8324
  13961834.56647  10870380.94544  23007950.5164                   23007950.2304
  10857278.44947   8456712.15645  23085489.1644                   23085485.2464
  -6812265.02047  -5299649.59445  22438956.3754                   22438953.7304
 11  8 22 18  8 30.0000000  0  9G17G24G07G08G26G11G13G19G28
  -2518883.59447  -1950579.30144  23617409.9614                   23617410.6334
  -7487810.85947  -5825552.48844  22769997.0474                   22769997.5554
  -5615260.72348  -4364086.08647  20350137.6174                   20350134.9574
 -11881202.35548  -9244160.86346  20846989.4144                   20846987.5434
   2266609.90246   1776634.98043  23953431.8204                   23953431.7544
 -10237343.75047  -7961806.80145  21690486.1484                   21690484.8204
  14040477.78947  10931661.24244  23022915.5004                   23022915.5824
  10924445.55147   8509050.09845  23098270.4144                   23098266.9964
  -6869114.10247  -5343947.56645  22428138.1564                   22428135.7114
 11  8 22 18  9  0.0000000  0  9G17G24G07G08G26G11G13G19G28
  -2644042.75047  -2048105.82845  23593592.7274                   23593593.7274
  -7575114.60246  -5893581.32444  22753383.3204                   22753384.0594
  -5648754.57848  -4390185.22347  20343764.0944                   20343761.4264
 -11966617.89847  -9310718.43046  20830735.3754                   20830733.2894
   2158738.53946   1692579.41043  23932904.4844                   23932904.1334
 -10292030.60547  -8004419.93445  21680079.8984                   21680077.8014
  14119243.51247  10993036.98044  23037904.5234                   23037904.5004
  10991824.84847   8561553.40244  23111092.1254                   23111088.8484
  -6925893.32847  -5388191.10245  22417333.6884                   22417331.4104
 11  8 22 18  9 30.0000000  0  9G17G24G07G08G26G11G13G19G28
  -2769002.05947  -2145476.65245  23569813.6174                   23569814.2814
  -7662131.26647  -5961386.47744  22736824.6484                   22736825.2664
  -5681839.19548  -4415965.46147  20337468.3054                   20337465.5784
 -12051779.94548  -9377078.46946  20814529.7194                   20814527.5514
   2051294.52046   1608856.84043  23912458.7814                   23912458.6644
 -10346209.25847  -8046637.06245  21669770.3054                   21669768.0164
  14198131.64147  11054508.10944  23052916.1024                   23052916.5084
  11059416.10547   8614221.85545  23123954.4774                   23123950.9574
  -6982600.87547  -5432378.78545  22406542.7424                   22406540.4454
 11  8 22 18 10  0.0000000  0  9G17G24G07G08G26G11G13G19G28
  -2893760.22347  -2242690.71544  23546072.3524                   23546073.5004
  -7748858.31247  -6028965.93444  22720321.0554                   22720321.7974
  -5714513.55548  -4441426.02047  20331250.4304                   20331247.8874
 -12136686.43448  -9443239.36746  20798372.2584                   20798370.2624
   1944280.02046   1525468.95343  23892094.7114                   23892094.5864
 -10399878.37947  -8088457.16045  21659557.1724                   21659555.1214
  14277138.91847  11116072.06644  23067951.5554                   23067950.9064
  11127216.72347   8667053.43845  23136856.2584                   23136853.2304
  -7039238.05147  -5476511.62945  22395764.6884                   22395762.5864
 11  8 22 18 10 30.0000000  0  9G17G24G07G08G26G11G13G19G28
  -3018315.25047  -2339746.51244  23522370.7504                   23522371.2894
  -7835292.75847  -6096317.39844  22703873.1094                   22703873.5234
  -5746776.01248  -4466565.62147  20325111.5474                   20325108.5354
 -12221335.29347  -9509199.51646  20782264.2974                   20782262.4064
   1837697.45346   1442417.65243  23871811.7424                   23871812.0004
 -10453036.05147  -8129878.70745  21649441.7034                   21649439.3014
  14356261.98447  11177726.27744  23083007.7894                   23083007.7384
  11195223.52047   8720045.68445  23149797.9384                   23149794.8404
  -7095805.44547  -5520590.10945  22385000.5864                   22384997.9494
 11  8 22 18 11  0.0000000  0  9G17G24G07G08G26G11G13G19G28
  -3142663.30947  -2436641.01244  23498708.1884                   23498708.8284
  -7921429.62947  -6163436.98444  22687481.9454                   22687482.0314
  -5778623.02048  -4491381.48847  20319051.2504                   20319048.3204
 -12305721.62948  -9574955.09446  20766206.0314                   20766204.0514
   1731551.72746   1359706.73043  23851613.2584                   23851613.1564
 -10505678.84047  -8170899.04745  21639424.1884                   21639422.0394
  14435500.04747  11239470.10244  23098086.3524                   23098086.4104
  11263435.84847   8773198.09045  23162777.9924                   23162774.7544
  -7152302.22347  -5564613.55945  22374249.4774                   22374247.0824
 11  8 22 18 11 30.0000000  0  9G17G24G07G08G26G11G13G19G28
  -3266802.45347  -2533372.74644  23475085.1334                   23475085.6214
  -8007266.32447  -6230322.67244  22671147.3834                   22671147.5394
  -5810053.22748  -4515872.57847  20313070.2034                   20313067.3364
 -12389843.21148  -9640504.37146  20750198.2814                   20750196.3364
   1625845.07446   1277337.94543  23831498.3984                   23831497.3634
 -10557805.14847  -8211516.94145  21629504.9224                   21629502.7114
  14514850.07847  11301301.15244  23113186.4774                   23113187.0354
  11331850.91447   8826508.46945  23175797.3054                   23175794.2274
  -7208729.04747  -5608582.49245  22363511.6334                   22363509.5554
 11  8 22 18 12  0.0000000  0  9G17G24G07G08G26G11G13G19G28
  -3390728.86347  -2629938.68444  23451502.3054                   23451503.6414
  -8092797.59447  -6296970.35544  22654871.6024                   22654871.4884
  -5841063.39848  -4540036.37547  20307169.2814                   20307166.6994
 -12473695.61748  -9705843.90246  20734241.7344                   20734239.5314
   1520581.89546   1195314.72343  23811467.3914                   23811466.6724
 -10609411.29347  -8251729.50445  21619684.6564                   21619682.2814
  14594310.96147  11363218.57044  23128307.3134                   23128307.7894
  11400467.75047   8879976.06645  23188854.6884                   23188852.0904
  -7265084.72347  -5652495.99645  22352787.4064                   22352785.2154
 11  8 22 18 12 30.0000000  0  9G17G24G07G08G26G11G13G19G28
  -3514437.46947  -2726334.91844  23427961.5314                   23427962.3634
  -8178016.91847  -6363374.97344  22638654.8834                   22638654.8834
  -5871648.58248  -4563868.99647  20301348.7974                   20301346.5084
 -12557272.66448  -9770968.87546  20718337.4224                   20718335.4104
   1415768.32847   1113641.85543  23791521.7424                   23791521.4574
 -10660492.23848  -8291532.81645  21609963.8444                   21609962.1214
  14673883.14847  11425222.70744  23143449.7034                   23143449.9184
  11469287.41047   8933601.70745  23201950.6334                   23201947.4844
  -7321366.88347  -5696352.21145  22342077.5084                   22342075.0554
 11  8 22 18 13  0.0000000  0  9G17G24G07G08G26G11G13G19G28
  -3637927.43447  -2822560.75844  23404461.5314                   23404462.7424
  -8262922.56246  -6429535.16044  22622497.7584                   22622498.1804
  -5901808.37147  -4587370.14847  20295609.5704                   20295606.7894
 -12640573.27748  -9835878.44546  20702485.9384                   20702483.8634
   1311405.59046   1032320.24243  23771661.9384                   23771662.0554
 -10711047.18748  -8330926.26645  21600343.9614                   21600341.5204
  14753562.30547  11487310.21544  23158611.7504                   23158612.0514
  11538305.91847   8987382.28945  23215084.6024                   23215081.6134
  -7377577.51247  -5740152.69545  22331381.1644                   22331378.6884
 11  8 22 18 13 30.0000000  0  9G17G24G07G08G26G11G13G19G28
  -3761196.82847  -2918614.73445  23381004.5474                   23381005.0164
  -8347511.86747  -6495448.83644  22606400.9144                   22606400.8984
  -5931541.41047  -4610538.76247  20289951.7194                   20289948.9264
 -12723594.48848  -9900570.30146  20686687.5704                   20686685.7194
   1207496.45746    951352.12143  23751889.3674                   23751888.8284
 -10761075.03148  -8369908.96945  21590823.6564                   21590821.4924
  14833345.54347  11549478.80544  23173794.1564                   23173794.5234
  11607520.36747   9041315.56645  23228255.9454                   23228252.7894
  -7433716.96947  -5783897.72345  22320697.8754                   22320695.7774
 11  8 22 18 14  0.0000000  0  9G17G24G07G08G26G11G13G19G28
  -3884243.92247  -3014495.49645  23357589.5004                   23357590.0394
  -8431781.90247  -6561113.74244  22590364.9844                   22590364.8834
  -5960846.48847  -4633373.89847  20284375.0314                   20284372.5704
 -12806334.20348  -9965042.80146  20670942.7664                   20670940.4574
   1104042.95347    870739.02743  23732202.7034                   23732202.3554
 -10810574.27348  -8408479.78545  21581404.3754                   21581402.1644
  14913229.76647  11611726.09844  23188995.8754                   23188996.4024
  11676928.11347   9095399.45745  23241463.6024                   23241460.6414
  -7489786.09447  -5827587.94945  22310028.6024                   22310026.0704
 11  8 22 18 14 30.0000000  0  9G17G24G07G08G26G11G13G19G28
  -4007066.78547  -3110201.54344  23334216.8984                   23334217.0634
  -8515729.71546  -6626527.57045  22574389.9534                   22574390.3244
  -5989721.68447  -4655874.07047  20278880.2974                   20278877.6564
 -12888789.77048 -10029293.89546  20655251.6254                   20655250.0664
   1001047.73047    790483.05943  23712603.1094                   23712602.5394
 -10859543.15248  -8446637.33245  21572086.0004                   21572083.5744
  14993212.18047  11674049.88344  23204215.8914                   23204216.4844
  11746526.55547   9149631.95345  23254707.9224                   23254704.9104
  -7545785.91047  -5871224.14845  22299371.8364                   22299369.7854
 11  8 22 18 15  0.0000000  0  9G17G24G07G08G26G11G13G19G28
  -4129661.12947  -3205729.52045  23310887.3134                   23310888.2704
  -8599349.80947  -6691686.01645  22558478.0554                   22558477.6214
  -6018163.71548  -4678036.70747  20273467.9534                   20273465.2304
 -12970955.78548 -10093319.36346  20639616.1024                   20639614.1724
    898515.60547    710587.89143  23693091.6564                   23693091.4574
 -10907977.79748  -8484378.59846  21562868.8134                   21562867.0354
  15073291.84847  11736449.46144  23219455.3674                   23219455.3324
  11816315.21547   9204012.64844  23267987.9534                   23267985.2234
  -7601714.41447  -5914804.80145  22288729.2424                   22288726.6024
 11  8 22 18 15 30.0000000  0  9G17G24G07G08G26G11G13G19G28
  -4252027.81247  -3301080.09044  23287602.2974                   23287602.3204
  -8682641.93746  -6756588.92244  22542627.6484                   22542627.1764
  -6046174.01248  -4699862.93047  20268137.6414                   20268135.1914
 -13052832.82448 -10157119.65246  20624035.2894                   20624033.8164
    796446.30146    631053.39843  23673668.6024                   23673668.2854
 -10955879.34848  -8521704.45745  21553753.3674                   21553751.4534
  15153463.09447  11798920.40244  23234710.6644                   23234712.2464
  11886289.08647   9258537.69545  23281303.4534                   23281300.6134
  -7657575.83647  -5958333.16845  22278098.7734                   22278096.4534
 11  8 22 18 16  0.0000000  0  9G17G24G07G08G26G11G13G19G28
  -4374164.46947  -3396251.43444  23264360.4924                   23264360.8914
  -8765602.61347  -6821233.53144  22526840.6484                   22526840.6484
  -6073749.85247  -4721350.61347  20262890.5944                   20262887.9694
 -13134417.38348 -10220692.02746  20608510.1884                   20608508.4144
    694842.86346    551881.89543  23654334.1884                   23654334.0124
 -11003245.75448  -8558613.33245  21544739.9694                   21544737.6414
  15233723.96547  11861461.15244  23249984.5944                   23249985.0744
  11956446.07447   9313205.41044  23294653.6724                   23294651.0084
  -7713369.28147  -6001808.56645  22267481.7114                   22267479.3284
 11  8 22 18 16 30.0000000  0  9G17G24G07G08G26G11G13G19G28
  -4496071.34447  -3491243.71544  23241161.8984                   23241162.7234
  -8848230.79747  -6885619.05945  22511117.0784                   22511117.0704
  -6100892.44548  -4742500.70347  20257725.2584                   20257722.7274
 -13215708.68448 -10284035.89846  20593041.2194                   20593039.2584
    593706.06646    473073.98443  23635088.1094                   23635088.2894
 -11050077.56248  -8595105.64145  21535828.2114                   21535825.9534
  15314069.42247  11924067.82444  23265274.1484                   23265274.5004
  12026781.19547   9368011.94545  23308038.5634                   23308035.5704
  -7769098.14848  -6045233.64145  22256877.0944                   22256874.6054
 11  8 22 18 17  0.0000000  0  9G17G24G07G08G26G11G13G19G28
  -4617745.21547  -3586054.44945  23218007.7734                   23218008.3094
  -8930522.38747  -6949742.32445  22495457.5004                   22495457.6804
  -6127599.15247  -4763311.14147  20252643.0474                   20252640.4494
 -13296703.23448 -10347148.52746  20577628.1884                   20577626.3094
    493039.24246    394632.29743  23615932.3754                   23615932.0004
 -11096372.16048  -8631179.35545  21527018.5164                   21527016.7424
  15394497.88747  11986739.16843  23280578.8054                   23280579.9414
  12097293.20347   9422956.30944  23321456.5314                   23321453.9844
  -7824761.76248  -6088607.87945  22246284.6724                   22246282.2504
 11  8 22 18 17 30.0000000  0  9G17G24G07G08G26G11G13G19G28
  -4739188.55147  -3680685.54744  23194898.0554                   23194898.4614
  -9012478.85946  -7013604.45345  22479861.3834                   22479861.5824
  -6153872.56248  -4783783.93447  20247643.5944                   20247640.9384
 -13377402.43747 -10410031.02346  20562271.8914                   20562269.8524
    392840.86346    316555.69943  23596864.8444                   23596864.9534
 -11142132.53148  -8666836.78545  21518310.6414                   21518308.7814
  15475002.11347  12049469.57844  23295898.8754                   23295899.4264
  12167975.28947   9478033.21144  23334907.0234                   23334903.9414
  -7880365.18747  -6131935.20745  22235703.6644                   22235701.0354
 11  8 22 18 18  0.0000000  0  9G17G24G07G08G26G11G13G19G28
  -4860398.40647  -3775134.70744  23171832.5164                   23171833.2544
  -9094096.21547  -7077202.34444  22464330.1094                   22464330.5474
  -6179710.44148  -4803917.36747  20242726.8054                   20242724.0784
 -13457802.35248 -10472680.30146  20546972.2664                   20546970.4224
    293114.30946    238846.78143  23577887.4534                   23577888.0124
 -11187355.64148  -8702075.57446  21509705.2974                   21509702.8714
  15555580.13347  12112257.46543  23311232.2424                   23311232.8204
  12238825.81647   9533241.35944  23348389.7194                   23348386.5904
  -7935907.95347  -6175215.26245  22225134.2194                   22225131.6724
 11  8 22 18 18 30.0000000  0  9G17G24G07G08G26G11G13G19G28
  -4981374.87947  -3869402.01645  23148811.4534                   23148811.9534
  -9175373.23046  -7140535.05144  22448863.5084                   22448864.3714
  -6205113.39848  -4823711.89847  20237892.6414                   20237890.1174
 -13537903.29347 -10535096.61746  20531729.4454                   20531727.5864
    193860.07047    161505.95344  23559000.1724                   23559000.0274
 -11232042.41048  -8736896.43745  21501201.2894                   21501199.1054
  15636227.08247  12175099.05543  23326579.2814                   23326579.7894
  12309840.08647   9588577.10544  23361902.9064                   23361899.7704
  -7991392.78547  -6218450.18045  22214575.4064                   22214573.3324
 11  8 22 18 19  0.0000000  0  9G17G24G07G08G26G11G13G19G28
  -5102116.44147  -3963486.26245  23125835.1884                   23125835.8244
  -9256307.38347  -7203600.58645  22433462.6414                   22433462.9104
  -6230080.55548  -4843166.84447  20233141.4064                   20233138.8484
 -13617702.50848 -10597277.82446  20516543.8914                   20516542.4454
     95079.98447     84534.48444  23540202.6094                   23540202.6294
 -11276191.55948  -8771298.37545  21492800.0784                   21492797.7774
  15716939.71147  12237991.85243  23341938.3754                   23341938.4264
  12381015.50047   9644038.40644  23375447.0944                   23375444.5204
  -8046820.48047  -6261640.57445  22204027.9614                   22204025.8834
 11  8 22 18 19 30.0000000  0  9G17G24G07G08G26G11G13G19G28
  -5222623.23447  -4057387.57045  23102904.0084                   23102903.6884
  -9336897.65247  -7266398.16845  22418126.5004                   22418126.4414
  -6254612.11748  -4862282.35547  20228473.1954                   20228470.7734
 -13697199.12948 -10659223.24646  20501416.5234                   20501414.6134
     -3225.39847      7932.89544  23521495.9454                   23521495.5474
 -11319803.78948  -8805281.92645  21484501.2114                   21484498.8984
  15797713.50847  12300932.28543  23357308.8984                   23357309.5314
  12452347.56647   9699621.79344  23389020.9304                   23389018.4184
  -8102193.84847  -6304788.64145  22193491.0704                   22193488.7544
 11  8 22 18 20  0.0000000  0  9G17G24G07G08G26G11G13G19G28
  -5342891.54747  -4151103.05945  23080016.7894                   23080017.6644
  -9417139.52346  -7328924.29345  22402857.0704                   22402857.5864
  -6278704.94948  -4881056.00847  20223888.6724                   20223886.0124
 -13776388.44548 -10720929.20746  20486347.2584                   20486345.4804
   -101051.86747    -68295.50444  23502880.3914                   23502880.2034
 -11362875.73848  -8838844.48845  21476304.7194                   21476302.4024
  15878547.43047  12363919.57443  23372691.4144                   23372692.2384
  12523835.15646   9755326.34444  23402624.5164                   23402622.2774
  -8157511.39847  -6347893.20745  22182964.1884                   22182961.9414
 11  8 22 18 20 30.0000000  0  9G17G24G07G08G26G11G13G19G28
  -5462918.39547  -4244630.39845  23057176.6024                   23057177.0124
  -9497028.77747  -7391175.64545  22387654.8594                   22387654.6804
  -6302356.87148  -4899486.08647  20219387.6724                   20219385.3674
 -13855266.85248 -10782392.90246  20471337.2584                   20471335.5354
   -198395.78147   -144147.87543  23484355.8674                   23484355.9924
 -11405405.19548  -8871984.32045  21468211.8444                   21468209.5004
  15959439.63747  12426952.26644  23388084.7194                   23388086.3324
  12595477.20346   9811151.26244  23416257.9924                   23416255.5234
  -8212772.80147  -6390954.03945  22172448.2584                   22172446.2894
 11  8 22 18 21  0.0000000  0  9G17G24G07G08G26G11G13G19G28
  -5582702.35947  -4337968.46945  23034382.2894                   23034382.6884
  -9576562.94547  -7453150.28945  22372519.5704                   22372520.0634
  -6325567.05548  -4917571.96547  20214971.2034                   20214968.6254
 -13933832.35948 -10843612.78146  20456386.6954                   20456385.0944
   -295255.35947   -219622.85543  23465924.8134                   23465924.5904
 -11447391.10248  -8904700.60245  21460222.0474                   21460219.6484
  16040386.60247  12490027.64143  23403488.8674                   23403489.2934
  12667270.81646   9867094.27744  23429919.7974                   23429917.7504
  -8267979.23847  -6433972.02745  22161943.1644                   22161940.7974
 11  8 22 18 21 30.0000000  0  9G17G24G07G08G26G11G13G19G28
  -5702239.86347  -4431114.51245  23011635.1024                   23011635.1414
  -9655737.37546  -7514844.63744  22357453.0314                   22357453.6564
  -6348332.27348  -4935311.11746  20210639.1484                   20210636.5664
 -14012080.21148 -10904585.13746  20441496.7034                   20441494.7894
   -391626.42647   -294717.17643  23447586.1334                   23447585.2304
 -11488830.48048  -8936991.02345  21452336.6024                   21452334.2034
  16121387.67647  12553145.15643  23418902.9774                   23418904.1524
  12739214.96146   9923154.58244  23443610.1484                   23443607.6524
  -8323129.41447  -6476946.18745  22151448.1174                   22151445.8324
 11  8 22 18 22  0.0000000  0  9G17G24G07G08G26G11G13G19G28
  -5821527.57047  -4524065.90245  22988935.2974                   22988935.6334
  -9734547.72747  -7576255.27745  22342456.1644                   22342456.8164
  -6370649.46548  -4952701.15647  20206392.3134                   20206389.8954
 -14090006.23848 -10965306.72346  20426667.9144                   20426666.1294
   -487504.94947   -369427.71143  23429340.8674                   23429341.2734
 -11529720.15648  -8968853.10245  21444555.4844                   21444553.3674
  16202441.50447  12616303.80143  23434327.1484                   23434327.4574
  12811309.12546   9979331.77744  23457330.1094                   23457327.0784
  -8378222.43748  -6519875.80945  22140964.4534                   22140961.9494
 11  8 22 18 22 30.0000000  0  9G17G24G07G08G26G11G13G19G28
  -5940562.29747  -4616820.17244  22966283.8284                   22966284.5124
  -9812989.60247  -7637378.80145  22327529.4064                   22327529.3134
  -6392516.18448  -4969740.16846  20202231.0944                   20202228.5864
 -14167606.28948 -11025774.29346  20411901.2584                   20411899.4774
   -582887.40646   -443751.65243  23411189.9924                   23411189.5784
 -11570057.81248  -9000285.03145  21436879.2814                   21436877.2304
  16283546.59046  12679502.38743  23449761.0634                   23449762.1804
  12883552.09846  10035624.92244  23471077.1334                   23471074.6294
  -8433257.11748  -6562759.96545  22130491.6414                   22130489.1414
 11  8 22 18 23  0.0000000  0  9G17G24G07G08G26G11G13G19G28
  -6059339.71147  -4709373.93745  22943681.2194                   22943681.4144
  -9891057.78547  -7698211.13344  22312673.3834                   22312673.5274
  -6413928.74248  -4986425.28547  20198156.5084                   20198154.0164
 -14244875.70348 -11085984.23046  20397197.4224                   20397195.3164
   -677769.14146   -517685.45743  23393133.8284                   23393133.6334
 -11609839.69148  -9031283.89545  21429309.0944                   21429306.8874
  16364702.27046  12742740.36344  23465204.3594                   23465205.7734
  12955943.40246  10092033.66044  23484852.6484                   23484850.4534
  -8488232.18048  -6605597.66045  22120030.1174                   22120027.7504
 11  8 22 18 23 30.0000000  0  9G17G24G07G08G26G11G13G19G28
  -6177854.06647  -4801722.73445  22921128.8284                   22921128.8554
  -9968745.55947  -7758747.03145  22297889.8284                   22297889.7814
  -6434881.98448  -5002752.50447  20194169.0784                   20194166.8324
 -14321807.65248 -11145931.20346  20382557.7894                   20382555.8054
   -772143.66846   -591224.02343  23375175.4064                   23375175.7624
 -11649060.56248  -9061845.61345  21421845.1954                   21421843.1214
  16445910.09447  12806018.98444  23480658.4534                   23480659.4774
  13028484.55946  10148559.15644  23498657.0474                   23498654.9024
  -8543144.03947  -6648386.10545  22109580.8444                   22109578.4884
 11  8 22 18 24  0.0000000  0  9G17G24G07G08G26G11G13G19G28
  -6296100.16047  -4893862.48845  22898627.3444                   22898627.3244
 -10046046.87947  -7818981.78145  22283179.9924                   22283179.8554
  -6455371.39148  -5018718.28947  20190270.1094                   20190267.8014
 -14398395.89548 -11205610.35946  20367983.6254                   20367981.0634
   -866005.56246   -664363.09443  23357313.8054                   23357313.8794
 -11687716.03548  -9091966.75445  21414489.5704                   21414487.2814
  16527170.44946  12869338.54344  23496121.0004                   23496123.2114
  13101176.76246  10205202.35244  23512490.1334                   23512487.1214
  -8597989.99647  -6691123.20345  22099143.8914                   22099141.3914
 11  8 22 18 24 30.0000000  0  9G17G24G07G08G26G11G13G19G28
  -6414072.87947  -4985789.20745  22876177.6174                   22876177.7344
 -10122955.56647  -7878910.59845  22268544.7584                   22268544.5904
  -6475392.27748  -5034318.99647  20186460.3444                   20186458.0634
 -14474634.70748 -11265017.22746  20353475.7504                   20353473.7424
   -959349.33246   -737098.47743  23339550.7584                   23339551.5864
 -11725801.72348  -9121643.91046  21407242.0474                   21407239.8594
  16608483.81647  12932699.39143  23511595.1024                   23511596.7194
  13174020.61346  10261963.72744  23526351.4304                   23526349.2894
  -8652767.22747  -6733806.74245  22088720.2034                   22088717.6024
 11  8 22 18 25  0.0000000  0  9G17G24G07G08G26G11G13G19G28
  -6531770.87547  -5077501.85945  22853780.3984                   22853780.7194
 -10199468.80947  -7938531.27045  22253984.2664                   22253984.4774
  -6494943.68048  -5049553.87146  20182740.1024                   20182737.4264
 -14550521.40648 -11324149.71946  20339035.0314                   20339032.8834
  -1052172.93446   -809428.53543  23321887.4224                   23321887.4574
 -11763316.54348  -9150876.24245  21400103.2734                   21400101.2114
  16689847.38346  12996099.35943  23527078.4774                   23527080.0704
  13247013.30946  10318841.07844  23540242.0704                   23540239.1994
  -8707476.48047  -6776437.32045  22078309.3444                   22078306.7774
 11  8 22 18 25 30.0000000  0  9G17G24G07G08G26G11G13G19G28
  -5073767.30947  -3941395.11745  23131229.0784                   23131229.4884
  -8700160.12947  -6770238.75445  22539293.3444                   22539293.5864
  -4938602.55548  -3836820.54747  20478901.8284                   20478899.2854
 -13050629.37548 -10155402.67246  20624454.7424                   20624452.9384
    430950.16447    346251.83644  23604116.8674                   23604116.6414
 -10224836.96548  -7952060.97745  21692866.3674                   21692864.1804
  18346676.57846  14287134.88743  23842362.2034                   23842364.0594
  14895571.48846  11603431.80544  23853951.7424                   23853949.0984
  -7186695.59447  -5591413.24245  22367704.4064                   22367701.7464
 11  8 22 18 26  0.0000000  0  9G17G24G07G08G26G11G13G19G28
  -5190906.46547  -4032672.28545  23108938.2814                   23108938.4144
  -8775869.85247  -6829233.30545  22524886.1414                   22524886.3634
  -4957207.38348  -3851317.83247  20475361.6334                   20475359.2074
 -13125799.36748 -10213976.69146  20610150.2814                   20610148.4144
    339177.89146    274741.03544  23586652.6564                   23586652.4184
 -10261202.67648  -7980397.89545  21685946.1644                   21685943.6214
  18428135.91846  14350609.50043  23857863.8204                   23857865.2774
  14968859.17246  11660539.02344  23867898.1254                   23867895.7584
  -7241266.70748  -5633936.17645  22357320.1254                   22357317.1174
 11  8 22 18 26 30.0000000  0  9G17G24G07G08G26G11G13G19G28
  -5307768.30147  -4123733.38345  23086699.8834                   23086700.3954
  -8851178.68047  -6887915.46945  22510555.5004                   22510555.7424
  -4975342.02748  -3865448.73846  20471910.3674                   20471907.9024
 -13200612.53148 -10272272.66046  20595913.9454                   20595912.0784
    247929.44947    203638.35944  23569288.8754                   23569288.5944
 -10296997.03948  -8008289.60946  21679134.4384                   21679132.4804
  18509634.00047  14414114.27043  23873372.5554                   23873374.4304
  15042285.80146  11717754.50844  23881870.5084                   23881868.3284
  -7295774.22348  -5676409.55545  22346946.9694                   22346944.7114
 11  8 22 18 27  0.0000000  0  9G17G24G07G08G26G11G13G19G28
  -5424351.44547  -4214577.30945  23064514.5234                   23064515.0664
  -8926083.98446  -6946283.21945  22496301.8594                   22496301.5864
  -4993005.56248  -3879212.55147  20468549.5234                   20468546.8484
 -13275066.44948 -10330288.69146  20581745.5554                   20581743.7384
    157206.87547    132945.46544  23552025.2344                   23552025.1524
 -10332219.35948  -8035735.56645  21672431.5234                   21672429.9454
  18591168.13347  14477647.15643  23888888.1724                   23888889.1804
  15115848.37546  11775075.95344  23895869.9844                   23895866.4454
  -7350219.12147  -5718834.13745  22336586.6334                   22336584.1484
 11  8 22 18 27 30.0000000  0  9G17G24G07G08G26G11G13G19G28
  -5540656.89847  -4305204.85545  23042382.4534                   23042382.2584
  -9000585.82446  -7004336.57045  22482124.4694                   22482124.3324
  -5010200.06248  -3892610.88347  20465277.2194                   20465275.2234
 -13349160.87548 -10388024.60246  20567646.1884                   20567644.0394
     67009.13747     62661.53944  23534860.5394                   23534861.0514
 -10366871.55548  -8062737.26246  21665838.3284                   21665835.8984
  18672732.14847  14541203.33643  23904409.6024                   23904410.2624
  15189541.71146  11832499.27344  23909893.1884                   23909890.3134
  -7404605.13748  -5761212.84045  22326237.5004                   22326235.0864
 11  8 22 18 28  0.0000000  0  9G17G24G07G08G26G11G13G19G28
  -5656684.15247  -4395615.62945  23020303.1024                   23020303.7854
  -9074682.60947  -7062074.28145  22468023.8834                   22468024.1294
  -5026925.20348  -3905643.48047  20462094.7274                   20462092.2814
 -13422894.14548 -10445479.09446  20553615.3444                   20553613.1294
    -22661.99647     -7212.05544  23517796.9144                   23517796.7074
 -10400953.43448  -8089294.56246  21659352.4224                   21659349.7194
  18754322.82447  14604780.30143  23919935.8914                   23919936.3244
  15263362.50046  11890021.92244  23923941.1414                   23923937.9304
  -7458933.46148  -5803546.58645  22315899.3444                   22315896.9144
 11  8 22 18 28 30.0000000  0  9G17G24G07G08G26G11G13G19G28
  -5772431.93047  -4485808.62945  22998277.2974                   22998277.4924
  -9148372.38747  -7119494.86345  22454001.5554                   22454001.0744
  -5043180.41848  -3918309.90647  20459001.3914                   20458999.1764
 -13496264.37148 -10502650.69546  20539652.8984                   20539651.1684
   -111805.63747    -76674.59044  23500833.4064                   23500833.4144
 -10434464.75847  -8115407.26645  21652975.5554                   21652973.1054
  18835936.87947  14668375.46543  23935466.6954                   23935467.7464
  15337307.80146  11947641.58244  23938011.9534                   23938008.8794
  -7513205.03147  -5845836.09845  22305571.5944                   22305569.0314
 11  8 22 18 29  0.0000000  0  9G17G24G07G08G26G11G13G19G28
  -5887894.48447  -4575779.37545  22976305.6024                   22976305.5474
  -9221648.09447  -7176592.78545  22440057.3984                   22440057.5004
  -5058960.60948  -3930606.18747  20455998.6024                   20455996.3014
 -13569264.77748 -10559534.12146  20525761.7274                   20525759.9104
   -200415.28146   -145721.04744  23483971.5394                   23483971.4924
 -10467400.49648  -8141071.46145  21646707.6094                   21646705.5004
  18917575.32447  14731989.62143  23951002.2664                   23951003.9384
  15411379.34047  12005359.61344  23952107.5004                   23952104.2464
  -7567416.53547  -5888078.80145  22295255.7344                   22295252.7074
 11  8 22 18 29 30.0000000  0  9G17G24G07G08G26G11G13G19G28
  -6003071.99247  -4665528.01645  22954388.0234                   22954387.9534
  -9294509.09447  -7233367.56645  22426192.4304                   22426192.3914
  -5074266.54348  -3942532.91047  20453085.8444                   20453083.5234
 -13641894.65648 -10616128.83646  20511940.8754                   20511938.4654
   -288490.96947   -214351.44944  23467211.0474                   23467211.5004
 -10499762.03948  -8166288.23045  21640549.7114                   21640547.3914
  18999233.32446  14795619.00843  23966541.4774                   23966542.7504
  15485572.21146  12063172.17244  23966226.1724                   23966223.1254
  -7621570.47747  -5930276.66445  22284950.0164                   22284947.8794
 11  8 22 18 30  0.0000000  0  9G17G24G07G08G26G11G13G19G28
  -6117961.77047  -4755052.44145  22932525.0864                   22932524.9384
  -9366951.33247  -7289816.03945  22412406.7114                   22412406.7114
  -5089096.03948  -3954088.38746  20450263.8284                   20450261.6174
 -13714150.06648 -10672431.75046  20498190.8444                   20498189.0704
   -376029.38747   -282563.18744  23450553.0634                   23450553.2734
 -10531546.42248  -8191055.27745  21634501.2344                   21634499.0904
  19080909.91046  14859262.87143  23982083.2274                   23982085.7074
  15559886.02347  12121078.98044  23980367.6564                   23980364.6764
  -7675665.98847  -5972428.98445  22274656.1174                   22274653.9574
 11  8 22 18 30 30.0000000  0  9G17G24G07G08G26G11G13G19G28
  -6232566.80147  -4844354.99245  22910716.0474                   22910716.5354
  -9438977.01647  -7345939.92245  22398700.7974                   22398701.3014
  -5103452.90248  -3965275.57046  20447532.1334                   20447529.5124
 -13786033.38748 -10728444.72746  20484512.0554                   20484510.2814
   -463033.25447   -350358.39144  23433996.8594                   23433997.1054
 -10562757.99247  -8215375.96145  21628562.1414                   21628559.8164
  19162597.38746  14922915.18843  23997628.3444                   23997630.2424
  15634313.34446  12179074.25044  23994530.6094                   23994528.0004
  -7729708.34048  -6014539.89845  22264371.9454                   22264369.5004
 11  8 22 18 31  0.0000000  0  9G17G24G07G08G26G11G13G19G28
  -6346883.68447  -4933432.99645  22888963.0004                   22888962.4064
  -9510581.62947  -7401735.69545  22385075.4534                   22385074.8284
  -5117334.31648  -3976092.27046  20444890.4844                   20444888.2974
 -13857540.16448 -10784164.28146  20470904.3834                   20470902.7974
   -549498.74647   -417734.08644  23417543.0394                   23417542.7304
 -10593394.19548  -8239248.30945  21622731.9224                   21622729.8364
  19244294.68046  14986575.12943  24013174.5164                   24013177.3634
  15708853.52046  12237157.43844  24008715.5164                   24008712.6294
  -7783696.35248  -6056608.46146  22254098.9224                   22254096.0824
 11  8 22 18 31 30.0000000  0  9G17G24G07G08G26G11G13G19G28
  -6460913.48847  -5022287.30145  22867263.2114                   22867263.3404
  -9581765.19547  -7457203.38345  22371529.0944                   22371529.6254
  -5130742.39148  -3986540.14146  20442338.6564                   20442336.8164
 -13928670.46148 -10839590.48446  20457369.0554                   20457367.1134
   -635426.88746   -484691.05544  23401191.6954                   23401191.5084
 -10623457.38348  -8262674.16045  21617010.9844                   21617008.9694
  19325996.19546  15050238.36343  24028722.5864                   24028724.7664
  15783501.11747  12295324.34444  24022920.5314                   24022917.5394
  -7837633.37548  -6098637.28945  22243834.4924                   22243832.2974
 11  8 22 18 32  0.0000000  0  9G17G24G07G08G26G11G13G19G28
  -6574655.25847  -5110917.17645  22845618.5554                   22845619.2034
  -9652525.91047  -7512341.56645  22358064.2584                   22358063.9574
  -5143676.56648  -3996618.74247  20439877.7194                   20439875.4184
 -13999422.38348 -10894721.84446  20443905.5474                   20443903.4574
   -720816.32046   -551228.28143  23384942.4534                   23384942.1804
 -10652946.85547  -8285652.95745  21611399.6954                   21611397.0004
  19407698.76646  15113902.47743  24044270.4144                   24044272.4534
  15858253.29347  12353572.73444  24037144.8364                   24037142.0434
  -7891520.14848  -6140626.96545  22233580.4844                   22233578.3794
 11  8 22 18 32 30.0000000  0  9G17G24G07G08G26G11G13G19G28
  -6688110.77347  -5199323.98845  22824028.9304                   22824029.4774
  -9722864.35547  -7567150.72345  22344678.9534                   22344679.2774
  -5156138.90248  -4006329.67647  20437506.1644                   20437503.8324
 -14069796.46548 -10949558.78946  20430513.6414                   20430511.7624
   -805668.19146   -617346.60543  23368795.4224                   23368795.1294
 -10681865.54748  -8308186.99245  21605896.5084                   21605894.2774
  19489396.47746  15177562.77043  24059817.5394                   24059819.1524
  15933104.67646  12411898.42244  24051388.7424                   24051386.2234
  -7945360.89848  -6182580.78146  22223334.8914                   22223332.6294
 11  8 22 18 33  0.0000000  0  9G17G24G07G08G26G11G13G19G28
  -6801279.77747  -5287507.55545  22802493.0554                   22802493.8444
  -9792779.60547  -7621630.10545  22331374.8984                   22331374.2234
  -5168130.21148  -4015673.58247  20435224.2584                   20435222.0204
 -14139791.65248 -11004100.48446  20417194.1414                   20417192.0784
   -889982.64546   -683046.15243  23352750.3754                   23352750.0514
 -10710214.18047  -8330276.83245  21600501.7584                   21600499.5594
  19571084.68846  15241215.68043  24075362.6564                   24075363.3554
  16008051.03146  12470298.13744  24065650.5234                   24065647.6524
  -7999157.43748  -6224500.14846  22213097.9614                   22213095.5904
 11  8 22 18 33 30.0000000  0  9G17G24G07G08G26G11G13G19G28
  -6914160.17247  -5375466.23845  22781013.3984                   22781013.6254
  -9862268.57447  -7675777.32845  22318151.0474                   22318151.2974
  -5179649.19148  -4024649.42647  20433032.4304                   20433029.6334
 -14209404.94948 -11058344.60946  20403946.9694                   20403945.3404
   -973756.66446   -748324.60543  23336808.5944                   23336808.5274
 -10737991.35948  -8351921.38745  21595216.2974                   21595213.7774
  19652761.54746  15304859.80943  24090905.1484                   24090906.7304
  16083090.91046  12528770.70744  24079930.1724                   24079928.0984
  -8052909.71948  -6266385.03545  22202869.3364                   22202866.7774
 11  8 22 18 34  0.0000000  0  9G17G24G07G08G26G11G13G19G28
  -7026752.50847  -5463200.46145  22759587.5394                   22759587.6564
  -9931330.65247  -7729591.91445  22305008.9304                   22305009.3794
  -5190696.81247  -4033257.98046  20430930.0554                   20430927.9924
 -14278635.64548 -11112290.60246  20390773.0474                   20390771.1724
  -1056990.61746   -813182.23443  23320970.3524                   23320968.7814
 -10765198.37547  -8373121.65645  21590038.9224                   21590036.3674
  19734422.36346  15368491.39543  24106444.6094                   24106446.1174
  16158219.69546  12587312.54344  24094227.0004                   24094224.3524
  -8106620.13347  -6308237.29745  22192648.3674                   22192645.7544
 11  8 22 18 34 30.0000000  0  9G17G24G07G08G26G11G13G19G28
  -7139056.36747  -5550709.89845  22738216.8594                   22738216.6684
  -9999964.80147  -7783073.03145  22291948.2734                   22291948.5394
  -5201273.66847  -4041499.72346  20428917.5084                   20428915.3244
 -14347482.78948 -11165937.73046  20377671.6094                   20377669.8674
  -1139684.16446   -877618.75443  23305233.7974                   23305233.5784
 -10791836.03148  -8393878.27345  21584969.6804                   21584967.7234
  19816063.12946  15432107.36743  24121979.9384                   24121981.2464
  16233433.67646  12645920.78144  24108539.5474                   24108536.9454
  -8160290.66447  -6350058.48045  22182435.0474                   22182432.5704
 11  8 22 18 35  0.0000000  0  9G17G24G07G08G26G11G13G19G28
  -7251070.20747  -5637993.33645  22716901.2894                   22716901.1254
 -10068168.22747  -7836218.52345  22278969.2584                   22278969.6524
  -5211378.69148  -4049373.78146  20426994.5784                   20426992.1294
 -14415943.21948 -11219283.52046  20364644.1024                   20364642.1454
  -1221835.44946   -941632.75043  23289601.6484                   23289601.3014
 -10817903.64548  -8414190.70745  21580009.5634                   21580007.4184
  19897681.10946  15495705.53543  24137512.0234                   24137513.8164
  16308730.90246  12704593.87544  24122868.4844                   24122865.6724
  -8213921.53947  -6391848.76245  22172229.4224                   22172226.8834
 11  8 22 18 35 30.0000000  0  9G17G24G07G08G26G11G13G19G28
  -7362790.01247  -5725047.67645  22695641.1414                   22695641.0784
 -10135935.93047  -7889024.50045  22266073.7034                   22266073.9184
  -5221008.70348  -4056877.72346  20425162.2114                   20425159.6174
 -14484012.29348 -11272324.35546  20351691.0084                   20351689.0354
  -1303440.03547  -1005220.74244  23274073.3364                   23274072.1644
 -10843398.33247  -8434056.69945  21575157.4454                   21575155.4104
  19979276.13745  15559285.81643  24153039.6804                   24153041.2974
  16384111.33646  12763331.81344  24137212.4534                   24137209.8674
  -8267510.91847  -6433606.71545  22162031.8594                   22162029.4264
 11  8 22 18 36  0.0000000  0  9G17G24G07G08G26G11G13G19G28
  -7474216.20747  -5811873.21945  22674437.6484                   22674437.5434
 -10203267.71547  -7941490.78945  22253261.1024                   22253261.3054
  -5230164.92648  -4064012.46946  20423419.4924                   20423417.5744
 -14551689.22748 -11325059.62546  20338812.7034                   20338810.5984
  -1384498.43747  -1068383.11744  23258647.9694                   23258647.0944
 -10868321.50848  -8453477.35945  21570415.5474                   21570412.9224
  20060843.68845  15622844.59443  24168561.0864                   24168562.8164
  16459570.61346  12822131.16444  24151572.1644                   24151569.4844
  -8321061.28147  -6475334.26245  22151841.5234                   22151838.8444
 11  8 22 18 36 30.0000000  0  9G17G24G07G08G26G11G13G19G28
  -7585346.23447  -5898467.97745  22653290.0474                   22653289.4734
 -10270159.74646  -7993614.42645  22240531.8834                   22240532.2504
  -5238845.25848  -4070776.39147  20421767.9304                   20421765.6334
 -14618970.26247 -11377486.41446  20326009.3364                   20326007.6484
  -1465007.46547  -1131117.43744  23243327.7274                   23243327.1994
 -10892671.28947  -8472451.22346  21565781.2734                   21565779.3554
  20142382.06346  15686380.69143  24184077.3754                   24184080.0514
  16535107.67247  12880991.13744  24165946.7894                   24165943.9774
  -8374571.76248  -6517030.73445  22141658.9384                   22141656.7194
 11  8 22 18 37  0.0000000  0  9G17G24G07G08G26G11G13G19G28
  -7696178.34847  -5984830.58645  22632199.4144                   22632198.7074
 -10336609.48847  -8045393.43045  22227886.9144                   22227887.1884
  -5247048.75848  -4077168.75447  20420206.9384                   20420204.4304
 -14685852.99248 -11429602.82846  20313281.9144                   20313280.2154
  -1544965.45347  -1193422.36344  23228112.1174                   23228111.9064
 -10916447.08248  -8490977.81645  21561256.9844                   21561255.0944
  20223888.65646  15749892.02743  24199587.9614                   24199590.4574
  16610720.16447  12939909.88344  24180334.8204                   24180332.6954
  -8428042.73848  -6558696.41845  22131483.2424                   22131480.8794
 11  8 22 18 37 30.0000000  0  9G17G24G07G08G26G11G13G19G28
  -7806710.34447  -6070959.34045  22611165.9304                   22611166.1564
 -10402613.85947  -8096825.37545  22215326.6884                   22215326.7934
  -5254774.09048  -4083188.52346  20418736.8674                   20418734.8674
 -14752334.08248 -11481406.28146  20300631.0864                   20300628.9574
  -1624369.96947  -1255296.00444  23213002.0394                   23213001.6134
 -10939647.57847  -8509056.10945  21556842.1254                   21556840.1374
  20305361.41446  15813377.03143  24215092.1174                   24215094.7464
  16686406.78547  12998886.40244  24194738.4384                   24194735.5514
  -8481473.84048  -6600331.03545  22121315.8834                   22121313.8364
 11  8 22 18 38  0.0000000  0  9G17G24G07G08G26G11G13G19G28
  -7916940.64147  -6156853.00045  22590189.7734                   22590189.3674
 -10468170.25447  -8147908.24245  22202851.4924                   22202851.7894
  -5262020.42247  -4088835.03946  20417357.6254                   20417355.6094
 -14818410.48048 -11532894.37946  20288057.2274                   20288055.5904
  -1703219.19947  -1316736.94944  23197997.5944                   23197997.5864
 -10962272.31247  -8526685.77045  21552536.9844                   21552534.5594
  20386798.28147  15876834.02343  24230589.5634                   24230591.7814
  16762165.49647  13057919.10544  24209154.4144                   24209151.5904
  -8534865.14847  -6641934.63745  22111155.7814                   22111153.4064
 11  8 22 18 38 30.0000000  0  9G17G24G07G08G26G11G13G19G28
  -8026865.11347  -6242508.35945  22569272.1954                   22569271.6844
 -10533273.71547  -8198638.17645  22190462.8594                   22190462.8204
  -5268784.33647  -4094105.64547  20416070.8754                   20416068.6174
 -14884077.51248 -11584063.49646  20275561.2584                   20275559.2114
  -1781508.91447  -1377741.91844  23183099.3754                   23183099.5434
 -10984318.42247  -8543864.54345  21548341.3284                   21548339.0204
  20468199.20347  15940263.05543  24246080.0474                   24246081.8634
  16837996.14147  13117007.85544  24223584.5784                   24223581.9104
  -8588214.88347  -6683505.84445  22101003.5784                   22101001.3244
 11  8 22 18 39  0.0000000  0  9G17G24G07G08G26G11G13G19G28
  -8136482.00047  -6327924.03945  22548412.1024                   22548411.8914
 -10597921.33647  -8249012.91045  22178160.8674                   22178160.8594
  -5275064.85548  -4098999.57447  20414875.5314                   20414873.2154
 -14949332.31648 -11634911.40246  20263143.6094                   20263141.5004
  -1859237.13747  -1438309.35544  23168308.2664                   23168308.3484
 -11005785.12947  -8560591.83245  21544256.5314                   21544254.2774
  20549561.53547  16003661.97743  24261563.0234                   24261564.7814
  16913897.34447  13176151.59844  24238028.0634                   24238025.3554
  -8641522.91048  -6725044.55545  22090859.4614                   22090856.9964
 11  8 22 18 39 30.0000000  0  9G17G24G07G08G26G11G13G19G28
  -8245791.41847  -6413100.14145  22527611.6484                   22527611.4734
 -10662112.46947  -8299031.94145  22165945.6954                   22165945.5984
  -5280862.75047  -4103517.44547  20413772.5864                   20413770.1804
 -15014173.78548 -11685437.23046  20250804.4224                   20250802.5594
  -1936403.71947  -1498439.15244  23153624.0634                   23153624.0084
 -11026673.34448  -8576868.35545  21540281.5394                   21540279.2464
  20630881.29346  16067027.74243  24277037.5634                   24277039.4694
  16989865.06647  13235347.16444  24252484.5864                   24252481.3954
  -8694791.42648  -6766552.47745  22080722.8754                   22080720.5864
 11  8 22 18 40  0.0000000  0  9G17G24G07G08G26G11G13G19G28
  -8354792.69547  -6498036.11345  22506869.3594                   22506868.8984
 -10725845.58247  -8348694.07045  22153817.6724                   22153817.7034
  -5286178.43047  -4107659.56247  20412760.8444                   20412758.3874
 -15078600.14847 -11735639.59046  20238544.8204                   20238542.7544
  -2013007.85947  -1558130.66444  23139046.1484                   23139046.4964
 -11046983.58647  -8592694.50445  21536416.8444                   21536414.4184
  20712155.26246  16130357.87543  24292503.4454                   24292505.2894
  17065896.44147  13294592.33643  24266952.5554                   24266949.4264
  -8748021.05548  -6808030.10245  22070593.7034                   22070591.0124
 11  8 22 18 40 30.0000000  0  9G17G24G07G08G26G11G13G19G28
  -8463482.43447  -6582729.34445  22486186.1254                   22486185.8284
 -10789116.28147  -8397995.87945  22141777.4614                   22141777.6684
  -5291008.93447  -4111423.60947  20411841.5944                   20411839.2504
 -15142607.09848 -11785515.13746  20226364.8364                   20226362.7034
  -2089046.30147  -1617381.39844  23124577.2274                   23124576.8634
 -11066713.71948  -8608068.61745  21532662.0234                   21532659.8524
  20793382.79346  16193651.76642  24307960.9924                   24307962.8484
  17141991.01646  13353886.78143  24281433.1094                   24281429.9144
  -8801210.43048  -6849476.35245  22060472.0394                   22060469.5864
 11  8 22 18 41  0.0000000  0  9G17G24G07G08G26G11G13G19G28
  -8571862.25047  -6667181.06645  22465562.2274                   22465562.1374
 -10851925.31247  -8446937.94545  22129825.1954                   22129825.5394
  -5295356.92248  -4114811.67246  20411014.1954                   20411011.8284
 -15206195.34048 -11835064.41846  20214264.1884                   20214262.2934
  -2164520.69147  -1676192.59844  23110214.8364                   23110214.6294
 -11085866.61748  -8622992.94145  21529017.6174                   21529015.2704
  20874557.81646  16256904.73842  24323408.0704                   24323410.2584
  17218143.22746  13413226.14543  24295923.6954                   24295920.5554
  -8854363.28148  -6890894.14845  22050356.7664                   22050354.7384
 11  8 22 18 41 30.0000000  0  9G17G24G07G08G26G11G13G19G28
  -8679931.80547  -6751391.02345  22444997.1484                   22444996.3984
 -10914271.40647  -8495519.28945  22117961.5474                   22117960.9344
  -5299222.64548  -4117823.94547  20410278.9534                   20410276.3754
 -15269363.19948 -11884286.12546  20202243.7894                   20202241.9614
  -2239430.03947  -1734563.51645  23095959.5864                   23095960.1684
 -11104442.93048  -8637467.99245  21525482.6484                   21525480.2704
  20955676.83246  16320114.00442  24338845.0944                   24338847.9614
  17294350.05146  13472608.01243  24310424.8914                   24310423.2464
  -8907481.09848  -6932284.65245  22040249.2814                   22040246.7894
 11  8 22 18 42  0.0000000  0  9G17G24G07G08G26G11G13G19G28
  -8787689.24247  -6835357.77345  22424491.5314                   22424490.9344
 -10976151.95747  -8543737.86345  22106185.6174                   22106185.6524
  -5302605.34848  -4120459.84047  20409635.1174                   20409632.4264
 -15332107.79348 -11933178.01646  20190303.9224                   20190301.6414
  -2313773.01247  -1792493.08644  23081812.6094                   23081813.5234
 -11122441.92648  -8651493.18745  21522057.3754                   21522055.0274
  21036737.64146  16383277.94143  24354270.1024                   24354274.1454
  17370609.81646  13532031.13343  24324937.1884                   24324935.5274
  -8960563.60548  -6973647.63345  22030147.7974                   22030145.2854
 11  8 22 18 42 30.0000000  0  9G17G24G07G08G26G11G13G19G28
  -8895135.60947  -6919082.14845  22404044.7894                   22404044.6024
 -11037567.37947  -8591594.02045  22094498.8674                   22094498.7464
  -5305506.86747  -4122720.78147  20409082.6884                   20409080.5084
 -15394429.01648 -11981740.00446  20178444.3754                   20178442.3094
  -2387550.39147  -1849981.93044  23067772.8204                   23067773.1684
 -11139866.06248  -8665070.44145  21518741.9064                   21518739.7464
  21117735.34046  16446392.75043  24369684.1564                   24369687.7734
  17446917.84846  13591491.88743  24339458.3204                   24339456.6334
  -9013613.75848  -7014985.41445  22020052.5704                   22020049.9494
 11  8 22 18 43  0.0000000  0  9G17G24G07G08G26G11G13G19G28
  -9002267.41047  -7002561.39145  22383658.4844                   22383658.5204
 -11098512.87947  -8639083.98845  22082901.2664                   22082901.0354
  -5307924.44148  -4124604.61747  20408622.8594                   20408620.5354
 -15456322.43448 -12029968.64546  20166666.6954                   20166664.6254
  -2460758.33647  -1907027.08244  23053842.3524                   23053843.1954
 -11156712.74648  -8678197.73845  21515536.0554                   21515533.8714
  21198669.66046  16509458.10543  24385085.6334                   24385089.6884
  17523274.31646  13650990.37143  24353988.8984                   24353986.6174
  -9066629.19948  -7056296.13745  22009964.5474                   22009962.0354
 11  8 22 18 43 30.0000000  0  9G17G24G07G08G26G11G13G19G28
  -9109080.34047  -7085792.17245  22363332.8284                   22363331.9144
 -11158983.35947  -8686203.81645  22071393.9924                   22071394.1254
  -5309854.37548  -4126108.48447  20408255.6414                   20408253.2814
 -15517782.43748 -12077859.55546  20154971.1564                   20154969.1174
  -2533392.82047  -1963625.37944  23040020.4844                   23040020.9184
 -11172978.83648  -8690872.60945  21512440.7734                   21512438.7154
  21279540.80146  16572474.25043  24400475.5944                   24400479.0164
  17599679.86746  13710527.11344  24368528.9144                   24368526.3674
  -9119607.54348  -7097577.95745  21999882.9534                   21999880.3954
 11  8 22 18 44  0.0000000  0  9G17G24G07G08G26G11G13G19G28
  -9215569.18047  -7168770.42245  22343068.2344                   22343067.8714
 -11218973.02746  -8732948.98845  22059978.4614                   22059978.5204
  -5311292.60548  -4127229.20346  20407981.8284                   20407979.3094
 -15578803.12147 -12125408.14146  20143359.2664                   20143357.2504
  -2605448.82847  -2019772.89544  23026308.5634                   23026309.0394
 -11188660.64147  -8703092.20745  21509456.3984                   21509454.1334
  21360350.01646  16635442.12543  24415853.8444                   24415856.7934
  17676135.90247  13770103.19144  24383078.0554                   24383075.3674
  -9172545.86348  -7138828.59445  21989809.1804                   21989806.7274
 11  8 22 18 44 30.0000000  0  9G17G24G07G08G26G11G13G19G28
  -9321727.19547  -7251490.87145  22322867.0704                   22322866.4774
 -11278473.96147  -8779313.32845  22048655.6644                   22048656.0664
  -5312232.96147  -4127961.96546  20407803.0704                   20407800.6454
 -15639376.50048 -12172608.18046  20131832.6724                   20131830.3364
  -2676918.90246  -2075463.83244  23012707.7664                   23012708.2544
 -11203752.22747  -8714851.88745  21506584.5704                   21506582.2344
  21441100.16046  16698363.97343  24431219.6804                   24431223.5124
  17752645.94947  13829721.35244  24397636.9924                   24397634.9534
  -9225438.55148  -7180043.67245  21979744.1484                   21979741.6374
 11  8 22 18 45  0.0000000  0  9G17G24G07G08G26G11G13G19G28
  -9427551.04747  -7333950.94545  22302729.3914                   22302728.8014
 -11337482.11747  -8825293.68045  22037426.8524                   22037426.3324
  -5312673.42247  -4128305.19946  20407719.3054                   20407717.0234
 -15699498.39148 -12219456.40246  20120391.7274                   20120389.4494
  -2747800.35947  -2130696.13344  22999219.5394                   22999220.4264
 -11218251.73847  -8726150.21545  21503825.6024                   21503823.4534
  21521790.84446  16761239.48843  24446574.5944                   24446578.7154
  17829209.85246  13889381.48844  24412206.7504                   24412204.5084
  -9278283.77348  -7221221.76246  21969687.9384                   21969685.9224
 11  8 22 18 45 30.0000000  0  9G17G24G07G08G26G11G13G19G28
  -9533035.52347  -7416146.55545  22282656.6724                   22282655.8554
 -11395991.66047  -8870885.51645  22026293.1094                   22026292.6374
  -5312609.70748  -4128255.57446  20407731.4144                   20407729.1954
 -15759161.87548 -12265947.43746  20109038.1724                   20109035.8794
  -2818087.84847  -2185465.60944  22985844.3284                   22985844.6604
 -11232155.45747  -8736984.28945  21501179.7974                   21501177.4574
  21602423.09046  16824069.49243  24461919.4384                   24461922.9964
  17905829.09847  13949084.73444  24426787.2424                   24426784.8594
  -9331078.46148  -7262360.46146  21959641.5474                   21959638.8484
 11  8 22 18 46  0.0000000  0  9G17G24G07G08G26G11G13G19G28
  -9638179.91847  -7498077.18445  22262647.7274                   22262647.6254
 -11454000.71547  -8916087.34445  22015254.0394                   22015253.9104
  -5312041.09448  -4127812.52046  20407839.7034                   20407837.3284
 -15818365.18747 -12312079.89146  20097772.1484                   20097770.1134
  -2887780.48847  -2239771.57044  22972582.3674                   22972582.5904
 -11245463.63347  -8747354.29345  21498647.4924                   21498644.7344
  21682994.15246  16886851.78143  24477250.5784                   24477254.9104
  17982501.37947  14008829.31644  24441377.3524                   24441375.1804
  -9383823.28548  -7303460.31245  21949604.3674                   21949602.0164
 11  8 22 18 46 30.0000000  0  9G17G24G07G08G26G11G13G19G28
  -9742982.21547  -7579741.25845  22242704.9144                   22242704.1954
 -11511506.87546  -8960897.31245  22004310.7344                   22004311.1724
  -5310967.33248  -4126975.84446  20408043.9064                   20408041.7384
 -15877105.37547 -12357851.46546  20086594.3054                   20086592.6564
  -2956876.34047  -2293612.48444  22959433.7584                   22959434.0434
 -11258175.69148  -8757259.79345  21496228.4064                   21496225.9304
  21763502.25046  16949585.05143  24492571.4844                   24492575.5664
  18059224.98047  14068613.88744  24455977.9064                   24455975.2624
  -9436517.94948  -7344521.07045  21939576.7504                   21939574.3754
 11  8 22 18 47  0.0000000  0  9G17G24G07G08G26G11G13G19G28
  -9847444.42647  -7661140.32045  22222826.1884                   22222825.3634
 -11568511.18447  -9005316.22345  21993463.2274                   21993463.5084
  -5309391.06648  -4125747.61346  20408343.9454                   20408341.6134
 -15935383.68748 -12403263.13746  20075504.2504                   20075502.5514
  -3025377.60247  -2346990.08644  22946398.7664                   22946399.0394
 -11270294.82048  -8766703.27045  21493922.1884                   21493920.2154
  21843941.37546  17012264.52342  24507879.0234                   24507882.1334
  18135994.64846  14128434.35544  24470585.9224                   24470584.1294
  -9489165.43748  -7385545.07845  21929558.3984                   21929555.8794
 11  8 22 18 47 30.0000000  0  9G17G24G07G08G26G11G13G19G28
  -9951566.43448  -7742274.28945  22203012.4384                   22203011.9224
 -11625012.68447  -9049343.34045  21982711.6334                   21982711.3984
  -5307312.91447  -4124128.29746  20408739.5314                   20408737.2704
 -15993198.48448 -12448313.62946  20064502.1724                   20064500.5164
  -3093284.17247  -2399904.29344  22933476.6024                   22933476.4144
 -11281822.12548  -8775685.57045  21491728.8914                   21491726.4654
  21924307.94146  17074887.56342  24523172.5084                   24523175.8834
  18212807.39546  14188288.37143  24485203.3284                   24485200.6724
  -9541767.79348  -7426533.91445  21919548.3284                   21919546.0634
 11  8 22 18 48  0.0000000  0  9G17G24G07G08G26G11G13G19G28
 -10055349.26648  -7823143.96945  22183263.0554                   22183262.4694
 -11681011.59847  -9092978.81645  21972055.3054                   21972055.0474
  -5304734.68748  -4122119.32846  20409230.1954                   20409227.9694
 -16050549.75448 -12493002.93446  20053588.3984                   20053586.8444
  -3160596.91847  -2452355.78144  22920667.4454                   22920667.4734
 -11292760.01248  -8784208.60545  21489647.1094                   21489644.7154
  22004597.28546  17137450.33242  24538450.9694                   24538455.0164
  18289658.77346  14248172.50043  24499827.4224                   24499825.6604
  -9594327.37148  -7467489.41045  21909546.3834                   21909544.0554
 11  8 22 18 48 30.0000000  0  9G17G24G07G08G26G11G13G19G28
 -10158790.39148  -7903747.37545  22163579.2194                   22163578.4144
 -11736504.55147  -9136220.04745  21961495.4384                   21961495.2814
  -5301654.85548  -4119719.48447  20409816.3444                   20409813.8524
 -16107433.81648 -12537328.18446  20042764.0164                   20042762.3594
  -3227313.56647  -2504342.77344  22907971.9304                   22907971.6844
 -11303107.21548  -8792271.35945  21487678.2344                   21487675.5784
  22084808.43446  17199952.26242  24553714.7194                   24553719.0354
  18366547.99646  14308086.12543  24514459.4924                   24514457.2974
  -9646842.90248  -7508410.58646  21899553.3284                   21899551.0984
 11  8 22 18 49  0.0000000  0  8G17G24G07G08G26G11G19G28
 -10261890.85947  -7984085.35245  22143959.6334                   22143958.8524
 -11791492.03947  -9179067.41045  21951031.3134                   21951031.4344
  -5298075.58248  -4116930.47346  20410497.4144                   20410495.0904
 -16163851.07048 -12581289.68446  20032028.1884                   20032026.4734
  -3293435.37947  -2555866.26244  22895389.1804                   22895388.7194
 -11312866.45348  -8799875.95745  21485820.8594                   21485818.8954
  18443470.42246  14368025.59843  24529096.0474                   24529094.8204
  -9699317.27348  -7549299.69946  21889567.6644                   21889565.3404
 11  8 22 18 49 30.0000000  0  8G17G24G07G08G26G11G19G28
 -10364645.73448  -8064154.02345  22124405.7664                   22124405.2464
 -11845968.25047  -9221516.36745  21940665.0944                   21940664.6134
  -5293992.57448  -4113748.94146  20411274.0164                   20411271.9654
 -16219795.24247 -12624882.55146  20021382.3594                   20021380.6604
  -3358957.32847  -2606922.32844  22882920.6094                   22882920.4964
 -11322033.82848  -8807019.36745  21484076.5704                   21484074.2274
  18520427.80945  14427992.27343  24543741.0004                   24543739.5354
  -9751746.75447  -7590153.82445  21879590.5314                   21879588.4654
 11  8 22 18 50  0.0000000  0  8G17G24G07G08G26G11G19G28
 -10467046.12948  -8143946.47345  22104919.6024                   22104919.1414
 -11899923.65247  -9263559.51245  21930397.7274                   21930397.4804
  -5289397.84848  -4110168.66846  20412148.3204                   20412146.6414
 -16275256.10248 -12668098.80946  20010829.0554                   20010826.7544
  -3423870.65247  -2657504.12144  22870568.1724                   22870568.2384
 -11330602.10248  -8813695.94945  21482446.0944                   21482443.8914
  18597426.14845  14487990.94142  24558393.4534                   24558391.1374
  -9804124.16048  -7630967.37145  21869623.4614                   21869621.4494
 11  8 22 18 50 30.0000000  0  8G17G24G07G08G26G11G19G28
 -10569089.36348  -8223460.63745  22085501.3444                   22085500.5124
 -11953354.69147  -9305194.06245  21920230.0554                   21920230.2074
  -5284289.86348  -4106188.44946  20413120.8204                   20413118.2464
 -16330230.07848 -12710935.68446  20000367.4384                   20000365.6054
  -3488173.07847  -2707609.89544  22858332.0394                   22858331.5514
 -11338569.80148  -8819904.54745  21480929.8134                   21480927.6374
  18674464.37546  14548020.70742  24573052.7504                   24573050.9844
  -9856447.97747  -7671739.16445  21859666.5084                   21859664.3794
 11  8 22 18 51  0.0000000  0  8G17G24G07G08G26G11G19G28
 -10670784.64548  -8302703.65246  22066149.6484                   22066148.4304
 -12006270.00847  -9346426.75845  21910160.5864                   21910160.4264
  -5278679.07848  -4101816.44546  20414188.0474                   20414185.9654
 -16384725.68448 -12753399.80146  19989997.2584                   19989995.6134
  -3551874.25447  -2757247.16844  22846210.0234                   22846209.5354
 -11345947.78548  -8825653.63345  21479525.9614                   21479523.7274
  18751530.20346  14608071.97343  24587718.7894                   24587716.2274
  -9908729.19147  -7712477.75846  21849717.8204                   21849715.5594
 11  8 22 18 51 30.0000000  0  8G17G24G07G08G26G11G19G28
 -10772138.52747  -8381680.64545  22046862.1414                   22046861.7854
 -12058675.11747  -9387261.87545  21900188.0554                   21900187.6174
  -5272572.89848  -4097058.41846  20415350.1414                   20415348.0664
 -16438747.66047 -12795494.85946  19979717.3364                   19979715.5864
  -3614980.63347  -2806420.96944  22834201.3204                   22834200.4654
 -11352743.70348  -8830949.16445  21478232.3754                   21478230.2584
  18828614.02046  14668137.25443  24602387.6484                   24602385.4184
  -9960975.65647  -7753189.27746  21839775.5944                   21839773.7424
 11  8 22 18 52  0.0000000  0  8G17G24G07G08G26G11G19G28
 -10873154.00048  -8460393.94545  22027639.7974                   22027639.0474
 -12110572.65247  -9427701.49645  21890312.5004                   21890311.8364
  -5265975.18748  -4091917.37946  20416605.8054                   20416603.5234
 -16492298.26648 -12837222.61346  19969526.7424                   19969525.4454
  -3677495.35547  -2855133.73044  22822305.5864                   22822304.3284
 -11358962.38348  -8835794.89845  21477049.3364                   21477047.0784
  18905709.50846  14728211.61743  24617058.6954                   24617056.1024
 -10013191.55148  -7793876.97746  21829839.5554                   21829836.7774
 11  8 22 18 52 30.0000000  0  8G17G24G07G08G26G11G19G28
  -9398408.36347  -7311241.44945  22308274.3984                   22308274.1334
 -10586540.28547  -8240143.78145  22180325.8984                   22180325.6954
  -3683467.18448  -2858794.30146  20717747.2034                   20717745.0274
 -14969955.08248 -11650981.18046  20259219.3054                   20259217.4574
  -2163996.94147  -1675784.32044  23110314.6564                   23110313.6484
  -9789185.14148  -7612591.85545  21775768.0474                   21775765.7464
  20558230.74247  16015890.46543  24931522.3134                   24931520.4614
  -8489956.73848  -6606940.74246  22119701.2114                   22119698.8094
 11  8 22 18 53  0.0000000  0  8G17G24G07G08G26G11G19G28
  -9498749.71548  -7389429.46146  22289180.0704                   22289179.4184
 -10637422.35547  -8279792.13745  22170643.5164                   22170642.9734
  -3675891.16848  -2852890.94546  20719189.0554                   20719186.8444
 -15022561.62548 -11691973.30146  20249208.6804                   20249206.7584
  -2225331.05547  -1723577.13344  23098642.9844                   23098642.3244
  -9794255.30948  -7616542.65245  21774802.9774                   21774800.8324
  20635338.13347  16075974.10943  24946195.8674                   24946193.8484
  -8542117.74248  -6647585.66445  22109775.2734                   22109773.2774
 11  8 22 18 53 30.0000000  0  7G17G24G07G08G26G11G28
  -9598751.39548  -7467352.79345  22270150.4224                   22270149.5234
 -10687793.47747  -8319042.32845  22161058.0784                   22161057.7424
  -3667825.32848  -2846605.91446  20720723.6024                   20720721.7974
 -15074692.29748 -11732594.61746  20239288.2974                   20239286.4104
  -2286073.07447  -1770908.57844  23087083.8524                   23087082.8834
  -9798751.10247  -7620045.87545  21773947.6174                   21773945.5784
  -8594250.98047  -6688208.95745  22099854.9534                   22099852.2194
 11  8 22 18 54  0.0000000  0  7G17G24G07G08G26G11G28
  -9698406.32048  -7545005.92646  22251186.7194                   22251185.8324
 -10737645.89147  -8357888.34845  22151571.3284                   22151571.2814
  -3659263.45348  -2839934.35946  20722353.3134                   20722350.9534
 -15126339.04348 -11772838.84046  20229459.9924                   20229458.3954
  -2346215.93047  -1817773.13744  23075639.5394                   23075638.9494
  -9802667.21148  -7623097.40245  21773202.2814                   21773200.0434
  -8646350.68448  -6728806.10945  22089940.5004                   22089937.9064
 11  8 22 18 54 30.0000000  0  7G17G24G07G08G26G11G28
  -9797699.84848  -7622377.44545  22232291.6254                   22232290.8404
 -10786964.09847  -8396318.09045  22142186.6334                   22142186.4534
  -3650191.60248  -2832865.41446  20724079.4924                   20724077.3094
 -15177485.76648 -11812693.43746  20219727.5314                   20219725.4264
  -2405745.16847  -1864159.55944  23064310.9694                   23064310.7974
  -9805990.15248  -7625686.72345  21772569.9384                   21772567.2464
  -8698403.16848  -6769366.47746  22080035.3674                   22080032.9534
 11  8 22 18 55  0.0000000  0  7G17G24G07G08G26G11G28
  -9896629.96548  -7699465.79346  22213466.2974                   22213465.0354
 -10835745.41047  -8434329.49245  22132903.8754                   22132903.5634
  -3640608.87548  -2825398.40246  20725902.9144                   20725900.9804
 -15228129.20747 -11852155.86346  20210090.1484                   20210088.4574
  -2464659.07047  -1910066.49244  23053099.9614                   23053099.9804
  -9808718.97748  -7627813.08645  21772050.9614                   21772048.7934
  -8750407.65247  -6809889.44146  22070139.3914                   22070136.7464
 11  8 22 18 55 30.0000000  0  7G17G24G07G08G26G11G28
  -9995200.12148  -7776273.65246  22194708.4614                   22194707.6414
 -10883992.89547  -8471924.89845  22123722.8834                   22123722.2774
  -3630520.14548  -2817537.08646  20727822.9614                   20727820.7154
 -15278272.22748 -11891228.35546  20200548.6724                   20200546.8204
  -2522961.67647  -1955497.09844  23042005.8364                   23042005.2194
  -9810859.54347  -7629481.06645  21771643.2194                   21771641.1844
  -8802369.21548  -6850378.96146  22060251.3204                   22060249.0084
 11  8 22 18 56  0.0000000  0  7G17G24G07G08G26G11G28
 -10093413.21948  -7852803.28946  22176019.0944                   22176018.1884
 -10931708.53147  -8509105.89545  22114642.1484                   22114642.1884
  -3619929.04348  -2809284.31246  20729838.4304                   20729836.3444
 -15327916.08648 -11929911.89146  20191101.5704                   20191099.5514
  -2580656.01247  -2000453.72344  23031026.6174                   23031026.6844
  -9812415.96547  -7630693.87945  21771347.0634                   21771344.6804
  -8854291.94948  -6890838.22346  22050370.4064                   22050368.0514
 11  8 22 18 56 30.0000000  0  7G17G24G07G08G26G11G28
 -10191273.33248  -7929057.87146  22157397.3914                   22157396.1684
 -10978895.59047  -8545875.00045  22105662.9844                   22105662.9964
  -3608840.45348  -2800643.88346  20731948.5394                   20731946.4224
 -15377064.14848 -11968209.09046  20181749.1334                   20181747.1484
  -2637746.32447  -2044939.68044  23020162.6484                   23020162.8984
  -9813393.61347  -7631455.70345  21771161.2344                   21771158.9924
  -8906180.58648  -6931270.91046  22040496.3594                   22040494.4224
 11  8 22 18 57  0.0000000  0  7G17G24G07G08G26G11G28
 -10288781.65648  -8005038.32846  22138841.7274                   22138840.8164
 -11025554.60247  -8582232.64145  22096784.3054                   22096783.7544
  -3597256.68748  -2791617.60946  20734152.8524                   20734150.6524
 -15425715.92248 -12006119.57446  20172490.8204                   20172488.8874
  -2694234.13747  -2088956.15644  23009413.0234                   23009413.1134
  -9813794.99647  -7631768.48045  21771084.9774                   21771082.8444
  -8958037.55548  -6971678.93446  22030628.4774                   22030626.1374
 11  8 22 18 57 30.0000000  0  7G17G24G07G08G26G11G28
 -10385937.16848  -8080743.87146  22120353.6954                   22120352.4964
 -11071684.19547  -8618177.76645  22088006.1254                   22088005.7734
  -3585178.17648  -2782205.81646  20736451.2114                   20736449.3284
 -15473869.83248 -12043642.10546  20163327.2424                   20163325.6884
  -2750118.82047  -2132502.66444  22998778.3054                   22998778.4614
  -9813621.19148  -7631633.06245  21771117.8674                   21771115.6954
  -9009863.21148  -7012062.55146  22020766.4224                   22020764.3914
 11  8 22 18 58  0.0000000  0  7G17G24G07G08G26G11G28
 -10482742.12148  -8156176.25046  22101932.1024                   22101931.4574
 -11117286.02347  -8653711.63345  22079328.3984                   22079327.8984
  -3572607.48048  -2772410.50046  20738843.5554                   20738841.4694
 -15521526.77348 -12080777.39546  20154258.6484                   20154256.7704
  -2805402.85947  -2175581.14144  22988258.8284                   22988258.9384
  -9812875.75047  -7631052.20745  21771259.6094                   21771257.5984
  -9061660.61347  -7052424.16846  22010909.6484                   22010907.3404
 11  8 22 18 58 30.0000000  0  7G17G24G07G08G26G11G28
 -10579197.74248  -8231336.43446  22083577.3444                   22083576.3794
 -11162360.79347  -8688834.80945  22070750.6254                   22070750.3404
  -3559547.53548  -2762233.94946  20741328.9224                   20741326.8364
 -15568687.27348 -12117525.84846  20145284.2584                   20145282.5434
  -2860088.04747  -2218192.96944  22977852.1564                   22977852.3014
  -9811561.58247  -7630028.18745  21771509.8444                   21771507.7544
  -9113432.35947  -7092765.78146  22001057.4384                   22001055.4024
 11  8 22 18 59  0.0000000  0  7G17G24G07G08G26G11G28
 -10675301.18448  -8306222.17646  22065289.0944                   22065288.0984
 -11206904.91047  -8723544.50445  22062274.1884                   22062274.0044
  -3545996.52748  -2751674.76646  20743907.2424                   20743905.4344
 -15615347.44148 -12153884.43446  20136405.2734                   20136403.8134
  -2914172.09847  -2260336.38344  22967560.5474                   22967560.4884
  -9809677.60947  -7628560.16845  21771868.2114                   21771866.1214
  -9165176.74648  -7133086.06646  21991210.9384                   21991209.0314
 11  8 22 18 59 30.0000000  0  7G17G24G07G08G26G11G28
 -10771052.32048  -8380833.40246  22047068.4614                   22047067.6914
 -11250917.71547  -8757840.18045  22053898.7664                   22053898.7504
  -3531954.91448  -2740733.28546  20746579.3914                   20746577.8134
 -15661505.46148 -12189851.73046  20127621.6804                   20127619.3244
  -2967655.04346  -2302011.41444  22957383.2344                   22957382.3674
  -9807225.15647  -7626649.18045  21772335.1174                   21772332.9454
  -9216894.38748  -7173385.52346  21981369.6094                   21981367.3014
 11  8 22 19  0  0.0000000  0  7G17G24G07G08G26G11G28
 -10866452.43448  -8455171.10946  22028914.4384                   22028913.5824
 -11294399.90647  -8791722.38345  22045624.3444                   22045624.2194
  -3517425.22348  -2729411.48446  20749344.3204                   20749342.5514
 -15707161.75448 -12225428.07846  20118933.6484                   20118931.9384
  -3020538.48047  -2343219.28544  22947319.2274                   22947319.7464
  -9804206.86348  -7624297.26645  21772909.5474                   21772907.5354
  -9268587.42247  -7213665.80546  21971532.6484                   21971530.4414
 11  8 22 19  0 30.0000000  0  7G17G24G07G08G26G11G28
 -10961500.84448  -8529234.75046  22010827.1724                   22010826.4454
 -11337350.05947  -8825190.01645  22037452.0004                   22037451.2934
  -3502407.87148  -2717709.69146  20752202.0704                   20752200.3874
 -15752314.66048 -12260612.16846  20110341.2034                   20110339.3874
  -3072822.27747  -2383959.90644  22937370.5784                   22937369.6604
  -9800623.87947  -7621505.34045  21773591.1954                   21773588.9694
  -9320256.34847  -7253927.30546  21961700.2424                   21961698.0164
 11  8 22 19  1  0.0000000  0  7G17G24G07G08G26G11G28
 -11056196.28548  -8603023.35946  21992807.1644                   21992806.2154
 -11379766.57047  -8858241.84045  22029379.5234                   22029379.4804
  -3486902.64548  -2705627.73046  20755152.6804                   20755151.0084
 -15796962.07848 -12295402.36746  20101845.3444                   20101843.4184
  -3124505.64546  -2424232.66844  22927535.9774                   22927535.3594
  -9796476.62147  -7618273.72345  21774380.7894                   21774378.3404
  -9371901.01648  -7294169.90246  21951872.6564                   21951870.3594
 11  8 22 19  1 30.0000000  0  7G17G24G07G08G26G11G28
 -11150539.46948  -8676537.48046  21974854.7504                   21974853.6914
 -11421649.75047  -8890878.06645  22021409.7584                   22021409.6884
  -3470911.48448  -2693167.12946  20758195.6414                   20758193.7624
 -15841103.59448 -12329798.35946  20093445.1724                   20093443.3244
  -3175589.82846  -2464038.52044  22917814.0704                   22917814.3914
  -9791767.44948  -7614604.25045  21775276.4844                   21775274.5474
  -9423523.07848  -7334394.89146  21942049.4614                   21942047.2814
 11  8 22 19  2  0.0000000  0  7G17G24G07G08G26G11G28
 -11244527.78948  -8749775.08646  21956968.9534                   21956968.1134
 -11462996.16847  -8923096.02745  22013541.8364                   22013541.4884
  -3454433.06248  -2680326.84846  20761331.2664                   20761329.5164
 -15884735.36748 -12363797.15646  20085142.3524                   20085140.8014
  -3226072.46946  -2503375.64144  22908207.6254                   22908207.7464
  -9786495.65248  -7610496.34845  21776279.9064                   21776277.6844
  -9475120.95348  -7374601.02046  21932230.8984                   21932228.3054
 11  8 22 19  2 30.0000000  0  7G17G24G07G08G26G11G28
 -11338160.33248  -8822735.44946  21939151.2034                   21939149.8794
 -11503804.47347  -8954894.69145  22005775.9844                   22005775.8634
  -3437467.09848  -2667106.65246  20764560.0394                   20764558.0164
 -15927855.07048 -12397396.93046  20076937.3284                   20076935.0124
  -3275953.04746  -2542243.62544  22898715.9774                   22898715.7304
  -9780660.90248  -7605949.80545  21777390.0234                   21777387.8284
  -9526694.16048  -7414787.93446  21922416.5704                   21922414.3874
 11  8 22 19  3  0.0000000  0  7G17G24G07G08G26G11G28
 -11431437.81648  -8895419.15246  21921401.0314                   21921400.1994
 -11544074.98847  -8986274.29745  21998112.9064                   21998112.6604
  -3420015.33648  -2653507.92246  20767881.3134                   20767878.9774
 -15970462.81248 -12430597.78546  20068828.8754                   20068827.2074
  -3325233.09447  -2580643.67244  22889338.0084                   22889338.1724
  -9774266.35248  -7600967.05145  21778607.0704                   21778604.7544
  -9578244.32448  -7454956.88746  21912607.1174                   21912604.9304
 11  8 22 19  3 30.0000000  0  7G17G24G07G08G26G11G28
 -11524357.74247  -8967824.23846  21903718.5704                   21903717.6134
 -11583804.91448  -9017232.66845  21990552.7034                   21990552.1884
  -3402076.81648  -2639529.89846  20771294.4534                   20771292.6564
 -16012554.64848 -12463396.63746  20060819.1564                   20060817.2734
  -3373910.86747  -2618574.41444  22880074.6804                   22880075.1604
  -9767311.68447  -7595547.83645  21779930.5164                   21779928.0474
  -9629770.23448  -7495106.93446  21902801.7974                   21902799.5204
 11  8 22 19  4  0.0000000  0  7G17G24G07G08G26G11G28
 -11616921.23447  -9039951.57846  21886104.3674                   21886103.4654
 -11622994.49647  -9047769.98045  21983095.0004                   21983094.5594
  -3383653.60248  -2625174.19946  20774800.4144                   20774798.6484
 -16054130.64148 -12495793.52346  20052907.4694                   20052905.8054
  -3421987.41847  -2656036.66044  22870926.3364                   22870926.5124
  -9759799.42647  -7589694.13745  21781360.1094                   21781357.7814
  -9681273.53948  -7535239.37546  21893001.0314                   21892998.9184
 11  8 22 19  4 30.0000000  0  7G17G24G07G08G26G11G28
 -11709126.00448  -9111799.39846  21868558.2274                   21868557.5594
 -11661641.03548  -9077884.15645  21975740.6334                   21975739.9964
  -3364744.54748  -2610439.91046  20778398.6804                   20778396.8714
 -16095187.69948 -12527786.06246  20045095.0314                   20045093.2704
  -3469461.29347  -2693029.29344  22861892.1884                   22861892.7624
  -9751728.75048  -7583405.31245  21782895.8054                   21782893.6294
  -9732752.95748  -7575353.20346  21883204.9844                   21883202.6414
 11  8 22 19  5  0.0000000  0  7G17G24G07G08G26G11G28
 -11800973.00448  -9183368.43746  21851080.6414                   21851079.4734
 -11699745.09847  -9107575.62145  21968489.9384                   21968489.4384
  -3345351.68448  -2595328.63346  20782089.2814                   20782087.4024
 -16135725.79748 -12559374.19946  20037380.5164                   20037378.9024
  -3516333.78546  -2729553.32044  22852973.0944                   22852972.9964
  -9743102.37147  -7576683.48045  21784537.4694                   21784535.5784
  -9784210.12148  -7615449.68746  21873412.9304                   21873410.9694
 11  8 22 19  5 30.0000000  0  7G17G24G07G08G26G11G28
 -11892459.41448  -9254656.50046  21833671.2664                   21833670.0354
 -11737303.53947  -9136841.93045  21961342.6414                   21961342.3714
  -3325473.41448  -2579839.11746  20785872.1174                   20785870.0864
 -16175741.25848 -12590555.09846  20029765.8524                   20029764.1254
  -3562602.94146  -2765607.20344  22844167.9144                   22844167.9734
  -9733919.08247  -7569527.67645  21786284.8364                   21786282.7934
  -9835642.84848  -7655527.12146  21863625.7194                   21863623.1914
 11  8 22 19  6  0.0000000  0  7G17G24G07G08G26G11G28
 -11983585.53948  -9325663.81646  21816330.3984                   21816329.5434
 -11774316.15247  -9165682.93045  21954299.2424                   21954299.4344
  -3305111.18048  -2563972.48446  20789746.6804                   20789744.9104
 -16215233.23048 -12621328.08246  20022250.7894                   20022248.9654
  -3608269.60246  -2801191.62544  22835478.0084                   22835477.9184
  -9724181.14547  -7561939.69145  21788138.1954                   21788135.7774
  -9887052.34848  -7695586.46946  21853842.8444                   21853840.3914
 11  8 22 19  6 30.0000000  0  7G17G24G07G08G26G11G28
 -12074347.52047  -9396387.39546  21799059.3444                   21799058.1294
 -11810778.64147  -9194095.26245  21947360.5704                   21947360.4884
  -3284262.07848  -2547726.47746  20793714.1174                   20793712.2504
 -16254196.53948 -12651689.12146  20014836.3674                   20014834.7234
  -3653330.50047  -2836304.02744  22826903.1254                   22826903.1844
  -9713886.34447  -7553917.78545  21790096.7814                   21790094.9184
  -9938435.43448  -7735625.23046  21844064.8984                   21844062.1724
 11  8 22 19  7  0.0000000  0  7G17G24G07G08G26G11G28
 -12164745.16047  -9466827.05946  21781857.0704                   21781855.7664
 -11846690.28947  -9222078.35945  21940527.2504                   21940526.6804
  -3262927.48848  -2531102.16446  20797774.0474                   20797772.1764
 -16292630.09048 -12681637.35546  20007522.6564                   20007520.8874
  -3697786.11347  -2870944.76244  22818444.0004                   22818443.3874
  -9703036.42648  -7545463.33245  21792161.7894                   21792159.3954
  -9989792.78148  -7775643.93746  21834291.8444                   21834289.7774
 11  8 22 19  7 30.0000000  0  7G17G24G07G08G26G11G28
 -12254776.59048  -9536981.37146  21764724.6174                   21764723.5864
 -11882048.80147  -9249630.43745  21933798.5084                   21933798.1844
  -3241106.48048  -2514098.83246  20801926.7974                   20801924.6254
 -16330530.84448 -12711170.42646  20000310.6254                   20000308.5944
  -3741635.06647  -2905112.79744  22810099.6884                   22810099.1484
  -9691631.27347  -7536576.20745  21794332.3204                   21794329.7544
 -10041123.00848  -7815641.50446  21824523.8054                   21824521.8524
 11  8 22 19  8  0.0000000  0  7G17G24G07G08G26G11G28
 -12344441.48047  -9606850.05946  21747661.5864                   21747660.8484
 -11916853.40247  -9276750.91045  21927175.5704                   21927174.9264
  -3218799.60548  -2496716.90246  20806171.4774                   20806169.8594
 -16367897.10548 -12740287.01246  19993200.2504                   19993198.1414
  -3784877.50847  -2938808.23044  22801871.5474                   22801870.9024
  -9679672.05148  -7527257.34845  21796607.6804                   21796605.8874
 -10092426.25448  -7855618.05146  21814761.3134                   21814758.8874
 11  8 22 19  8 30.0000000  0  7G17G24G07G08G26G11G28
 -12433738.30947  -9676431.96146  21730669.2584                   21730668.1024
 -11951102.61747  -9303438.59845  21920657.8594                   21920658.0314
  -3196007.11348  -2478956.55546  20810508.8364                   20810507.1844
 -16404727.11348 -12768985.73447  19986191.3134                   19986189.7114
  -3827513.09847  -2972030.77744  22793757.7584                   22793756.9414
  -9667159.39848  -7517507.24245  21798988.6724                   21798986.7234
 -10143701.99248  -7895573.17246  21805004.2034                   21805001.6524
 11  8 22 19  9  0.0000000  0  7G17G24G07G08G26G11G28
 -12522668.81648  -9745728.40646  21713746.2894                   21713745.2154
 -11984797.53547  -9329694.37945  21914246.0864                   21914245.7034
  -3172731.48448  -2460819.75446  20814937.6884                   20814936.2704
 -16441021.11348 -12797266.80146  19979284.8054                   19979283.0514
  -3869543.81247  -3004781.99644  22785759.3674                   22785759.3674
  -9654096.27348  -7507328.19545  21801474.5394                   21801472.7814
 -10194952.36748  -7935508.52346  21795251.5084                   21795248.8674
 11  8 22 19  9 30.0000000  0  7G17G24G07G08G26G11G28
 -12611233.85947  -9814740.07446  21696892.3914                   21696891.6604
 -12017938.93447  -9355518.84845  21907939.5704                   21907939.0164
  -3148975.10248  -2442308.34046  20819458.6414                   20819456.9264
 -16476779.71148 -12825130.66046  19972480.6254                   19972478.7974
  -3910971.50447  -3037063.31644  22777876.3444                   22777875.7504
  -9640485.76648  -7496722.61345  21804064.8364                   21804062.4184
 -10246179.07048  -7975425.43746  21785503.1254                   21785500.7384
 11  8 22 19 10  0.0000000  0  7G17G24G07G08G26G11G28
 -12699433.27047  -9883466.84446  21680108.6644                   21680107.8444
 -12050525.87547  -9380911.27045  21901738.0944                   21901737.9774
  -3124738.81648  -2423422.96946  20824070.6804                   20824068.9574
 -16512001.19548 -12852575.99646  19965777.7504                   19965775.9654
  -3951796.43747  -3068874.95744  22770107.5164                   22770106.9734
  -9626329.20348  -7485691.53945  21806758.8984                   21806756.8714
 -10297382.02048  -8015323.84046  21775759.7344                   21775757.3014
 11  8 22 19 10 30.0000000  0  7G17G24G07G08G26G11G28
 -12787267.51647  -9951909.06646  21663394.7734                   21663393.7114
 -12082558.34447  -9405871.62945  21895642.7894                   21895642.6254
  -3100023.69548  -2404164.47746  20828773.7274                   20828772.0704
 -16546684.96148 -12879602.32446  19959177.8054                   19959176.2424
  -3992019.59447  -3100217.69144  22762453.0864                   22762452.7704
  -9611628.96548  -7474236.80945  21809555.9534                   21809553.7704
 -10348562.02748  -8055204.36346  21766020.4304                   21766017.9614
 11  8 22 19 11  0.0000000  0  7G17G24G07G08G26G11G28
 -12874736.84847 -10020066.94146  21646749.6414                   21646748.4884
 -12114036.26247  -9430399.86345  21889652.4844                   21889652.3874
  -3074831.71948  -2384534.41446  20833567.6804                   20833566.1094
 -16580829.95748 -12906208.84046  19952680.3834                   19952678.4024
  -4031642.16047  -3131092.43444  22754912.8594                   22754912.5904
  -9596387.07448  -7462360.01645  21812456.4384                   21812454.3244
 -10399720.52048  -8095068.12546  21756285.4454                   21756283.1644
 11  8 22 19 11 30.0000000  0  7G17G24G07G08G26G11G28
 -12961840.50048 -10087939.86746  21630174.5084                   21630173.1334
 -12144958.84447  -9454495.37945  21883768.2194                   21883767.9924
  -3049163.40247  -2364533.18446  20838452.1094                   20838450.5354
 -16614435.01648 -12932394.61746  19946285.5704                   19946283.5944
  -4070664.42647  -3161499.40244  22747487.2664                   22747486.9494
  -9580604.70348  -7450062.08245  21815459.8134                   21815457.5084
 -10450857.04748  -8134914.76246  21746554.4844                   21746551.7114
 11  8 22 19 12  0.0000000  0  7G17G24G07G08G26G11G28
 -13048579.19548 -10155528.41846  21613668.5234                   21613667.4494
 -12175326.53147  -9478158.51245  21877989.1254                   21877989.3164
  -3023020.68448  -2344162.28146  20843427.3834                   20843425.1724
 -16647499.64848 -12958159.28546  19939993.3444                   19939991.4774
  -4109087.66847  -3191439.60944  22740176.0634                   22740175.0944
  -9564284.48048  -7437345.04345  21818565.2034                   21818562.9654
 -10501972.77348  -8174745.19546  21736827.2894                   21736824.9384
 11  8 22 19 12 30.0000000  0  7G17G24G07G08G26G11G28
 -13134953.57848 -10222833.09046  21597232.1804                   21597231.2194
 -12205139.73847  -9501389.57845  21872315.9534                   21872316.0824
  -2996405.67647  -2323423.36346  20848491.8364                   20848490.4104
 -16680023.67248 -12983502.69946  19933804.4694                   19933802.6484
  -4146913.43047  -3220914.23444  22732977.6954                   22732977.3914
  -9547429.07048  -7424210.97345  21821773.0164                   21821770.4774
 -10553068.96148  -8214560.41446  21727103.7504                   21727101.6844
 11  8 22 19 13  0.0000000  0  7G17G24G07G08G26G11G28
 -13220963.77348 -10289853.98046  21580864.7894                   21580863.8594
 -12234397.99247  -9524188.21545  21866748.5004                   21866748.4844
  -2969318.97347  -2302316.89146  20853646.4144                   20853644.8834
 -16712005.70748 -13008423.78546  19927718.7584                   19927716.6094
  -4184142.05947  -3249923.57844  22725893.2504                   22725893.0234
  -9530039.71548  -7410660.84845  21825081.9454                   21825079.5744
 -10604145.28948  -8254360.14546  21717384.5394                   21717381.8634
 11  8 22 19 13 30.0000000  0  7G17G24G07G08G26G11G28
 -13306610.12547 -10356591.34846  21564566.7584                   21564565.5904
 -12263101.85247  -9546554.85945  21861285.9924                   21861286.4184
  -2941762.79747  -2280844.59846  20858890.2664                   20858888.6684
 -16743445.86748 -13032922.62946  19921735.4224                   19921734.0164
  -4220775.42247  -3278469.06644  22718922.4224                   22718921.4844
  -9512119.42248  -7396697.00845  21828492.0234                   21828490.0204
 -10655203.31648  -8294145.62546  21707668.3524                   21707666.1414
 11  8 22 19 14  0.0000000  0  7G17G24G07G08G26G11G28
 -13391892.90648 -10423045.41446  21548337.8524                   21548336.8134
 -12291250.89147  -9568489.17245  21855929.5004                   21855929.7194
  -2913738.37147  -2259007.43746  20864223.0164                   20864221.3754
 -16774343.15647 -13056998.45746  19915855.9774                   19915854.2464
  -4256814.52747  -3306551.48044  22712064.1024                   22712064.0234
  -9493670.13347  -7382320.96545  21832002.9534                   21832000.7034
 -10706243.42648  -8333917.14146  21697955.9144                   21697953.5274
 11  8 22 19 14 30.0000000  0  7G17G24G07G08G26G11G28
 -13476808.94548 -10489213.71146  21532178.8594                   21532177.8954
 -12318841.64147  -9589988.44945  21850679.4304                   21850679.4534
  -2885243.87547  -2236803.98446  20869645.5634                   20869643.7194
 -16804693.47748 -13080648.06646  19910080.2814                   19910078.7974
  -4292256.87147  -3334168.91044  22705319.9304                   22705319.4734
  -9474690.28948  -7367531.51245  21835614.6254                   21835612.7504
 -10757262.98848  -8373672.63746  21688246.8594                   21688244.8204
 11  8 22 19 15  0.0000000  0  7G17G24G07G08G26G11G28
 -13561361.12948 -10555098.48446  21516089.1724                   21516088.0784
 -12345876.85247  -9611054.84845  21845534.6254                   21845534.4184
  -2856283.25847  -2214237.31646  20875156.3284                   20875154.5984
 -16834498.79347 -13103873.01246  19904408.7034                   19904407.1134
  -4327105.71547  -3361323.88344  22698688.1254                   22698688.3134
  -9455184.48848  -7352332.21545  21839326.8284                   21839324.4454
 -10808264.89548  -8413414.37946  21678541.8524                   21678539.0634
 11  8 22 19 15 30.0000000  0  7G17G24G07G08G26G11G28
 -13645548.44548 -10620698.95346  21500068.8364                   21500067.7664
 -12372355.49247  -9631687.55545  21840496.0314                   21840495.9184
  -2826856.91847  -2191307.75446  20880755.9924                   20880754.7234
 -16863757.57047 -13126672.08646  19898841.0554                   19898839.4454
  -4361361.73447  -3388016.89144  22692169.8914                   22692169.0124
  -9435154.08248  -7336724.13345  21843138.2274                   21843135.9024
 -10859248.66448  -8453141.99246  21668839.7114                   21668837.4964
 11  8 22 19 16  0.0000000  0  7G17G24G07G08G26G11G28
 -13729368.61348 -10686013.33646  21484118.0634                   21484116.7114
 -12398274.60947  -9651884.26245  21835564.2504                   21835563.6334
  -2796963.71147  -2168014.39846  20886444.5084                   20886443.1414
 -16892466.10247 -13149042.37946  19893378.0554                   19893376.1524
  -4395022.77747  -3414246.29744  22685763.8594                   22685763.4384
  -9414598.21548  -7320706.61745  21847050.2344                   21847047.9734
 -10910212.02348  -8492853.69946  21659141.7194                   21659139.6954
 11  8 22 19 16 30.0000000  0  7G17G24G07G08G26G11G28
 -13812821.49248 -10751041.51646  21468237.5084                   21468236.5944
 -12423634.34047  -9671645.09445  21830738.2664                   21830738.1764
  -2766604.66047  -2144358.04746  20892222.2034                   20892220.4534
 -16920623.41448 -13170983.16846  19888019.9224                   19888018.6484
  -4428089.94547  -3440012.94544  22679471.8984                   22679470.9024
  -9393518.93748  -7304281.23045  21851061.2344                   21851058.9924
 -10961155.49248  -8532549.89846  21649447.5004                   21649445.3554
 11  8 22 19 17  0.0000000  0  7G17G24G07G08G26G11G28
 -13895905.77347 -10815782.47346  21452427.2584                   21452425.9924
 -12448433.21547  -9690968.88745  21826019.0394                   21826018.7544
  -2735779.93748  -2120338.83646  20898087.5394                   20898086.1294
 -16948227.48447 -13192492.85946  19882767.2424                   19882764.9804
  -4460562.93447  -3465316.61344  22673292.5164                   22673291.6214
  -9371916.62148  -7287448.28145  21855172.2114                   21855169.9774
 -11012077.53948  -8572229.41046  21639757.5474                   21639754.9384
 11  8 22 19 17 30.0000000  0  7G17G24G07G08G26G11G28
 -13978622.22747 -10880236.82446  21436686.5704                   21436685.6454
 -12472671.61747  -9709855.94545  21821406.8054                   21821406.1024
  -2704491.60247  -2095958.37146  20904041.8284                   20904040.1684
 -16975278.11748 -13213571.29346  19877619.7034                   19877617.9144
  -4492443.19147  -3490158.39144  22667225.6884                   22667225.0084
  -9349793.88748  -7270209.82445  21859381.7424                   21859379.6374
 -11062979.24648  -8611893.08646  21630071.3524                   21630069.1254
 11  8 22 19 18  0.0000000  0  7G17G24G07G08G26G11G28
 -14060968.41447 -10944402.65246  21421017.1024                   21421015.5944
 -12496346.88747  -9728304.19545  21816901.2504                   21816901.3554
  -2672738.23847  -2071215.53946  20910083.8204                   20910082.4694
 -17001771.80548 -13234215.75046  19872578.2974                   19872576.4224
  -4523729.11747  -3514537.07444  22661273.1094                   22661271.6374
  -9327150.25447  -7252565.46145  21863691.1254                   21863688.8874
 -11113858.33648  -8651539.12546  21620389.2424                   21620386.7544
 11  8 22 19 18 30.0000000  0  7G17G24G07G08G26G11G28
 -14142946.59447 -11008281.71946  21405416.9144                   21405415.9844
 -12519461.18447  -9746315.32845  21812502.7814                   21812502.6764
  -2640523.75847  -2046113.40246  20916214.3444                   20916212.9454
 -17027709.99248 -13254427.34846  19867642.1484                   19867640.5044
  -4554424.22747  -3538455.36744  22655431.1024                   22655431.1334
  -9303990.09048  -7234518.60945  21868098.5784                   21868096.0904
 -11164717.59047  -8691169.71146  21610711.2114                   21610708.6954
 11  8 22 19 19  0.0000000  0  7G17G24G07G08G26G11G28
 -14224557.70747 -11071874.75846  21389886.6024                   21389885.9494
 -12542015.42247  -9763890.05945  21808210.6174                   21808210.5004
  -2607850.13347  -2020653.48846  20922432.1644                   20922430.6374
 -17053092.79747 -13274206.17646  19862812.2734                   19862810.5084
  -4584530.24647  -3561914.62544  22649702.4064                   22649702.2814
  -9280316.27347  -7216071.50045  21872603.0554                   21872600.9964
 -11215557.53947  -8730785.26246  21601036.6724                   21601034.2154
 11  8 22 19 19 30.0000000  0  7G17G24G07G08G26G11G28
 -12730377.18747  -9907578.21146  21674219.7194                   21674218.7894
 -10988587.00447  -8553426.35545  22103818.1564                   22103818.0904
   -999298.14547   -767236.41046  21228529.5634                   21228528.0984
 -15502496.66048 -12065949.47346  20157880.6024                   20157879.0234
  -3038625.52347  -2357313.56644  22943878.2734                   22943878.4964
  -7680709.66848  -5969624.82045  22176998.2664                   22176995.6294
  -9690955.34847  -7542783.55546  21891158.5314                   21891156.0904
 11  8 22 19 20  0.0000000  0  7G17G24G07G08G26G11G28
 -12811255.93448  -9970600.57046  21658829.3364                   21658827.9844
 -11010022.26247  -8570129.14845  22099739.3594                   22099739.1914
   -965712.12548   -741065.53946  21234920.8134                   21234919.1644
 -15526767.86348 -12084862.12546  20153262.1334                   20153260.1294
  -3067558.19947  -2379858.53144  22938372.7274                   22938372.3014
  -7656015.69147  -5950382.80145  22181697.4924                   22181695.1374
  -9741759.43048  -7582371.15646  21881491.0864                   21881488.6254
 11  8 22 19 20 30.0000000  0  7G17G24G07G08G26G11G28
 -12891769.85547 -10033338.66046  21643507.5554                   21643506.7154
 -11030899.26647  -8586396.94545  22095766.6804                   22095766.8284
   -931672.86748   -714541.48446  21241398.0554                   21241396.7154
 -15550483.52348 -12103341.88346  20148749.1174                   20148747.4064
  -3095907.00047  -2401948.52344  22932977.9924                   22932978.0824
  -7630815.84847  -5930746.58245  22186492.6644                   22186490.5314
  -9792546.82047  -7621945.75046  21871826.5314                   21871824.0204
 11  8 22 19 21  0.0000000  0  7G17G24G07G08G26G11G28
 -12971919.38747 -10095792.80546  21628255.8834                   21628255.0204
 -11051218.25447  -8602229.92645  22091900.1884                   22091900.2114
   -897182.34047   -687665.80146  21247961.4694                   21247959.9844
 -15573642.95748 -12121388.21946  20144342.0554                   20144340.1994
  -3123673.14547  -2423584.49244  22927694.2274                   22927693.7384
  -7605112.51247  -5910718.03545  22191383.9384                   22191381.5784
  -9843318.10947  -7661507.79346  21862165.0004                   21862162.7344
 11  8 22 19 21 30.0000000  0  7G17G24G07G08G26G11G28
 -13051702.35547 -10157961.31246  21613073.6564                   21613072.4774
 -11070977.15647  -8617626.46945  22088140.1884                   22088139.7974
   -862239.64848   -660437.78946  21254610.6484                   21254609.3594
 -15596243.55948 -12138999.10946  20140041.0944                   20140039.7774
  -3150855.89847  -2444765.87944  22922521.5784                   22922520.8984
  -7578905.57047  -5890297.06645  22196370.9304                   22196368.3754
  -9894071.33247  -7701055.76246  21852506.8054                   21852504.6564
 11  8 22 19 22  0.0000000  0  7G17G24G07G08G26G11G28
 -13131116.73847 -10219842.61746  21597961.6804                   21597960.5944
 -11090173.85947  -8632584.94945  22084487.4614                   22084486.9414
   -826844.23448   -632857.00846  21261346.5704                   21261344.8554
 -15618282.13748 -12156172.04346  20135847.6564                   20135845.5124
  -3177454.15247  -2465491.79744  22917460.3134                   22917459.5664
  -7552195.00047  -5869483.66045  22201453.7814                   22201451.4694
  -9944804.24647  -7740587.91046  21842853.1334                   21842850.4804
 11  8 22 19 22 30.0000000  0  7G17G24G07G08G26G11G28
 -13210160.01247 -10281434.73446  21582920.1254                   21582919.2384
 -11108805.72347  -8647103.28945  22080941.9304                   22080941.4224
   -790994.89548   -604922.51646  21268168.2974                   21268166.9264
 -15639755.36348 -12172904.44946  20131761.1254                   20131759.5744
  -3203466.47746  -2485761.16844  22912510.0314                   22912509.7114
  -7524980.41848  -5848277.52345  22206632.6804                   22206630.3524
  -9995514.55148  -7780102.43446  21833202.9614                   21833200.6134
 11  8 22 19 23  0.0000000  0  7G17G24G07G08G26G11G28
 -13288828.82847 -10342735.07446  21567950.1954                   21567949.1174
 -11126869.18447  -8661178.72745  22077504.2034                   22077504.0164
   -754689.40248   -576632.57446  21275077.2974                   21275075.8404
 -15660659.18448 -12189193.16846  20127783.5944                   20127781.9734
  -3228890.56246  -2505572.16444  22907671.9454                   22907672.1884
  -7497260.09447  -5826677.28945  22211907.3834                   22211905.4304
 -10046198.44948  -7819596.38346  21823558.0944                   21823555.6844
 11  8 22 19 23 30.0000000  0  7G17G24G07G08G26G11G28
 -13367120.52047 -10403741.55546  21553051.3524                   21553050.4224
 -11144361.62947  -8674809.22345  22074175.7114                   22074175.3444
   -717926.53148   -547986.23846  21282072.9694                   21282071.7034
 -15680990.16048 -12205035.50846  20123914.6484                   20123912.8754
  -3253724.73846  -2524923.48844  22902946.0704                   22902945.9344
  -7469033.39148  -5804682.48445  22217278.9694                   22217276.8674
 -10096853.32848  -7859067.72346  21813919.1804                   21813916.7034
 11  8 22 19 24  0.0000000  0  7G17G24G07G08G26G11G28
 -13445029.93447 -10464450.15246  21538225.4924                   21538224.8014
 -11161277.94147  -8687990.77345  22070956.5864                   22070956.2074
   -680702.34047   -518980.42246  21289156.4454                   21289154.8754
 -15700742.15648 -12220426.69546  20120155.8984                   20120154.5744
  -3277964.66447  -2543811.76244  22898333.5004                   22898333.1844
  -7440296.78147  -5782290.34845  22222747.2814                   22222745.1334
 -10147473.56248  -7898512.05946  21804286.1954                   21804283.7504
 11  8 22 19 24 30.0000000  0  7G17G24G07G08G26G11G28
 -13522556.17247 -10524860.18046  21523473.3984                   21523471.8794
 -11177617.09047  -8700722.58245  22067847.5314                   22067846.8204
   -643017.19547   -489615.43046  21296327.7584                   21296326.3754
 -15719913.81248 -12235365.66846  20116507.7734                   20116506.1134
  -3301610.69946  -2562237.27044  22893833.6484                   22893833.4924
  -7411051.46947  -5759501.82445  22228312.6724                   22228310.4734
 -10198058.52747  -7937928.91446  21794660.3284                   21794657.7034
 11  8 22 19 25  0.0000000  0  7G17G24G07G08G26G11G28
 -13599696.95347 -10584969.83646  21508793.6334                   21508792.4304
 -11193377.12547  -8713003.14145  22064848.6884                   22064848.2704
   -604870.38347   -459890.69946  21303587.1024                   21303585.3834
 -15738502.23048 -12249850.17646  20112970.1884                   20112968.5784
  -3324662.13347  -2580199.44944  22889447.5084                   22889447.0824
  -7381297.73847  -5736317.12545  22233974.5784                   22233972.1724
 -10248606.02047  -7977316.57446  21785041.2424                   21785038.7894
 11  8 22 19 25 30.0000000  0  7G17G24G07G08G26G11G28
 -13676453.60247 -10644780.17646  21494186.8594                   21494186.0864
 -11208558.88347  -8724833.08245  22061959.4384                   22061958.8834
   -566264.14847   -429807.96946  21310933.3284                   21310931.9774
 -15756507.68048 -12263880.41446  20109544.2114                   20109542.3834
  -3347120.95746  -2597699.85944  22885173.5554                   22885173.0594
  -7351037.78547  -5712737.96945  22239733.0474                   22239730.5164
 -10299116.78147  -8016675.61346  21775429.2424                   21775427.2034
 11  8 22 19 26  0.0000000  0  7G17G24G07G08G26G11G28
 -13752824.73847 -10704290.12546  21479654.2344                   21479653.4264
 -11223161.19947  -8736211.52745  22059181.0864                   22059179.9384
   -527198.62148   -399367.35546  21318367.1644                   21318365.8524
 -15773928.12948 -12277454.81246  20106229.4144                   20106227.3834
  -3368986.93046  -2614738.30544  22881012.8984                   22881012.2854
  -7320272.61747  -5688765.14545  22245587.1564                   22245585.2584
 -10349589.35248  -8056004.89146  21765824.8134                   21765822.5164
 11  8 22 19 26 30.0000000  0  7G17G24G07G08G26G11G28
 -13828815.66047 -10763503.79346  21465193.7504                   21465192.7624
 -11237189.87547  -8747142.97745  22056510.9224                   22056510.8834
   -487680.94547   -368574.41446  21325887.4304                   21325886.0514
 -15790768.36348 -12290577.09446  20103024.3284                   20103022.8204
  -3390266.96147  -2631320.15644  22876963.1954                   22876962.8404
  -7289010.30547  -5664404.93445  22251536.0314                   22251534.4104
 -10400029.13347  -8095308.62146  21756226.6414                   21756223.8954
 11  8 22 19 27  0.0000000  0  7G17G24G07G08G26G11G28
 -13904430.43748 -10822424.36346  21450804.5944                   21450803.4534
 -11250648.58647  -8757630.30145  22053949.9774                   22053949.5824
   -447716.21547   -337433.12146  21333492.3674                   21333491.3674
 -15807031.06248 -12303249.34846  20099929.8524                   20099927.9454
  -3410965.85247  -2647449.18444  22873024.7034                   22873024.8324
  -7257256.19547  -5639661.50045  22257578.7504                   22257576.9224
 -10450439.53548  -8134589.46146  21746633.7504                   21746631.1524
 11  8 22 19 27 30.0000000  0  7G17G24G07G08G26G11G28
 -13979668.69548 -10881051.54746  21436487.1024                   21436486.1094
 -11263536.95347  -8767673.18745  22051497.0314                   22051497.2734
   -407305.28147   -305944.14146  21341182.9614                   21341181.1884
 -15822715.80948 -12315471.25846  20096945.1414                   20096943.2304
  -3431084.33647  -2663125.94944  22869196.3984                   22869196.3984
  -7225011.95747  -5614536.16045  22263714.8674                   22263713.0044
 -10500819.86747  -8173846.86746  21737046.6804                   21737044.1764
 11  8 22 19 28  0.0000000  0  7G17G24G07G08G26G11G28
 -14054530.99248 -10939385.77346  21422241.3754                   21422240.2894
 -11275855.54747  -8777272.10245  22049153.2424                   22049152.6804
   -366449.94547   -274108.87146  21348957.4844                   21348955.8834
 -15837822.45748 -12327242.69146  20094070.5944                   20094068.8134
  -3450624.19546  -2678351.83244  22865477.3204                   22865477.6764
  -7192279.91847  -5589030.71945  22269943.2504                   22269941.4844
 -10551170.08647  -8213080.80546  21727465.4614                   21727462.9924
 11  8 22 19 28 30.0000000  0  7G17G24G07G08G26G11G28
 -14129017.30548 -10997427.02746  21408067.0634                   21408065.7624
 -11287604.80547  -8786427.37145  22046917.3984                   22046917.2234
   -325152.15647   -241928.83246  21356816.2664                   21356814.4534
 -15852350.21148 -12338563.04746  20091305.9844                   20091304.3794
  -3469587.15246  -2693128.18744  22861869.3524                   22861868.5474
  -7159062.42647  -5563146.99645  22276264.3364                   22276262.3794
 -10601490.70747  -8252291.69546  21717889.5314                   21717887.1254
 11  8 22 19 29  0.0000000  0  7G17G24G07G08G26G11G28
 -14203128.69948 -11055176.13346  21393964.0314                   21393962.7704
 -11298785.62147  -8795139.69945  22044790.2814                   22044789.5434
   -283413.89847   -209405.57046  21364758.3594                   21364756.8984
 -15866299.34448 -12349432.52746  20088651.6024                   20088650.0634
  -3487975.14546  -2707456.52744  22858370.3984                   22858370.1054
  -7125362.27747  -5536887.18745  22282677.5474                   22282675.7464
 -10651782.11347  -8291479.80146  21708319.4534                   21708317.1884
 11  8 22 19 29 30.0000000  0  7G17G24G07G08G26G11G28
 -14276869.03548 -11112636.10246  21379931.7274                   21379930.1804
 -11309401.75847  -8803412.02745  22042769.6954                   22042769.7934
   -241239.89848   -176542.76646  21372783.9694                   21372782.6604
 -15879673.04748 -12359853.62146  20086106.5634                   20086104.9494
  -3505792.88746  -2721340.50844  22854979.8284                   22854979.6054
  -7091185.16047  -5510255.69945  22289181.0234                   22289179.1134
 -10702047.41848  -8330647.57046  21698754.2344                   21698751.8404
 11  8 22 19 30  0.0000000  0  7G17G24G07G08G26G11G28
 -14350237.76247 -11169806.51246  21365969.9064                   21365969.0394
 -11319453.18748  -8811244.32845  22040856.9774                   22040856.6644
   -198631.69548   -143341.62146  21380892.3204                   21380890.7384
 -15892470.27748 -12369825.52046  20083671.2114                   20083669.9844
  -3523041.61346  -2734781.10544  22851697.4614                   22851696.9384
  -7056532.95747  -5483254.01645  22295775.6024                   22295773.4184
 -10752285.87948  -8369794.43446  21689194.1564                   21689191.6724
 11  8 22 19 30 30.0000000  0  7G17G24G07G08G26G11G28
 -14423238.11748 -11226689.88346  21352078.4144                   21352077.1604
 -11328943.23047  -8818639.18045  22039051.0314                   22039050.9064
   -155593.60548   -109805.50446  21389082.0634                   21389080.6054
 -15904693.71548 -12379350.30146  20081345.4694                   20081343.9774
  -3539725.61747  -2747781.65644  22848522.8524                   22848521.7384
  -7021410.67647  -5455886.04345  22302458.7664                   22302457.1524
 -10802500.71948  -8408922.88346  21679638.6884                   21679636.0784
 11  8 22 19 31  0.0000000  0  7G17G24G07G08G26G11G28
 -14495869.76647 -11283285.93746  21338257.0784                   21338255.9494
 -11337871.73847  -8825596.47745  22037352.0234                   22037351.7034
   -112126.81248    -75935.33646  21397353.5314                   21397351.9734
 -15916342.16848 -12388427.04746  20079128.5944                   20079127.3714
  -3555845.75847  -2760342.82044  22845454.6804                   22845454.5204
  -6985819.91447  -5428153.02745  22309232.0164                   22309229.7664
 -10852690.81248  -8448032.04746  21670088.1094                   21670085.3524
 11  8 22 19 31 30.0000000  0  7G17G24G07G08G26G11G28
 -14568134.66847 -11339596.21946  21324505.5634                   21324504.5164
 -11346240.67647  -8832117.73845  22035759.4144                   22035758.9184
    -68234.54748    -41733.62946  21405706.0004                   21405704.8134
 -15927416.91448 -12397056.75046  20077021.3204                   20077019.8284
  -3571405.27347  -2772467.16444  22842493.9304                   22842493.3714
  -6949764.45747  -5400057.89845  22316093.0784                   22316091.3554
 -10902857.57448  -8487123.02746  21660541.1884                   21660538.5554
 11  8 22 19 32  0.0000000  0  7G17G24G07G08G26G11G28
 -14640034.80947 -11395622.27346  21310823.5004                   21310822.3594
 -11354051.97347  -8838204.48445  22034272.8054                   22034272.8484
    -23920.10948     -7202.94946  21414138.7734                   21414137.5824
 -15937919.28148 -12405240.44146  20075022.7584                   20075021.4494
  -3586407.18747  -2784156.99644  22839639.5004                   22839639.3134
  -6913248.37547  -5371603.85245  22323041.6804                   22323039.8484
 -10953002.41048  -8526196.93046  21650999.1954                   21650996.5904
 11  8 22 19 32 30.0000000  0  7G17G24G07G08G26G11G28
 -14711568.99647 -11451363.16846  21297210.8524                   21297209.5434
 -11361305.07847  -8843856.26645  22032892.5234                   22032892.4654
     20816.12948     27656.39846  21422651.9924                   21422650.6294
 -15947848.01648 -12412977.15646  20073133.4844                   20073131.8754
  -3600852.28547  -2795412.94544  22836890.2034                   22836889.8954
  -6876272.62947  -5342791.63345  22330077.9774                   22330076.5164
 -11003124.18748  -8565252.86346  21641461.2974                   21641459.1454
 11  8 22 19 33  0.0000000  0  7G17G24G07G08G26G11G28
 -14782737.43447 -11506819.05946  21283667.9534                   21283666.7384
 -11368000.30947  -8849073.34845  22031618.9144                   22031618.4574
     65972.87148     62843.40646  21431245.0234                   21431243.8364
 -15957202.46548 -12420266.37146  20071353.4224                   20071352.0594
  -3614741.68046  -2806235.89844  22834247.3754                   22834247.1054
  -6838839.13747  -5313622.72745  22337201.2814                   22337200.0594
 -11053222.02348  -8604290.13346  21631928.0704                   21631925.4494
 11  8 22 19 33 30.0000000  0  7G17G24G07G08G26G11G28
 -14853539.40248 -11561989.39846  21270194.5944                   21270193.6024
 -11374137.31647  -8853855.45745  22030451.0474                   22030450.6914
    111549.05548     98357.25846  21439917.7734                   21439916.8284
 -15965981.32448 -12427107.07446  20069683.0784                   20069681.3634
  -3628076.04347  -2816626.33644  22831710.4774                   22831709.9844
  -6800949.50447  -5284098.37545  22344411.8754                   22344409.9734
 -11103294.96548  -8643308.02046  21622399.5164                   21622397.1564
 11  8 22 19 34  0.0000000  0  7G17G24G07G08G26G11G28
 -14923974.89848 -11616874.17246  21256791.2734                   21256790.1844
 -11379715.97347  -8858202.48845  22029389.5784                   22029389.0984
    157543.64548    134197.12146  21448670.3524                   21448669.1994
 -15974183.88748 -12433498.71946  20068122.3754                   20068120.5044
  -3640856.48047  -2826585.15644  22829278.1724                   22829278.0314
  -6762605.48847  -5254219.96944  22351708.1024                   22351706.5664
 -11153342.23448  -8682305.88746  21612875.6644                   21612873.3754
 11  8 22 19 34 30.0000000  0  7G17G24G07G08G26G11G28
 -14994043.00848 -11671472.66846  21243457.7424                   21243456.7504
 -11384735.53147  -8862113.84045  22028434.2974                   22028434.3524
    203956.07448    170362.57846  21457502.3364                   21457501.5554
 -15981808.70348 -12439440.16846  20066671.0234                   20066669.6954
  -3653083.34047  -2836112.60544  22826951.6174                   22826951.0204
  -6723807.85947  -5223988.08645  22359091.2974                   22359089.3324
 -11203362.16448  -8721282.46146  21603357.3204                   21603354.8404
 11  8 22 19 35  0.0000000  0  7G17G24G07G08G26G11G28
 -15063740.48448 -11725782.36746  21230194.7344                   21230193.5664
 -11389193.00847  -8865587.22345  22027586.2034                   22027586.1094
    250788.12947    206855.01646  21466414.1724                   21466413.1414
 -15988852.05948 -12444928.53146  20065330.6024                   20065329.5474
  -3664755.08647  -2845207.49244  22824730.9304                   22824729.8364
  -6684555.84047  -5193402.14845  22366560.3204                   22366558.5864
 -11253351.14148  -8760234.91046  21593844.5554                   21593842.4884
 11  8 22 19 35 30.0000000  0  7G17G24G07G08G26G11G28
 -15133063.65648 -11779800.39146  21217003.0234                   21217001.8874
 -11393084.96147  -8868619.94545  22026845.2504                   22026845.2584
    298042.44548    243676.49246  21475406.2424                   21475405.6414
 -15995309.77748 -12449960.55546  20064102.0634                   20064100.4064
  -3675869.26647  -2853867.94144  22822615.5864                   22822615.5944
  -6644847.86747  -5162460.90645  22374116.8834                   22374114.9774
 -11303304.73448  -8799159.78946  21584338.8134                   21584336.4734
 11  8 22 19 36  0.0000000  0  7G17G24G07G08G26G11G28
 -15202013.98048 -11833527.91046  21203882.2034                   21203880.9654
 -11396413.26247  -8871213.44945  22026212.3524                   22026212.0634
    345715.73847    280824.44946  21484478.2584                   21484477.5434
 -16001183.07848 -12454537.18446  20062984.2194                   20062982.8594
  -3686428.78947  -2862096.17244  22820606.5784                   22820606.3364
  -6604687.01247  -5131166.78944  22381759.2814                   22381757.4414
 -11353223.82048  -8838057.78946  21574839.4844                   21574837.3634
 11  8 22 19 36 30.0000000  0  7G17G24G07G08G26G11G28
 -15270587.96948 -11886962.16446  21190833.2114                   21190831.7304
 -11399174.57047  -8873365.13745  22025686.6484                   22025686.1914
    393810.23847    318300.61746  21493630.3364                   21493629.2114
 -16006467.83648 -12458655.22346  20061978.7974                   20061977.4104
  -3696431.46947  -2869890.51244  22818703.2974                   22818702.8204
  -6564071.85547  -5099518.65644  22389488.1094                   22389486.5904
 -11403104.18448  -8876925.60246  21565348.0084                   21565345.1724
 11  8 22 19 37  0.0000000  0  7G17G24G07G08G26G11G28
 -15338784.72348 -11940102.47746  21177855.7974                   21177854.0944
 -11401368.14847  -8875074.44545  22025268.9224                   22025268.9344
    442325.21948    356104.43046  21502862.7194                   21502861.6054
 -16011162.32848 -12462313.30146  20061085.4694                   20061083.8134
  -3705877.82447  -2877251.34844  22816905.0474                   22816905.4224
  -6523003.18747  -5067517.12944  22397303.2194                   22397301.6174
 -11452944.15648  -8915761.94946  21555863.3284                   21555861.3754
 11  8 22 19 37 30.0000000  0  7G17G24G07G08G26G11G28
 -15406603.10948 -11992947.95746  21164950.4534                   21164948.7974
 -11402993.41847  -8876340.91045  22024959.9304                   22024959.7814
    491260.71948    394235.92246  21512174.9694                   21512173.9804
 -16015265.09848 -12465510.29746  20060304.7424                   20060303.3324
  -3714768.14147  -2884178.91044  22815213.4534                   22815213.3554
  -6481482.17647  -5035163.13344  22405204.6094                   22405202.6604
 -11502741.70348  -8954565.24246  21546387.3204                   21546385.3874
 11  8 22 19 38  0.0000000  0  7G17G24G07G08G26G11G28
 -15474040.77348 -12045496.75846  21152117.4384                   21152116.0204
 -11404048.57847  -8877163.13345  22024759.2114                   22024759.1454
    540617.45348    432695.64146  21521567.4384                   21521566.1294
 -16018773.96948 -12468244.51646  20059636.9534                   20059635.7624
  -3723101.69947  -2890672.62944  22813627.4534                   22813627.7624
  -6439508.56247  -5002456.46544  22413191.9534                   22413190.1724
 -11552494.04748  -8993333.30546  21536919.7734                   21536917.4104
 11  8 22 19 38 30.0000000  0  7G17G24G07G08G26G11G28
 -15541094.79748 -12097746.63346  21139357.1094                   21139355.8134
 -11404530.74247  -8877538.86745  22024667.2734                   22024667.2894
    590396.98448    471484.82846  21531039.7424                   21531038.8754
 -16021685.01248 -12470512.89546  20059082.9224                   20059081.9614
  -3730876.90647  -2896731.27744  22812147.8444                   22812147.8714
  -6397081.45747  -4969396.41844  22421265.4144                   22421263.4804
 -11602197.09448  -9032062.95346  21527461.4384                   21527459.3874
 11  8 22 19 39  0.0000000  0  8G17G24G07G08G26G11G04G28
 -15607770.09448 -12149701.38746  21126669.2114                   21126667.9694
 -11404444.98847  -8877472.06245  22024683.7814                   22024683.4224
    640593.30148    510598.76646  21540592.1334                   21540591.2774
 -16024002.53548 -12472318.79346  20058642.1414                   20058640.8834
  -3738099.92647  -2902359.63744  22810773.7114                   22810773.1684
  -6354207.53147  -4935988.20344  22429424.6094                   22429422.2624
   9189469.09456   7173504.55553  24511538.0634                   24511543.3954
 -11651855.43448  -9070757.76246  21518011.7274                   21518009.5634
 11  8 22 19 39 30.0000000  0  8G17G24G07G08G26G11G04G28
 -15674075.39848 -12201367.83646  21114052.1094                   21114050.5084
 -11403801.05147  -8876970.30145  22024806.1414                   22024806.0004
    691195.70348    550029.13746  21550221.4224                   21550220.4614
 -16025735.44148 -12473669.14146  20058312.3134                   20058311.0784
  -3744781.45347  -2907566.07444  22809502.1174                   22809502.4384
  -6310897.82447  -4902240.41444  22437666.1414                   22437664.1954
   9048167.53946   7063399.68043  24484649.2344                   24484654.9924
 -11701476.95348  -9109423.88746  21508569.3674                   21508566.7584
 11  8 22 19 40  0.0000000  0  8G17G24G07G08G26G11G04G28
 -15740011.02348 -12252746.21946  21101504.6564                   21101503.0984
 -11402599.20347  -8876033.81245  22025035.4304                   22025035.0474
    742202.59448    589774.69946  21559927.8284                   21559927.0044
 -16026883.44148 -12474563.71146  20058094.2194                   20058092.5784
  -3750922.80547  -2912351.58244  22808333.4304                   22808333.4144
  -6267154.32847  -4868154.62544  22445990.5314                   22445987.8634
   8906801.96946   6953244.94143  24457747.6414                   24457753.9844
 -11751060.91448  -9148060.73846  21499133.2424                   21499131.1844
 11  8 22 19 40 30.0000000  0  8G17G24G07G08G26G11G04G28
 -15805570.95748 -12303831.86346  21089028.9774                   21089027.6604
 -11400833.22347  -8874657.73045  22025371.3834                   22025370.8984
    793619.05948    629839.40646  21569712.3204                   21569710.9964
 -16027439.93748 -12474997.38346  20057988.4224                   20057986.6914
  -3756519.06647  -2916712.34844  22807268.2584                   22807268.2934
  -6222972.58647  -4833727.34444  22454397.2814                   22454395.8134
   8765381.82446   6843047.73043  24430836.5554                   24430842.4534
 -11800600.02748  -9186662.64146  21489706.7974                   21489704.3204
 11  8 22 19 41  0.0000000  0  8G17G24G07G08G26G11G04G28
 -15870749.75048 -12354620.51646  21076625.9064                   21076624.5274
 -11398498.70747  -8872838.64145  22025815.4534                   22025815.0354
    845448.80148    670226.14846  21579575.1564                   21579574.0314
 -16027399.37148 -12474965.80546  20057995.7034                   20057994.5004
  -3761566.80547  -2920645.68444  22806307.6644                   22806308.2274
  -6178349.74647  -4798956.33244  22462889.0164                   22462886.9654
   8623914.85247   6732814.00043  24403916.5474                   24403922.2304
 -11850088.35248  -9225224.97346  21480289.4224                   21480287.4654
 11  8 22 19 41 30.0000000  0  8G17G24G07G08G26G11G04G28
 -15935544.44148 -12405109.86746  21064295.8444                   21064294.3484
 -11395592.70347  -8870574.22345  22026368.2274                   22026368.2774
    897693.62148    710936.32846  21589517.0004                   21589515.9804
 -16026758.03948 -12474466.09046  20058117.8594                   20058116.2894
  -3766064.43047  -2924150.35944  22805452.6254                   22805451.8674
  -6133284.40247  -4763840.53544  22471464.6804                   22471462.5164
   8482407.25847   6622548.55943  24376988.2194                   24376993.6484
 -11899521.70348  -9263744.46146  21470882.3914                   21470880.2274
 11  8 22 19 42  0.0000000  0  8G17G24G07G08G26G11G04G28
 -15999958.05948 -12455302.26646  21052038.1484                   21052037.3634
 -11392118.96547  -8867867.43445  22027029.5084                   22027029.0044
    950349.00848    751966.41046  21599536.7114                   21599536.1644
 -16025518.64848 -12473500.36746  20058353.7504                   20058352.7424
  -3770016.29347  -2927229.78544  22804700.2974                   22804700.5084
  -6087781.55547  -4728383.80944  22480124.1094                   22480121.6094
   8340858.68847   6512251.22343  24350051.9694                   24350057.4574
 -11948902.54748  -9302223.03146  21461485.7664                   21461483.3524
 11  8 22 19 42 30.0000000  0  8G17G24G07G08G26G11G04G28
 -16063989.44548 -12505196.83246  21039853.5084                   21039852.4924
 -11388076.83647  -8864717.73045  22027798.6484                   22027798.4494
   1003414.43048    793316.01246  21609635.0164                   21609634.0744
 -16023680.26648 -12472067.89546  20058703.4534                   20058702.2974
  -3773423.10547  -2929884.49644  22804051.7584                   22804051.7734
  -6041842.21947  -4692586.96144  22488865.4614                   22488863.6374
   8199273.35246   6401925.26243  24323108.8594                   24323114.7664
 -11998228.52748  -9340658.86346  21452099.5004                   21452097.0434
 11  8 22 19 43  0.0000000  0  8G17G24G07G08G26G11G04G28
 -16127639.51248 -12554794.26246  21027741.1804                   21027739.8984
 -11383467.88747  -8861126.35545  22028675.4454                   22028675.3834
   1056887.21948    834983.03946  21619810.4924                   21619809.8364
 -16021243.52748 -12470169.16846  20059167.5634                   20059166.0594
  -3776287.52747  -2932116.54744  22803506.7734                   22803506.8324
  -5995469.97347  -4656452.78144  22497690.0634                   22497688.3364
   8057652.89846   6291571.92643  24296159.5784                   24296165.1994
 -12047500.21148  -9379052.38346  21442723.2504                   21442721.0084
 11  8 22 19 43 30.0000000  0  8G17G24G07G08G26G11G04G28
 -16190912.80148 -12604098.10546  21015700.8984                   21015699.7034
 -11378296.40647  -8857096.63345  22029659.9144                   22029659.4654
   1110761.90648    876963.22746  21630062.8524                   21630061.8094
 -16018212.09448 -12467807.05146  20059744.3914                   20059742.9924
  -3778615.21147  -2933930.37544  22803064.5474                   22803064.4024
  -5948670.33647  -4619985.57444  22506595.7274                   22506594.0164
   7915996.28146   6181190.39143  24269202.3364                   24269207.8244
 -12096720.29748  -9417405.69546  21433356.7734                   21433354.7384
 11  8 22 19 44  0.0000000  0  8G17G24G07G08G26G11G04G28
 -16253810.80948 -12653109.51646  21003731.5864                   21003730.2664
 -11372564.44547  -8852630.18045  22030750.3914                   22030750.1334
   1165035.86747    919254.54346  21640390.6724                   21640390.1294
 -16014586.59448 -12464982.02046  20060434.2734                   20060433.0124
  -3780408.90647  -2935328.10244  22802722.8834                   22802723.2624
  -5901446.75847  -4583188.02744  22515581.8054                   22515580.2774
   7774305.15646   6070781.98842  24242239.1024                   24242244.6214
 -12145889.33648  -9455719.23846  21424000.2734                   21423997.8714
 11  8 22 19 44 30.0000000  0  8G17G24G07G08G26G11G04G28
 -16316333.02747 -12701828.10546  20991833.9384                   20991832.6254
 -11366272.12547  -8847727.07445  22031947.9844                   22031947.8284
   1219707.77748    961855.94946  21650794.8594                   21650794.1914
 -16010367.14148 -12461694.17246  20061237.3834                   20061235.8364
  -3781670.14147  -2936310.92644  22802482.8594                   22802483.4454
  -5853801.18447  -4546061.65644  22524648.6954                   22524647.2894
   7632582.66846   5960349.13743  24215270.5084                   24215276.2624
 -12195006.24248  -9493992.14546  21414653.8594                   21414651.6414
 11  8 22 19 45  0.0000000  0  8G17G24G07G08G26G11G04G28
 -16378481.43448 -12750255.43046  20980007.7584                   20980006.3404
 -11359422.03147  -8842389.35245  22033251.4454                   22033251.5354
   1274774.15248   1004764.73446  21661273.4454                   21661272.9304
 -16005555.55148 -12457944.91846  20062152.7344                   20062151.2814
  -3782402.44147  -2936881.59845  22802343.9694                   22802343.7774
  -5805737.24247  -4508609.27344  22533794.9144                   22533793.3364
   7490829.98446   5849892.75443  24188295.1024                   24188300.5864
 -12244071.61348  -9532224.89846  21405317.0004                   21405314.6254
 11  8 22 19 45 30.0000000  0  8G17G24G07G08G26G11G04G28
 -16440259.95748 -12798394.52046  20968251.4384                   20968250.3364
 -11352018.29347  -8836620.20745  22034660.5784                   22034660.1884
   1330229.71548   1047976.77346  21671826.3054                   21671825.3714
 -16000155.52748 -12453737.14146  20063180.3444                   20063178.9614
  -3782611.10547  -2937044.24244  22802303.8834                   22802304.0634
  -5757260.72747  -4470835.41444  22543019.9304                   22543018.2734
   7349046.41446   5739412.34443  24161313.8444                   24161319.1804
 -12293088.02748  -9570419.50446  21395989.4384                   21395986.9774
 11  8 22 19 46  0.0000000  0  8G17G24G07G08G26G11G04G28
 -16501668.16847 -12846245.06246  20956566.0314                   20956564.8594
 -11344061.12947  -8830419.82845  22036174.7894                   22036174.9304
   1386073.46148   1091491.30146  21682453.2274                   21682452.5514
 -15994166.27048 -12449070.23046  20064319.9694                   20064318.8134
  -3782297.42647  -2936799.86744  22802363.1414                   22802363.8444
  -5708373.63747  -4432741.61744  22552322.4304                   22552320.8834
   7207235.24246   5628910.37143  24134328.5084                   24134333.6914
 -12342054.21948  -9608574.97346  21386671.3364                   21386669.5864
 11  8 22 19 46 30.0000000  0  8G17G24G07G08G26G11G04G28
 -14987283.84048 -11666205.31646  21244743.8984                   21244742.5234
  -9760131.13347  -7596188.67245  22337586.1334                   22337585.9694
   3017722.54348   2362906.10246  21992945.7734                   21992944.6644
 -14412167.64848 -11216344.07046  20365364.4844                   20365363.1054
  -2206042.61347  -1708549.40244  23102314.7894                   23102314.9654
  -4083658.89847  -3166730.16844  22861495.7344                   22861494.0944
   8640824.68446   6745993.36343  24407131.0084                   24407137.0164
 -10815547.19948  -8419088.99246  21677156.3204                   21677153.7814
 11  8 22 19 47  0.0000000  0  8G17G24G07G08G26G11G04G28
 -15047949.33248 -11713477.09846  21233199.3524                   21233197.8634
  -9751066.71147  -7589125.49645  22339311.0394                   22339311.4304
   3074340.72748   2407024.09046  22003719.6024                   22003718.6334
 -14404997.09448 -11210756.66446  20366729.1484                   20366727.6954
  -2204686.80147  -1707493.00044  23102573.0004                   23102572.7034
  -4033953.73847  -3127998.93044  22870954.2814                   22870952.6174
   8498969.97346   6635457.48043  24380136.9844                   24380141.8674
 -10864407.45748  -8457161.91846  21667858.2194                   21667855.6684
 11  8 22 19 47 30.0000000  0  8G17G24G07G08G26G11G04G28
 -15108247.65648 -11760462.78546  21221724.9454                   21221723.4104
  -9741453.69947  -7581634.84845  22341140.6254                   22341140.4734
   3131339.63348   2451438.73846  22014566.3594                   22014565.7034
 -14397239.72748 -11204712.00046  20368205.5004                   20368203.7934
  -2202816.74246  -1706035.85544  23102928.6254                   23102929.4104
  -3983846.62147  -3088954.46944  22880489.2814                   22880487.5904
   8357093.94946   6524905.00443  24353138.7584                   24353144.3674
 -10913217.30547  -8495195.56246  21658570.0474                   21658567.5084
 11  8 22 19 48  0.0000000  0  8G17G24G07G08G26G11G04G28
 -15168186.95748 -11807168.71946  21210318.9144                   21210317.3914
  -9731300.38347  -7573723.18745  22343072.4774                   22343072.8014
   3188709.77047   2496142.65645  22025483.8834                   22025482.9304
 -14388903.40248 -11198216.20346  20369791.9454                   20369790.4494
  -2200441.69547  -1704185.22344  23103381.0084                   23103381.0664
  -3933347.60547  -3049604.63744  22890099.1024                   22890097.4494
   8215191.88746   6414332.25443  24326134.9774                   24326140.8554
 -10961983.24648  -8533195.00446  21649290.3134                   21649287.7814
 11  8 22 19 48 30.0000000  0  8G17G24G07G08G26G11G04G28
 -15227760.37948 -11853589.55546  21198982.5234                   21198981.1054
  -9720600.67247  -7565385.77045  22345109.0084                   22345108.7504
   3246456.50847   2541140.03145  22036472.4774                   22036472.0354
 -14379981.43048 -11191264.05546  20371489.5554                   20371488.0744
  -2197556.80947  -1701937.31644  23103929.7664                   23103930.5234
  -3882451.98047  -3009945.75844  22899784.1174                   22899782.0394
   8073273.65646   6303746.89143  24299129.4144                   24299134.5474
 -11010697.47348  -8571154.13746  21640020.2664                   21640017.7344
 11  8 22 19 49  0.0000000  0  8G17G24G07G08G26G11G04G28
 -15286968.57848 -11899725.78546  21187715.5634                   21187714.0594
  -9709355.76647  -7556623.52345  22347248.7344                   22347248.4924
   3304577.76247   2586429.23445  22047532.5864                   22047532.0864
 -14370473.98848 -11183855.69546  20373298.6644                   20373297.1604
  -2194164.26647  -1699293.84444  23104575.1564                   23104576.0274
  -3831162.08247  -2969979.63744  22909544.5004                   22909543.2734
   7931341.74246   6193150.84443  24272120.0704                   24272125.2194
 -11059359.45748  -8609072.56646  21630760.3594                   21630757.9844
 11  8 22 19 49 30.0000000  0  8G17G24G07G08G26G11G04G28
 -15345814.34448 -11945579.60946  21176517.3054                   21176516.1094
  -9697568.91447  -7547438.98445  22349491.4924                   22349491.6804
   3363069.70747   2632007.28145  22058663.5164                   22058662.7624
 -14360383.56648 -11175993.07046  20375218.9224                   20375217.7344
  -2190268.33247  -1696258.11344  23105317.2114                   23105317.2854
  -3779482.65247  -2929710.01644  22919379.1024                   22919376.6294
   7789396.84046   6082544.71943  24245108.2114                   24245114.0704
 -11107970.39148  -8646951.21946  21621509.9304                   21621507.5274
 11  8 22 19 50  0.0000000  0  8G17G24G07G08G26G11G04G28
 -15404296.34047 -11991149.98446  21165388.6954                   21165387.5164
  -9685239.78147  -7537831.89845  22351837.9614                   22351838.1054
   3421931.65647   2677873.64545  22069864.4844                   22069863.9344
 -14349709.07047 -11167675.32046  20377250.4534                   20377248.5864
  -2185869.61347  -1692830.60544  23106154.3134                   23106154.2114
  -3727414.31247  -2889137.32044  22929287.2504                   22929285.5314
   7647443.24646   5971931.80143  24218095.7664                   24218101.2504
 -11156527.74648  -8684788.12546  21612269.8204                   21612267.2194
 11  8 22 19 50 30.0000000  0  8G17G24G07G08G26G11G04G28
 -15462416.62547 -12036438.50446  21154328.7584                   21154327.4844
  -9672370.65647  -7527804.02745  22354286.7584                   22354286.5664
   3481160.67247   2724026.02745  22081135.1644                   22081134.9304
 -14338452.37947 -11158903.92246  20379392.9384                   20379391.0274
  -2180971.59047  -1689014.03544  23107086.3674                   23107086.6334
  -3674960.89147  -2848264.57844  22939268.5554                   22939266.9964
   7505482.34046   5861313.21943  24191080.9144                   24191086.3284
 -11205032.31648  -8722583.90646  21603039.6334                   21603037.3484
 11  8 22 19 51  0.0000000  0  8G17G24G07G08G26G11G04G28
 -15520174.34447 -12081444.50846  21143337.9924                   21143336.4304
  -9658961.63746  -7517355.47345  22356838.4384                   22356838.6054
   3540755.47747   2770463.44945  22092476.2584                   22092475.8444
 -14326612.66447 -11149678.21146  20381645.5394                   20381644.1954
  -2175575.38347  -1684809.25444  23108112.7034                   23108113.6214
  -3622123.68447  -2807092.77044  22949323.6094                   22949321.9344
   7363517.90646   5750691.83643  24164066.0704                   24164070.8714
 -11253482.26248  -8760337.11746  21593819.9224                   21593817.5904
 11  8 22 19 51 30.0000000  0  8G17G24G07G08G26G11G04G28
 -15577573.54748 -12126171.14846  21132415.2814                   21132413.9654
  -9645017.22747  -7506489.73445  22359492.2734                   22359492.2734
   3600711.08647   2817182.01245  22103885.1254                   22103884.9344
 -14314194.08648 -11140001.43446  20384008.5394                   20384007.2894
  -2169686.60247  -1680220.67244  23109233.2974                   23109234.2814
  -3568908.69147  -2765626.60544  22959449.7814                   22959447.9964
   7221549.28546   5640067.20343  24137049.5944                   24137055.0084
 -11301879.78148  -8798049.47346  21584610.1954                   21584607.6954
 11  8 22 19 52  0.0000000  0  8G17G24G07G08G26G11G04G28
 -15634615.03148 -12170619.04746  21121560.5004                   21121559.2664
  -9630538.69947  -7495207.78545  22362247.1414                   22362247.4924
   3661025.25047   2864179.95345  22115362.7664                   22115362.5434
 -14301196.76248 -11129873.69546  20386481.7504                   20386480.4384
  -2163307.33647  -1675249.87944  23110447.5164                   23110448.3634
  -3515318.34447  -2723867.94544  22969648.0314                   22969646.2304
   7079579.32846   5529441.53543  24110033.6564                   24110038.9384
 -11350224.84847  -8835720.95346  21575410.1804                   21575407.8634
 11  8 22 19 52 30.0000000  0  8G17G24G07G08G26G11G04G28
 -15691297.30948 -12214787.03946  21110774.4694                   21110772.9384
  -9615525.18446  -7483508.95745  22365104.5704                   22365104.0984
   3721698.14147   2911457.44145  22126908.4064                   22126908.1524
 -14287619.30548 -11119293.89546  20389065.8754                   20389063.9064
  -2156438.14147  -1669897.33244  23111754.6804                   23111755.8164
  -3461353.03147  -2681817.10244  22979917.1174                   22979915.6684
   6937612.87146   5418818.57843  24083018.4384                   24083023.7154
 -11398513.96548  -8873348.84046  21566221.2974                   21566218.6994
 11  8 22 19 53  0.0000000  0  8G17G24G07G08G26G11G04G28
 -15747619.33648 -12258674.33246  21100056.2424                   21100055.2424
  -9599976.15247  -7471392.85545  22368062.9384                   22368062.9924
   3782729.18447   2959014.00045  22138522.7034                   22138522.0824
 -14273460.98048 -11108261.47746  20391760.0704                   20391758.6684
  -2149079.29747  -1664163.25044  23113154.9384                   23113155.8164
  -3407013.66047  -2639474.78944  22990257.7424                   22990255.9924
   6795653.99647   5308201.53944  24056004.4224                   24056008.7814
 -11446744.58648  -8910931.14546  21557042.9614                   21557041.0314
 11  8 22 19 53 30.0000000  0  8G17G24G07G08G26G11G04G28
 -15803589.26248 -12302287.25846  21089405.5314                   21089404.5274
  -9583900.65247  -7458866.51645  22371121.9924                   22371122.3324
   3844108.69147   3006842.07846  22150203.1334                   22150202.0744
 -14258730.14548 -11096782.94146  20394563.3674                   20394561.9494
  -2141240.97747  -1658055.53944  23114646.4844                   23114647.6294
  -3352310.24247  -2596848.80544  23000667.0554                   23000665.5944
   6653698.16046   5197586.86744  24028990.6954                   24028995.6914
 -11494923.83648  -8948473.41846  21547875.0784                   21547872.7234
 11  8 22 19 54  0.0000000  0  8G17G24G07G08G26G11G04G28
 -15859204.87548 -12345624.08646  21078822.2344                   21078821.1024
  -9567297.14847  -7445928.74645  22374281.7114                   22374282.0124
   3905837.18447   3054942.10245  22161949.6254                   22161949.1024
 -14243424.59848 -11084856.58246  20397475.7034                   20397474.4694
  -2132923.05147  -1651574.10245  23116230.0164                   23116230.6454
  -3297242.77047  -2553939.15644  23011146.2424                   23011144.8324
   6511750.50446   5086978.55943  24001978.6254                   24001983.7504
 -11543048.14848  -8985972.88746  21538717.1174                   21538714.6884
 11  8 22 19 54 30.0000000  0  8G17G24G07G08G26G11G04G28
 -15914465.87148 -12388684.59446  21068306.6804                   21068305.1564
  -9550165.91447  -7432579.76245  22377541.5164                   22377541.8364
   3967913.90247   3103313.46945  22173762.0554                   22173762.1954
 -14227543.55948 -11072481.79346  20400497.8984                   20400496.8244
  -2124126.34847  -1644719.60945  23117903.5944                   23117904.4064
  -3241812.79347  -2510747.00844  23021694.1334                   23021692.6604
   6369815.19546   4976379.90243  23974969.2344                   23974973.7234
 -11591115.43748  -9023427.91446  21529570.5314                   21529567.9414
 11  8 22 19 55  0.0000000  0  8G17G24G07G08G26G11G04G28
 -15969374.29748 -12431470.37946  21057858.0394                   21057856.3444
  -9532509.62147  -7418821.62945  22380901.7814                   22380901.6294
   4030335.48047   3151953.55145  22185640.4924                   22185640.5944
 -14211089.23848 -11059660.30146  20403629.2274                   20403627.8094
  -2114854.65647  -1637494.99644  23119668.2664                   23119669.1254
  -3186023.81647  -2467275.12544  23032310.2814                   23032309.0474
   6227893.45746   4865791.78143  23947961.8914                   23947966.3164
 -11639126.28548  -9060838.96146  21520434.2274                   21520431.9024
 11  8 22 19 55 30.0000000  0  8G17G24G07G08G26G11G04G28
 -16023929.71548 -12473981.08246  21047476.5234                   21047474.9884
  -9514328.65248  -7404654.66445  22384361.3674                   22384361.5704
   4093100.61747   3200861.34445  22197584.4924                   22197584.5744
 -14194061.15248 -11046391.69546  20406869.7114                   20406868.3714
  -2105109.76247  -1629901.64845  23121522.8674                   23121523.1724
  -3129877.47347  -2423524.77344  23042994.7734                   23042993.3284
   6085989.11746   4755217.25043  23920958.4064                   23920963.6134
 -11687079.14548  -9098204.82046  21511309.2114                   21511306.7624
 11  8 22 19 56  0.0000000  0  8G17G24G07G08G26G11G04G28
 -16078133.13748 -12516217.51246  21037161.8754                   21037159.9924
  -9495624.65647  -7390080.14545  22387920.8524                   22387920.8594
   4156207.07047   3250035.10245  22209593.6804                   22209593.0554
 -14176460.49648 -11032676.94546  20410218.9534                   20410217.2774
  -2094893.88346  -1621941.29345  23123466.6024                   23123467.9734
  -3073376.70747  -2379498.26244  23053746.7194                   23053745.2194
   5944104.54746   4644658.09843  23893959.0634                   23893963.1564
 -11734973.18448  -9135524.84846  21502195.3524                   21502192.9694
 11  8 22 19 56 30.0000000  0  8G17G24G07G08G26G11G04G28
 -16131985.85948 -12558180.66846  21026913.9924                   21026912.3014
  -9476399.64547  -7375099.62945  22391578.6804                   22391579.3204
   4219652.07447   3299472.66045  22221666.7664                   22221666.1954
 -14158288.53548 -11018517.02046  20413676.7734                   20413675.7114
  -2084210.29346  -1613616.49244  23125499.4144                   23125501.0234
  -3016524.33247  -2335197.75844  23064565.4224                   23064563.6294
   5802242.10546   4534116.19543  23866962.2974                   23866967.1254
 -11782807.78548  -9172798.55946  21493092.4304                   21493089.7424
 11  8 22 19 57  0.0000000  0  8G17G24G07G08G26G11G04G28
 -16185488.70748 -12599871.19146  21016733.0084                   21016731.1094
  -9456655.08247  -7359714.26645  22395336.3674                   22395336.4774
   4283433.39847   3349172.28945  22233803.9924                   22233803.3674
 -14139546.44548 -11003912.84046  20417243.5084                   20417241.9454
  -2073061.45747  -1604929.17245  23127621.9224                   23127622.6804
  -2959322.98847  -2290625.33644  23075450.3984                   23075449.2544
   5660404.44946   4423593.57843  23839971.8284                   23839976.1914
 -11830582.48048  -9210025.59446  21484001.3524                   21483998.9384
 11  8 22 19 57 30.0000000  0  8G17G24G07G08G26G11G04G28
 -16238642.50448 -12641289.72346  21006618.2114                   21006616.4344
  -9436392.59847  -7343925.34445  22399192.4454                   22399191.8484
   4347548.85547   3399132.27345  22246004.9844                   22246004.1214
 -14120234.86748 -10988864.90646  20420918.3524                   20420917.0944
  -2061449.97747  -1595881.32444  23129831.2344                   23129832.2544
  -2901776.10247  -2245783.64544  23086401.2424                   23086400.3324
   5518594.00846   4313092.18843  23812986.2814                   23812990.7344
 -11878296.49648  -9247205.34446  21474921.6484                   21474919.4454
 11  8 22 19 58  0.0000000  0  8G17G24G07G08G26G11G04G28
 -16291447.22748 -12682436.25046  20996569.7034                   20996567.9804
  -9415613.04347  -7327733.49645  22403146.3524                   22403146.2584
   4411996.87547   3449351.40645  22258269.0864                   22258268.6454
 -14100353.84848 -10973373.25046  20424701.3134                   20424700.4844
  -2049377.85547  -1586474.53544  23132128.4694                   23132129.2114
  -2843885.09847  -2200673.82844  23097416.9384                   23097416.1914
   5376814.39546   4202614.82043  23786006.0004                   23786010.6684
 -11925948.17648  -9284336.52746  21465853.6094                   21465851.5664
 11  8 22 19 58 30.0000000  0  8G17G24G07G08G26G11G04G28
 -16343903.81248 -12723311.50046  20986587.4774                   20986585.7074
  -9394318.12947  -7311140.07845  22407198.6564                   22407198.9654
   4476774.79347   3499827.60945  22270595.6644                   22270595.4774
 -14079904.71548 -10957438.91846  20428592.6724                   20428591.7734
  -2036847.59846  -1576710.78544  23134513.1254                   23134513.5204
  -2785652.48447  -2155297.83644  23108499.0004                   23108497.6174
   5235068.20346   4092163.47744  23759032.4224                   23759037.0514
 -11973536.98448  -9321418.71946  21456797.9694                   21456795.8954
 11  8 22 19 59  0.0000000  0  8G17G24G07G08G26G11G04G28
 -16396014.99648 -12763917.61346  20976671.0554                   20976669.5274
  -9372511.05147  -7294147.57845  22411348.6174                   22411348.7114
   4541878.89547   3550557.96545  22282984.6174                   22282984.7734
 -14058890.29748 -10941064.09446  20432591.6804                   20432590.5474
  -2023863.76246  -1566593.57444  23136983.6094                   23136984.8094
  -2727083.02047  -2109659.33244  23119644.9614                   23119642.7274
   5093356.34846   3981738.92644  23732065.5784                   23732069.7774
 -12021063.85248  -9358452.63746  21447753.7734                   21447751.5274
 11  8 22 19 59 30.0000000  0  8G17G24G07G08G26G11G04G28
 -16447781.30948 -12804254.98446  20966819.9924                   20966818.4844
  -9350193.24647  -7276757.10545  22415595.4304                   22415595.5944
   4607307.19947   3601540.95745  22295435.4924                   22295435.2234
 -14037311.14848 -10924249.22346  20436698.0394                   20436696.8954
  -2010428.44547  -1556124.57444  23139540.1564                   23139540.7464
  -2668178.99647  -2063760.14544  23130853.4144                   23130851.6214
   4951681.98046   3871343.57043  23705105.3054                   23705110.1484
 -12068527.64148  -9395437.41446  21438721.7274                   21438719.4924
 11  8 22 20  0  0.0000000  0  8G17G24G07G08G26G11G04G28
 -16499200.82448 -12844322.12946  20957035.1724                   20957033.9144
  -9327363.58647  -7258967.78945  22419939.5164                   22419939.8524
   4673059.93847   3652776.74645  22307948.0554                   22307947.7504
 -14015165.69948 -10906993.08646  20440912.3134                   20440911.1884
  -1996541.70747  -1545303.80944  23142183.2504                   23142183.5314
  -2608940.31647  -2017600.20744  23142126.0474                   23142124.2274
   4810050.43446   3760981.59043  23678153.3284                   23678157.9924
 -12115924.95348  -9432370.39146  21429702.1724                   21429700.0084
 11  8 22 20  0 30.0000000  0  8G17G24G07G08G26G11G04G28
 -16550274.44148 -12884119.73446  20947316.3914                   20947314.9224
  -9304023.90647  -7240781.04745  22424381.0554                   22424381.5274
   4739135.00447   3704263.69945  22320521.8054                   22320521.5944
 -13992455.03548 -10889296.51646  20445233.9064                   20445233.5354
  -1982206.23047  -1534133.39544  23144911.4224                   23144911.6954
  -2549369.61347  -1971181.52044  23153462.2274                   23153460.8204
   4668464.37946   3650655.04344  23651210.5314                   23651214.2934
 -12163254.48448  -9469250.54746  21420695.8284                   21420693.4924
 11  8 22 20  1  0.0000000  0  8G17G24G07G08G26G11G04G28
 -16601002.75048 -12923648.28146  20937662.6094                   20937661.2424
  -9280175.63347  -7222198.00845  22428919.1174                   22428919.2854
   4805530.03147   3755999.97345  22333156.3754                   22333156.4844
 -13969180.24248 -10871160.36746  20449663.4144                   20449662.2424
  -1967424.82847  -1522615.50044  23147724.1484                   23147724.5864
  -2489469.95347  -1924506.52344  23164861.1724                   23164858.8244
   4526926.49246   3540366.03943  23624276.6564                   23624279.6484
 -12210515.78148  -9506077.54346  21411702.5314                   21411700.0204
 11  8 22 20  1 30.0000000  0  8G17G24G07G08G26G11G04G28
 -16651386.71948 -12962908.50046  20928075.1094                   20928073.4144
  -9255819.92647  -7203219.56645  22433554.1644                   22433554.1454
   4872243.24647   3807984.16845  22345851.3284                   22345851.4804
 -13945341.87948 -10852585.07446  20454199.1414                   20454198.6294
  -1952199.29747  -1510751.55144  23150621.3984                   23150621.7974
  -2429242.89147  -1877576.39844  23176321.7344                   23176320.4184
   4385440.15246   3430117.19143  23597352.8444                   23597356.3244
 -12257707.48448  -9542850.29746  21402722.3134                   21402719.9694
 11  8 22 20  2  0.0000000  0  8G17G24G07G08G26G11G04G28
 -16701427.96948 -13001901.67646  20918552.6644                   20918551.2424
  -9230960.04347  -7183848.25444  22438284.8284                   22438284.8714
   4939270.84047   3860213.35245  22358606.5084                   22358606.9694
 -13920942.55948 -10833572.68046  20458842.4454                   20458841.6724
  -1936533.97347  -1498544.87944  23153602.2194                   23153602.6094
  -2368692.64547  -1830394.44944  23187844.4064                   23187842.5744
   4244006.74246   3319909.56643  23570438.5084                   23570441.7544
 -12304829.39548  -9579568.67646  21393755.1094                   21393752.8954
 11  8 22 20  2 30.0000000  0  8G17G24G07G08G26G11G04G28
 -16751127.57848 -13040628.63346  20909095.0314                   20909093.3484
  -9205597.59847  -7164085.33645  22443111.4304                   22443111.2774
   5006610.60947   3912685.77745  22371420.8364                   22371421.3324
 -13895983.07048 -10814123.77746  20463592.3054                   20463591.1884
  -1920431.27047  -1485997.41044  23156666.8204                   23156666.8954
  -2307822.09847  -1782962.91844  23199427.3594                   23199425.6484
   4102629.02346   3209745.34443  23543534.8834                   23543538.4924
 -12351881.12948  -9616232.37146  21384801.4224                   21384799.2664
 11  8 22 20  3  0.0000000  0  8G17G24G07G08G26G11G04G28
 -16800486.37148 -13079090.02046  20899702.4384                   20899700.7034
  -9179734.22347  -7143932.08645  22448032.7274                   22448033.1374
   5074260.42647   3965399.78945  22384294.4304                   22384294.6254
 -13870464.46148 -10794239.20346  20468448.5394                   20468447.4144
  -1903893.80147  -1473111.17244  23159813.3984                   23159814.0164
  -2246633.69947  -1735283.71544  23211071.8594                   23211069.9494
   3961310.05946   3099626.87543  23516642.5004                   23516646.2034
 -12398861.58648  -9652840.52046  21375861.4774                   21375858.7274
 11  8 22 20  3 30.0000000  0  8G17G24G07G08G26G11G04G28
 -16849504.23047 -13117285.74646  20890374.6954                   20890372.7814
  -9153370.59847  -7123389.03545  22453049.8284                   22453049.8714
   5142219.05547   4018354.44945  22397226.2734                   22397226.8914
 -13844386.86748 -10773919.05146  20473410.6804                   20473409.8324
  -1886923.35947  -1459887.55144  23163043.1724                   23163043.5084
  -2185128.93747  -1687357.98044  23222775.5164                   23222774.1174
   3820053.56646   2989557.12543  23489761.8444                   23489765.7974
 -12445768.73447  -9689391.54746  21366934.9614                   21366933.0984
 11  8 22 20  4  0.0000000  0  8G17G24G07G08G26G11G04G28
 -16898184.10548 -13155218.10946  20881111.1334                   20881109.3094
  -9126510.37147  -7102459.02345  22458161.0864                   22458160.7344
   5210482.22747   4071546.40245  22410216.3834                   22410217.1414
 -13817753.71948 -10753166.01646  20478478.9384                   20478478.3554
  -1869524.57847  -1446330.14544  23166353.7894                   23166354.8404
  -2123312.46547  -1639189.37544  23234538.7894                   23234537.3054
   3678860.21946   2879536.55544  23462893.7504                   23462897.4184
 -12492603.70348  -9725886.33246  21358022.8364                   21358020.5044
 11  8 22 20  4 30.0000000  0  8G17G24G07G08G26G11G04G28
 -16946529.07448 -13192889.52046  20871911.2344                   20871909.6914
  -9099157.72347  -7081145.30145  22463365.9844                   22463366.4064
   5279045.01647   4124971.83245  22423263.9454                   22423264.1134
 -13790568.38748 -10731982.69546  20483652.1254                   20483651.5824
  -1851702.84047  -1432443.16444  23169745.5394                   23169746.7504
  -2061189.39546  -1590781.84843  23246360.3204                   23246359.0274
   3537730.46947   2769565.56644  23436038.0634                   23436041.1724
 -12539367.79348  -9762325.87546  21349124.0704                   21349121.8164
 11  8 22 20  5  0.0000000  0  8G17G24G07G08G26G11G04G28
 -16994537.03948 -13230298.31646  20862775.7114                   20862774.0744
  -9071311.36347  -7059446.85945  22468665.3054                   22468665.4534
   5347908.20347   4178631.33645  22436368.3984                   22436368.3954
 -13762829.23048 -10710367.82846  20488930.6564                   20488929.8594
  -1833457.68447  -1418226.25844  23173217.1174                   23173218.4344
  -1998759.13746  -1542134.94944  23258240.7194                   23258239.6644
   3396670.21547   2659648.71544  23409194.6954                   23409198.1174
 -12586057.31648  -9798707.32446  21340239.0234                   21340237.1134
 11  8 22 20  5 30.0000000  0  8G17G24G07G08G26G11G04G28
 -17042211.36348 -13267447.13346  20853704.0004                   20853702.1604
  -9042975.39147  -7037366.90245  22474057.7424                   22474057.3984
   5417067.00047   4232521.19145  22449528.9064                   22449528.5904
 -13734540.15648 -10688324.44946  20494314.2734                   20494313.1134
  -1814794.36747  -1403683.50044  23176768.4534                   23176769.8324
  -1936027.03546  -1493252.85544  23270178.2274                   23270177.3094
   3255679.86747   2549786.32044  23382365.3914                   23382368.3484
 -12632673.46148  -9835031.59446  21331368.3914                   21331366.2704
 11  8 22 20  6  0.0000000  0  8G17G24G07G08G26G11G04G28
 -17089550.80948 -13304335.00446  20844695.5554                   20844693.9494
  -9014149.36747  -7014905.09445  22479542.9534                   22479543.1724
   5486521.43047   4286641.41845  22462745.6484                   22462745.6954
 -13705699.78948 -10665851.49246  20499802.0784                   20499801.2934
  -1795713.21547  -1388815.16444  23180400.1644                   23180401.6684
  -1872993.46946  -1444135.84843  23282173.2664                   23282171.7344
   3114764.51647   2439982.34044  23355549.6884                   23355552.8014
 -12679212.86348  -9871296.06646  21322512.4614                   21322509.7934
 11  8 22 20  6 30.0000000  0  8G17G24G07G08G26G11G04G28
 -17136558.55548 -13340964.41846  20835749.9384                   20835748.6054
  -8984837.28547  -6992064.54745  22485121.0554                   22485121.0004
   5556266.98447   4340988.48445  22476017.3204                   22476017.6094
 -13676311.71148 -10642951.74646  20505394.6414                   20505393.8164
  -1776219.37547  -1373625.25444  23184110.0474                   23184110.7424
  -1809663.33247  -1394787.75844  23294224.6254                   23294223.2854
   2973924.91447   2330237.40244  23328748.8984                   23328751.8164
 -12725676.52347  -9907501.51246  21313670.4844                   21313667.7154
